Wetterdaten: Montag, 13.02.2023
Datum Zeit Temp. 2m Temp +5 cm Feuchte A. Luftdruck Regen Wind Richtung Richtung Sonnenschein UV Solar Taupunkt Windchill Windben
13.02.2023 00:00 3,4 C 1,7 C 92 % 1038,7 hPa 0,0 l/m 4,8 km/h (1 Bft) NO 45 0 min 0,0 UV-I 0 W/m 2,2 C 3,4 C 6,4 km/h (2 Bft)
13.02.2023 00:01 3,5 C 1,7 C 92 % 1038,8 hPa 0,0 l/m 8,0 km/h (2 Bft) NO 45 0 min 0,0 UV-I 0 W/m 2,3 C 2,0 C 12,9 km/h (3 Bft)
13.02.2023 00:02 3,5 C 1,7 C 92 % 1038,8 hPa 0,0 l/m 6,4 km/h (2 Bft) N-NO 22 0 min 0,0 UV-I 0 W/m 2,3 C 3,5 C 9,7 km/h (2 Bft)
13.02.2023 00:03 3,6 C 1,7 C 92 % 1038,9 hPa 0,0 l/m 4,8 km/h (1 Bft) N-NO 22 0 min 0,0 UV-I 0 W/m 2,4 C 3,6 C 6,4 km/h (2 Bft)
13.02.2023 00:04 3,6 C 1,7 C 92 % 1038,8 hPa 0,0 l/m 6,4 km/h (2 Bft) N-NO 22 0 min 0,0 UV-I 0 W/m 2,4 C 3,6 C 8,0 km/h (2 Bft)
13.02.2023 00:05 3,5 C 1,7 C 92 % 1038,9 hPa 0,0 l/m 6,4 km/h (2 Bft) N-NO 22 0 min 0,0 UV-I 0 W/m 2,3 C 3,5 C 8,0 km/h (2 Bft)
13.02.2023 00:06 3,5 C 1,7 C 92 % 1038,9 hPa 0,0 l/m 8,0 km/h (2 Bft) N-NO 22 0 min 0,0 UV-I 0 W/m 2,3 C 2,0 C 9,7 km/h (2 Bft)
13.02.2023 00:07 3,6 C 1,7 C 92 % 1038,9 hPa 0,0 l/m 4,8 km/h (1 Bft) NO 45 0 min 0,0 UV-I 0 W/m 2,4 C 3,6 C 6,4 km/h (2 Bft)
13.02.2023 00:08 3,5 C 1,7 C 92 % 1038,9 hPa 0,0 l/m 8,0 km/h (2 Bft) NO 45 0 min 0,0 UV-I 0 W/m 2,3 C 2,0 C 9,7 km/h (2 Bft)
13.02.2023 00:09 3,5 C 1,7 C 92 % 1038,9 hPa 0,0 l/m 6,4 km/h (2 Bft) NO 45 0 min 0,0 UV-I 0 W/m 2,3 C 3,5 C 9,7 km/h (2 Bft)
13.02.2023 00:10 3,5 C 1,7 C 92 % 1038,9 hPa 0,0 l/m 6,4 km/h (2 Bft) NO 45 0 min 0,0 UV-I 0 W/m 2,3 C 3,5 C 8,0 km/h (2 Bft)
13.02.2023 00:11 3,5 C 1,7 C 92 % 1038,9 hPa 0,0 l/m 3,2 km/h (1 Bft) NO 45 0 min 0,0 UV-I 0 W/m 2,3 C 3,5 C 6,4 km/h (2 Bft)
13.02.2023 00:12 3,5 C 1,7 C 92 % 1039,0 hPa 0,0 l/m 6,4 km/h (2 Bft) NO 45 0 min 0,0 UV-I 0 W/m 2,3 C 3,5 C 8,0 km/h (2 Bft)
13.02.2023 00:13 3,5 C 1,7 C 92 % 1039,0 hPa 0,0 l/m 4,8 km/h (1 Bft) N-NO 22 0 min 0,0 UV-I 0 W/m 2,3 C 3,5 C 8,0 km/h (2 Bft)
13.02.2023 00:14 3,5 C 1,7 C 92 % 1039,0 hPa 0,0 l/m 4,8 km/h (1 Bft) N-NO 22 0 min 0,0 UV-I 0 W/m 2,3 C 3,5 C 6,4 km/h (2 Bft)
13.02.2023 00:15 3,5 C 1,7 C 92 % 1038,9 hPa 0,0 l/m 6,4 km/h (2 Bft) N-NO 22 0 min 0,0 UV-I 0 W/m 2,3 C 3,5 C 8,0 km/h (2 Bft)
13.02.2023 00:16 3,4 C 1,7 C 92 % 1039,0 hPa 0,0 l/m 6,4 km/h (2 Bft) NO 45 0 min 0,0 UV-I 0 W/m 2,2 C 3,4 C 8,0 km/h (2 Bft)
13.02.2023 00:17 3,4 C 1,7 C 92 % 1038,9 hPa 0,0 l/m 6,4 km/h (2 Bft) NO 45 0 min 0,0 UV-I 0 W/m 2,2 C 3,4 C 8,0 km/h (2 Bft)
13.02.2023 00:18 3,6 C 2,2 C 92 % 1038,9 hPa 0,0 l/m 3,2 km/h (1 Bft) O-NO 67 0 min 0,0 UV-I 0 W/m 2,4 C 3,6 C 4,8 km/h (1 Bft)
13.02.2023 00:19 3,6 C 1,7 C 92 % 1039,0 hPa 0,0 l/m 3,2 km/h (1 Bft) O-NO 67 0 min 0,0 UV-I 0 W/m 2,4 C 3,6 C 4,8 km/h (1 Bft)
13.02.2023 00:20 3,5 C 1,7 C 92 % 1038,9 hPa 0,0 l/m 4,8 km/h (1 Bft) O-NO 67 0 min 0,0 UV-I 0 W/m 2,3 C 3,5 C 6,4 km/h (2 Bft)
13.02.2023 00:21 3,5 C 1,7 C 92 % 1039,0 hPa 0,0 l/m 4,8 km/h (1 Bft) O-NO 67 0 min 0,0 UV-I 0 W/m 2,3 C 3,5 C 6,4 km/h (2 Bft)
13.02.2023 00:22 3,4 C 1,7 C 92 % 1038,9 hPa 0,0 l/m 4,8 km/h (1 Bft) O-NO 67 0 min 0,0 UV-I 0 W/m 2,2 C 3,4 C 6,4 km/h (2 Bft)
13.02.2023 00:23 3,4 C 1,7 C 92 % 1038,9 hPa 0,0 l/m 6,4 km/h (2 Bft) N-NO 22 0 min 0,0 UV-I 0 W/m 2,2 C 3,4 C 8,0 km/h (2 Bft)
13.02.2023 00:24 3,4 C 1,7 C 92 % 1038,9 hPa 0,0 l/m 3,2 km/h (1 Bft) NO 45 0 min 0,0 UV-I 0 W/m 2,2 C 3,4 C 4,8 km/h (1 Bft)
13.02.2023 00:25 3,5 C 1,7 C 92 % 1038,9 hPa 0,0 l/m 3,2 km/h (1 Bft) NO 45 0 min 0,0 UV-I 0 W/m 2,3 C 3,5 C 4,8 km/h (1 Bft)
13.02.2023 00:26 3,4 C 1,7 C 92 % 1039,0 hPa 0,0 l/m 3,2 km/h (1 Bft) NO 45 0 min 0,0 UV-I 0 W/m 2,2 C 3,4 C 4,8 km/h (1 Bft)
13.02.2023 00:27 3,4 C 1,1 C 92 % 1038,9 hPa 0,0 l/m 4,8 km/h (1 Bft) O-NO 67 0 min 0,0 UV-I 0 W/m 2,2 C 3,4 C 6,4 km/h (2 Bft)
13.02.2023 00:28 3,4 C 1,1 C 92 % 1039,0 hPa 0,0 l/m 4,8 km/h (1 Bft) O-NO 67 0 min 0,0 UV-I 0 W/m 2,2 C 3,4 C 6,4 km/h (2 Bft)
13.02.2023 00:29 3,4 C 1,1 C 92 % 1039,1 hPa 0,0 l/m 3,2 km/h (1 Bft) O-NO 67 0 min 0,0 UV-I 0 W/m 2,2 C 3,4 C 3,2 km/h (1 Bft)
13.02.2023 00:30 3,4 C 1,7 C 92 % 1039,1 hPa 0,0 l/m 4,8 km/h (1 Bft) NO 45 0 min 0,0 UV-I 0 W/m 2,2 C 3,4 C 6,4 km/h (2 Bft)
13.02.2023 00:31 3,4 C 1,7 C 92 % 1039,0 hPa 0,0 l/m 4,8 km/h (1 Bft) NO 45 0 min 0,0 UV-I 0 W/m 2,2 C 3,4 C 6,4 km/h (2 Bft)
13.02.2023 00:32 3,4 C 1,7 C 92 % 1039,1 hPa 0,0 l/m 3,2 km/h (1 Bft) NO 45 0 min 0,0 UV-I 0 W/m 2,2 C 3,4 C 4,8 km/h (1 Bft)
13.02.2023 00:33 3,4 C 1,7 C 92 % 1039,0 hPa 0,0 l/m 4,8 km/h (1 Bft) NO 45 0 min 0,0 UV-I 0 W/m 2,2 C 3,4 C 6,4 km/h (2 Bft)
13.02.2023 00:34 3,4 C 1,7 C 92 % 1039,1 hPa 0,0 l/m 4,8 km/h (1 Bft) NO 45 0 min 0,0 UV-I 0 W/m 2,2 C 3,4 C 6,4 km/h (2 Bft)
13.02.2023 00:35 3,4 C 1,7 C 92 % 1039,1 hPa 0,0 l/m 4,8 km/h (1 Bft) NO 45 0 min 0,0 UV-I 0 W/m 2,2 C 3,4 C 6,4 km/h (2 Bft)
13.02.2023 00:36 3,4 C 1,7 C 92 % 1039,1 hPa 0,0 l/m 3,2 km/h (1 Bft) NO 45 0 min 0,0 UV-I 0 W/m 2,2 C 3,4 C 4,8 km/h (1 Bft)
13.02.2023 00:37 3,4 C 1,7 C 92 % 1039,0 hPa 0,0 l/m 4,8 km/h (1 Bft) NO 45 0 min 0,0 UV-I 0 W/m 2,2 C 3,4 C 4,8 km/h (1 Bft)
13.02.2023 00:38 3,4 C 1,7 C 92 % 1039,1 hPa 0,0 l/m 3,2 km/h (1 Bft) NO 45 0 min 0,0 UV-I 0 W/m 2,2 C 3,4 C 4,8 km/h (1 Bft)
13.02.2023 00:39 3,4 C 1,7 C 92 % 1039,0 hPa 0,0 l/m 3,2 km/h (1 Bft) NO 45 0 min 0,0 UV-I 0 W/m 2,2 C 3,4 C 3,2 km/h (1 Bft)
13.02.2023 00:40 3,4 C 1,7 C 92 % 1039,0 hPa 0,0 l/m 1,6 km/h (1 Bft) NO 45 0 min 0,0 UV-I 0 W/m 2,2 C 3,4 C 3,2 km/h (1 Bft)
13.02.2023 00:41 3,4 C 1,7 C 92 % 1039,0 hPa 0,0 l/m 3,2 km/h (1 Bft) NO 45 0 min 0,0 UV-I 0 W/m 2,2 C 3,4 C 3,2 km/h (1 Bft)
13.02.2023 00:42 3,3 C 1,7 C 92 % 1039,0 hPa 0,0 l/m 3,2 km/h (1 Bft) NO 45 0 min 0,0 UV-I 0 W/m 2,1 C 3,3 C 8,0 km/h (2 Bft)
13.02.2023 00:43 3,3 C 1,7 C 92 % 1039,0 hPa 0,0 l/m 4,8 km/h (1 Bft) NO 45 0 min 0,0 UV-I 0 W/m 2,1 C 3,3 C 8,0 km/h (2 Bft)
13.02.2023 00:44 3,4 C 1,7 C 93 % 1038,9 hPa 0,0 l/m 4,8 km/h (1 Bft) NO 45 0 min 0,0 UV-I 0 W/m 2,4 C 3,4 C 8,0 km/h (2 Bft)
13.02.2023 00:45 3,4 C 2,2 C 93 % 1039,0 hPa 0,0 l/m 4,8 km/h (1 Bft) O-NO 67 0 min 0,0 UV-I 0 W/m 2,4 C 3,4 C 8,0 km/h (2 Bft)
13.02.2023 00:46 3,4 C 2,2 C 92 % 1039,0 hPa 0,0 l/m 6,4 km/h (2 Bft) O-NO 67 0 min 0,0 UV-I 0 W/m 2,2 C 3,4 C 9,7 km/h (2 Bft)
13.02.2023 00:47 3,5 C 2,2 C 92 % 1039,0 hPa 0,0 l/m 6,4 km/h (2 Bft) O-NO 67 0 min 0,0 UV-I 0 W/m 2,3 C 3,5 C 8,0 km/h (2 Bft)
13.02.2023 00:48 3,5 C 2,2 C 92 % 1039,0 hPa 0,0 l/m 3,2 km/h (1 Bft) NO 45 0 min 0,0 UV-I 0 W/m 2,3 C 3,5 C 6,4 km/h (2 Bft)
13.02.2023 00:49 3,5 C 2,2 C 92 % 1039,0 hPa 0,0 l/m 1,6 km/h (1 Bft) NO 45 0 min 0,0 UV-I 0 W/m 2,3 C 3,5 C 3,2 km/h (1 Bft)
13.02.2023 00:50 3,5 C 2,2 C 92 % 1038,9 hPa 0,0 l/m 1,6 km/h (1 Bft) NO 45 0 min 0,0 UV-I 0 W/m 2,3 C 3,5 C 3,2 km/h (1 Bft)
13.02.2023 00:51 3,5 C 2,2 C 92 % 1039,0 hPa 0,0 l/m 1,6 km/h (1 Bft) NO 45 0 min 0,0 UV-I 0 W/m 2,3 C 3,5 C 3,2 km/h (1 Bft)
13.02.2023 00:52 3,4 C 2,2 C 92 % 1038,9 hPa 0,0 l/m 3,2 km/h (1 Bft) NO 45 0 min 0,0 UV-I 0 W/m 2,2 C 3,4 C 4,8 km/h (1 Bft)
13.02.2023 00:53 3,4 C 2,2 C 92 % 1039,0 hPa 0,0 l/m 3,2 km/h (1 Bft) NO 45 0 min 0,0 UV-I 0 W/m 2,2 C 3,4 C 4,8 km/h (1 Bft)
13.02.2023 00:54 3,4 C 2,2 C 92 % 1038,9 hPa 0,0 l/m 4,8 km/h (1 Bft) NO 45 0 min 0,0 UV-I 0 W/m 2,2 C 3,4 C 6,4 km/h (2 Bft)
13.02.2023 00:55 3,5 C 2,2 C 92 % 1039,0 hPa 0,0 l/m 3,2 km/h (1 Bft) NO 45 0 min 0,0 UV-I 0 W/m 2,3 C 3,5 C 6,4 km/h (2 Bft)
13.02.2023 00:56 3,5 C 2,2 C 92 % 1038,9 hPa 0,0 l/m 1,6 km/h (1 Bft) NO 45 0 min 0,0 UV-I 0 W/m 2,3 C 3,5 C 4,8 km/h (1 Bft)
13.02.2023 00:57 3,5 C 2,2 C 92 % 1038,9 hPa 0,0 l/m 3,2 km/h (1 Bft) NO 45 0 min 0,0 UV-I 0 W/m 2,3 C 3,5 C 6,4 km/h (2 Bft)
13.02.2023 00:58 3,5 C 2,2 C 92 % 1038,8 hPa 0,0 l/m 4,8 km/h (1 Bft) NO 45 0 min 0,0 UV-I 0 W/m 2,3 C 3,5 C 6,4 km/h (2 Bft)
13.02.2023 00:59 3,5 C 2,2 C 92 % 1038,9 hPa 0,0 l/m 4,8 km/h (1 Bft) NO 45 0 min 0,0 UV-I 0 W/m 2,3 C 3,5 C 6,4 km/h (2 Bft)
13.02.2023 01:00 3,6 C 2,2 C 93 % 1038,8 hPa 0,0 l/m 4,8 km/h (1 Bft) NO 45 0 min 0,0 UV-I 0 W/m 2,6 C 3,6 C 6,4 km/h (2 Bft)
13.02.2023 01:01 3,6 C 2,2 C 92 % 1038,7 hPa 0,0 l/m 3,2 km/h (1 Bft) NO 45 0 min 0,0 UV-I 0 W/m 2,4 C 3,6 C 4,8 km/h (1 Bft)
13.02.2023 01:02 3,6 C 2,2 C 92 % 1038,8 hPa 0,0 l/m 3,2 km/h (1 Bft) NO 45 0 min 0,0 UV-I 0 W/m 2,4 C 3,6 C 4,8 km/h (1 Bft)
13.02.2023 01:03 3,6 C 2,2 C 93 % 1038,7 hPa 0,0 l/m 3,2 km/h (1 Bft) NO 45 0 min 0,0 UV-I 0 W/m 2,6 C 3,6 C 4,8 km/h (1 Bft)
13.02.2023 01:04 3,6 C 2,2 C 93 % 1038,7 hPa 0,0 l/m 1,6 km/h (1 Bft) NO 45 0 min 0,0 UV-I 0 W/m 2,6 C 3,6 C 3,2 km/h (1 Bft)
13.02.2023 01:05 3,5 C 2,2 C 92 % 1038,6 hPa 0,0 l/m 1,6 km/h (1 Bft) NO 45 0 min 0,0 UV-I 0 W/m 2,3 C 3,5 C 4,8 km/h (1 Bft)
13.02.2023 01:06 3,5 C 2,2 C 92 % 1038,6 hPa 0,0 l/m 0,0 km/h (0 Bft) NO 45 0 min 0,0 UV-I 0 W/m 2,3 C 3,5 C 3,2 km/h (1 Bft)
13.02.2023 01:07 3,5 C 2,2 C 92 % 1038,6 hPa 0,0 l/m 0,0 km/h (0 Bft) N 0 0 min 0,0 UV-I 0 W/m 2,3 C 3,5 C 0,0 km/h (0 Bft)
13.02.2023 01:08 3,4 C 2,2 C 92 % 1038,7 hPa 0,0 l/m 3,2 km/h (1 Bft) NO 45 0 min 0,0 UV-I 0 W/m 2,2 C 3,4 C 4,8 km/h (1 Bft)
13.02.2023 01:09 3,4 C 2,2 C 92 % 1038,6 hPa 0,0 l/m 1,6 km/h (1 Bft) NO 45 0 min 0,0 UV-I 0 W/m 2,2 C 3,4 C 3,2 km/h (1 Bft)
13.02.2023 01:10 3,4 C 2,2 C 92 % 1038,6 hPa 0,0 l/m 0,0 km/h (0 Bft) NO 45 0 min 0,0 UV-I 0 W/m 2,2 C 3,4 C 3,2 km/h (1 Bft)
13.02.2023 01:11 3,4 C 2,2 C 92 % 1038,6 hPa 0,0 l/m 0,0 km/h (0 Bft) NO 45 0 min 0,0 UV-I 0 W/m 2,2 C 3,4 C 1,6 km/h (1 Bft)
13.02.2023 01:12 3,4 C 2,2 C 92 % 1038,7 hPa 0,0 l/m 0,0 km/h (0 Bft) NO 45 0 min 0,0 UV-I 0 W/m 2,2 C 3,4 C 3,2 km/h (1 Bft)
13.02.2023 01:13 3,4 C 2,2 C 92 % 1038,6 hPa 0,0 l/m 1,6 km/h (1 Bft) NO 45 0 min 0,0 UV-I 0 W/m 2,2 C 3,4 C 3,2 km/h (1 Bft)
13.02.2023 01:14 3,4 C 2,2 C 93 % 1038,6 hPa 0,0 l/m 3,2 km/h (1 Bft) NO 45 0 min 0,0 UV-I 0 W/m 2,4 C 3,4 C 4,8 km/h (1 Bft)
13.02.2023 01:15 3,4 C 2,2 C 93 % 1038,6 hPa 0,0 l/m 3,2 km/h (1 Bft) NO 45 0 min 0,0 UV-I 0 W/m 2,4 C 3,4 C 6,4 km/h (2 Bft)
13.02.2023 01:16 3,5 C 2,2 C 93 % 1038,6 hPa 0,0 l/m 3,2 km/h (1 Bft) O-NO 67 0 min 0,0 UV-I 0 W/m 2,5 C 3,5 C 4,8 km/h (1 Bft)
13.02.2023 01:17 3,5 C 2,2 C 93 % 1038,6 hPa 0,0 l/m 3,2 km/h (1 Bft) O-NO 67 0 min 0,0 UV-I 0 W/m 2,5 C 3,5 C 4,8 km/h (1 Bft)
13.02.2023 01:18 3,5 C 2,2 C 93 % 1038,7 hPa 0,0 l/m 1,6 km/h (1 Bft) O-NO 67 0 min 0,0 UV-I 0 W/m 2,5 C 3,5 C 3,2 km/h (1 Bft)
13.02.2023 01:19 3,5 C 2,2 C 93 % 1038,6 hPa 0,0 l/m 0,0 km/h (0 Bft) O-NO 67 0 min 0,0 UV-I 0 W/m 2,5 C 3,5 C 1,6 km/h (1 Bft)
13.02.2023 01:20 3,5 C 2,2 C 93 % 1038,6 hPa 0,0 l/m 0,0 km/h (0 Bft) O-NO 67 0 min 0,0 UV-I 0 W/m 2,5 C 3,5 C 3,2 km/h (1 Bft)
13.02.2023 01:21 3,4 C 2,2 C 92 % 1038,7 hPa 0,0 l/m 3,2 km/h (1 Bft) O-NO 67 0 min 0,0 UV-I 0 W/m 2,2 C 3,4 C 3,2 km/h (1 Bft)
13.02.2023 01:22 3,4 C 2,2 C 92 % 1038,6 hPa 0,0 l/m 3,2 km/h (1 Bft) O-NO 67 0 min 0,0 UV-I 0 W/m 2,2 C 3,4 C 4,8 km/h (1 Bft)
13.02.2023 01:23 3,4 C 2,2 C 93 % 1038,7 hPa 0,0 l/m 3,2 km/h (1 Bft) O-NO 67 0 min 0,0 UV-I 0 W/m 2,4 C 3,4 C 4,8 km/h (1 Bft)
13.02.2023 01:24 3,4 C 2,2 C 93 % 1038,5 hPa 0,0 l/m 3,2 km/h (1 Bft) O-NO 67 0 min 0,0 UV-I 0 W/m 2,4 C 3,4 C 4,8 km/h (1 Bft)
13.02.2023 01:25 3,4 C 2,2 C 93 % 1038,6 hPa 0,0 l/m 3,2 km/h (1 Bft) O-NO 67 0 min 0,0 UV-I 0 W/m 2,4 C 3,4 C 4,8 km/h (1 Bft)
13.02.2023 01:26 3,4 C 1,7 C 93 % 1038,7 hPa 0,0 l/m 1,6 km/h (1 Bft) O-NO 67 0 min 0,0 UV-I 0 W/m 2,4 C 3,4 C 3,2 km/h (1 Bft)
13.02.2023 01:27 3,4 C 1,7 C 93 % 1038,6 hPa 0,0 l/m 1,6 km/h (1 Bft) O-NO 67 0 min 0,0 UV-I 0 W/m 2,4 C 3,4 C 3,2 km/h (1 Bft)
13.02.2023 01:28 3,4 C 1,7 C 93 % 1038,7 hPa 0,0 l/m 6,4 km/h (2 Bft) NO 45 0 min 0,0 UV-I 0 W/m 2,4 C 3,4 C 8,0 km/h (2 Bft)
13.02.2023 01:29 3,4 C 1,7 C 93 % 1038,6 hPa 0,0 l/m 4,8 km/h (1 Bft) NO 45 0 min 0,0 UV-I 0 W/m 2,4 C 3,4 C 6,4 km/h (2 Bft)
13.02.2023 01:30 3,4 C 1,7 C 93 % 1038,7 hPa 0,0 l/m 3,2 km/h (1 Bft) NO 45 0 min 0,0 UV-I 0 W/m 2,4 C 3,4 C 6,4 km/h (2 Bft)
13.02.2023 01:31 3,4 C 1,7 C 93 % 1038,7 hPa 0,0 l/m 4,8 km/h (1 Bft) NO 45 0 min 0,0 UV-I 0 W/m 2,4 C 3,4 C 6,4 km/h (2 Bft)
13.02.2023 01:32 3,4 C 1,7 C 93 % 1038,7 hPa 0,0 l/m 4,8 km/h (1 Bft) NO 45 0 min 0,0 UV-I 0 W/m 2,4 C 3,4 C 6,4 km/h (2 Bft)
13.02.2023 01:33 3,4 C 2,2 C 93 % 1038,7 hPa 0,0 l/m 3,2 km/h (1 Bft) NO 45 0 min 0,0 UV-I 0 W/m 2,4 C 3,4 C 4,8 km/h (1 Bft)
13.02.2023 01:34 3,4 C 2,2 C 93 % 1038,8 hPa 0,0 l/m 6,4 km/h (2 Bft) NO 45 0 min 0,0 UV-I 0 W/m 2,4 C 3,4 C 8,0 km/h (2 Bft)
13.02.2023 01:35 3,4 C 2,2 C 93 % 1038,8 hPa 0,0 l/m 4,8 km/h (1 Bft) O-NO 67 0 min 0,0 UV-I 0 W/m 2,4 C 3,4 C 6,4 km/h (2 Bft)
13.02.2023 01:36 3,4 C 2,2 C 93 % 1038,7 hPa 0,0 l/m 3,2 km/h (1 Bft) O-NO 67 0 min 0,0 UV-I 0 W/m 2,4 C 3,4 C 4,8 km/h (1 Bft)
13.02.2023 01:37 3,4 C 2,2 C 93 % 1038,8 hPa 0,0 l/m 3,2 km/h (1 Bft) O-NO 67 0 min 0,0 UV-I 0 W/m 2,4 C 3,4 C 4,8 km/h (1 Bft)
13.02.2023 01:38 3,4 C 2,2 C 93 % 1038,8 hPa 0,0 l/m 1,6 km/h (1 Bft) O-NO 67 0 min 0,0 UV-I 0 W/m 2,4 C 3,4 C 4,8 km/h (1 Bft)
13.02.2023 01:39 3,4 C 2,2 C 93 % 1038,8 hPa 0,0 l/m 3,2 km/h (1 Bft) O-NO 67 0 min 0,0 UV-I 0 W/m 2,4 C 3,4 C 4,8 km/h (1 Bft)
13.02.2023 01:40 3,4 C 2,2 C 93 % 1038,7 hPa 0,0 l/m 3,2 km/h (1 Bft) O-NO 67 0 min 0,0 UV-I 0 W/m 2,4 C 3,4 C 3,2 km/h (1 Bft)
13.02.2023 01:41 3,4 C 2,2 C 93 % 1038,8 hPa 0,0 l/m 4,8 km/h (1 Bft) O-NO 67 0 min 0,0 UV-I 0 W/m 2,4 C 3,4 C 6,4 km/h (2 Bft)
13.02.2023 01:42 3,4 C 1,7 C 93 % 1038,8 hPa 0,0 l/m 4,8 km/h (1 Bft) O-NO 67 0 min 0,0 UV-I 0 W/m 2,4 C 3,4 C 6,4 km/h (2 Bft)
13.02.2023 01:43 3,3 C 1,7 C 93 % 1038,8 hPa 0,0 l/m 4,8 km/h (1 Bft) O-NO 67 0 min 0,0 UV-I 0 W/m 2,3 C 3,3 C 6,4 km/h (2 Bft)
13.02.2023 01:44 3,3 C 1,7 C 93 % 1038,8 hPa 0,0 l/m 4,8 km/h (1 Bft) O-NO 67 0 min 0,0 UV-I 0 W/m 2,3 C 3,3 C 8,0 km/h (2 Bft)
13.02.2023 01:45 3,4 C 1,7 C 93 % 1038,8 hPa 0,0 l/m 4,8 km/h (1 Bft) O-NO 67 0 min 0,0 UV-I 0 W/m 2,4 C 3,4 C 6,4 km/h (2 Bft)
13.02.2023 01:46 3,3 C 2,2 C 93 % 1038,7 hPa 0,0 l/m 4,8 km/h (1 Bft) N-NO 22 0 min 0,0 UV-I 0 W/m 2,3 C 3,3 C 6,4 km/h (2 Bft)
13.02.2023 01:47 3,3 C 2,2 C 93 % 1038,8 hPa 0,0 l/m 6,4 km/h (2 Bft) N-NO 22 0 min 0,0 UV-I 0 W/m 2,3 C 3,3 C 8,0 km/h (2 Bft)
13.02.2023 01:48 3,4 C 2,2 C 93 % 1038,7 hPa 0,0 l/m 4,8 km/h (1 Bft) NO 45 0 min 0,0 UV-I 0 W/m 2,4 C 3,4 C 6,4 km/h (2 Bft)
13.02.2023 01:49 3,4 C 2,2 C 93 % 1038,7 hPa 0,0 l/m 4,8 km/h (1 Bft) NO 45 0 min 0,0 UV-I 0 W/m 2,4 C 3,4 C 4,8 km/h (1 Bft)
13.02.2023 01:50 3,4 C 2,2 C 93 % 1038,8 hPa 0,0 l/m 6,4 km/h (2 Bft) NO 45 0 min 0,0 UV-I 0 W/m 2,4 C 3,4 C 6,4 km/h (2 Bft)
13.02.2023 01:51 3,4 C 2,2 C 93 % 1038,8 hPa 0,0 l/m 6,4 km/h (2 Bft) NO 45 0 min 0,0 UV-I 0 W/m 2,4 C 3,4 C 9,7 km/h (2 Bft)
13.02.2023 01:52 3,4 C 2,2 C 93 % 1038,7 hPa 0,0 l/m 4,8 km/h (1 Bft) N-NO 22 0 min 0,0 UV-I 0 W/m 2,4 C 3,4 C 8,0 km/h (2 Bft)
13.02.2023 01:53 3,4 C 2,2 C 93 % 1038,7 hPa 0,0 l/m 6,4 km/h (2 Bft) N-NO 22 0 min 0,0 UV-I 0 W/m 2,4 C 3,4 C 6,4 km/h (2 Bft)
13.02.2023 01:54 3,4 C 2,2 C 93 % 1038,8 hPa 0,0 l/m 4,8 km/h (1 Bft) O-NO 67 0 min 0,0 UV-I 0 W/m 2,4 C 3,4 C 6,4 km/h (2 Bft)
13.02.2023 01:55 3,4 C 2,2 C 93 % 1038,8 hPa 0,0 l/m 3,2 km/h (1 Bft) O-NO 67 0 min 0,0 UV-I 0 W/m 2,4 C 3,4 C 4,8 km/h (1 Bft)
13.02.2023 01:56 3,5 C 2,2 C 93 % 1038,8 hPa 0,0 l/m 4,8 km/h (1 Bft) O-NO 67 0 min 0,0 UV-I 0 W/m 2,5 C 3,5 C 6,4 km/h (2 Bft)
13.02.2023 01:57 3,5 C 2,2 C 93 % 1038,8 hPa 0,0 l/m 4,8 km/h (1 Bft) NO 45 0 min 0,0 UV-I 0 W/m 2,5 C 3,5 C 6,4 km/h (2 Bft)
13.02.2023 01:58 3,4 C 2,2 C 93 % 1038,7 hPa 0,0 l/m 4,8 km/h (1 Bft) NO 45 0 min 0,0 UV-I 0 W/m 2,4 C 3,4 C 6,4 km/h (2 Bft)
13.02.2023 01:59 3,5 C 2,2 C 93 % 1038,8 hPa 0,0 l/m 3,2 km/h (1 Bft) O-NO 67 0 min 0,0 UV-I 0 W/m 2,5 C 3,5 C 8,0 km/h (2 Bft)
13.02.2023 02:00 3,4 C 2,2 C 93 % 1038,8 hPa 0,0 l/m 3,2 km/h (1 Bft) O-NO 67 0 min 0,0 UV-I 0 W/m 2,4 C 3,4 C 4,8 km/h (1 Bft)
13.02.2023 02:01 3,4 C 2,2 C 93 % 1038,6 hPa 0,0 l/m 1,6 km/h (1 Bft) O-NO 67 0 min 0,0 UV-I 0 W/m 2,4 C 3,4 C 3,2 km/h (1 Bft)
13.02.2023 02:02 3,4 C 2,2 C 93 % 1038,8 hPa 0,0 l/m 1,6 km/h (1 Bft) O-NO 67 0 min 0,0 UV-I 0 W/m 2,4 C 3,4 C 1,6 km/h (1 Bft)
13.02.2023 02:03 3,3 C 2,2 C 93 % 1038,7 hPa 0,0 l/m 0,0 km/h (0 Bft) O-NO 67 0 min 0,0 UV-I 0 W/m 2,3 C 3,3 C 1,6 km/h (1 Bft)
13.02.2023 02:04 3,3 C 2,2 C 93 % 1038,7 hPa 0,0 l/m 0,0 km/h (0 Bft) N 0 0 min 0,0 UV-I 0 W/m 2,3 C 3,3 C 0,0 km/h (0 Bft)
13.02.2023 02:05 3,2 C 2,2 C 92 % 1038,7 hPa 0,0 l/m 1,6 km/h (1 Bft) O-NO 67 0 min 0,0 UV-I 0 W/m 2,0 C 3,2 C 4,8 km/h (1 Bft)
13.02.2023 02:06 3,2 C 2,2 C 93 % 1038,7 hPa 0,0 l/m 3,2 km/h (1 Bft) O-NO 67 0 min 0,0 UV-I 0 W/m 2,2 C 3,2 C 6,4 km/h (2 Bft)
13.02.2023 02:07 3,3 C 2,2 C 93 % 1038,7 hPa 0,0 l/m 3,2 km/h (1 Bft) O-NO 67 0 min 0,0 UV-I 0 W/m 2,3 C 3,3 C 6,4 km/h (2 Bft)
13.02.2023 02:08 3,3 C 2,2 C 93 % 1038,7 hPa 0,0 l/m 1,6 km/h (1 Bft) O-NO 67 0 min 0,0 UV-I 0 W/m 2,3 C 3,3 C 3,2 km/h (1 Bft)
13.02.2023 02:09 3,3 C 2,2 C 93 % 1038,7 hPa 0,0 l/m 0,0 km/h (0 Bft) O-NO 67 0 min 0,0 UV-I 0 W/m 2,3 C 3,3 C 1,6 km/h (1 Bft)
13.02.2023 02:10 3,3 C 2,2 C 93 % 1038,7 hPa 0,0 l/m 1,6 km/h (1 Bft) O-NO 67 0 min 0,0 UV-I 0 W/m 2,3 C 3,3 C 3,2 km/h (1 Bft)
13.02.2023 02:11 3,3 C 2,2 C 93 % 1038,7 hPa 0,0 l/m 1,6 km/h (1 Bft) O-NO 67 0 min 0,0 UV-I 0 W/m 2,3 C 3,3 C 3,2 km/h (1 Bft)
13.02.2023 02:12 3,3 C 2,2 C 93 % 1038,8 hPa 0,0 l/m 1,6 km/h (1 Bft) O-NO 67 0 min 0,0 UV-I 0 W/m 2,3 C 3,3 C 1,6 km/h (1 Bft)
13.02.2023 02:13 3,4 C 2,2 C 93 % 1038,7 hPa 0,0 l/m 1,6 km/h (1 Bft) O-NO 67 0 min 0,0 UV-I 0 W/m 2,4 C 3,4 C 3,2 km/h (1 Bft)
13.02.2023 02:14 3,3 C 2,2 C 93 % 1038,7 hPa 0,0 l/m 1,6 km/h (1 Bft) O-NO 67 0 min 0,0 UV-I 0 W/m 2,3 C 3,3 C 1,6 km/h (1 Bft)
13.02.2023 02:15 3,3 C 2,2 C 93 % 1038,7 hPa 0,0 l/m 6,4 km/h (2 Bft) O-NO 67 0 min 0,0 UV-I 0 W/m 2,3 C 3,3 C 6,4 km/h (2 Bft)
13.02.2023 02:16 3,4 C 2,2 C 93 % 1038,7 hPa 0,0 l/m 1,6 km/h (1 Bft) O-NO 67 0 min 0,0 UV-I 0 W/m 2,4 C 3,4 C 4,8 km/h (1 Bft)
13.02.2023 02:17 3,4 C 2,2 C 93 % 1038,8 hPa 0,0 l/m 3,2 km/h (1 Bft) O-NO 67 0 min 0,0 UV-I 0 W/m 2,4 C 3,4 C 4,8 km/h (1 Bft)
13.02.2023 02:18 3,4 C 2,2 C 93 % 1038,7 hPa 0,0 l/m 3,2 km/h (1 Bft) O-NO 67 0 min 0,0 UV-I 0 W/m 2,4 C 3,4 C 4,8 km/h (1 Bft)
13.02.2023 02:19 3,4 C 2,2 C 93 % 1038,7 hPa 0,0 l/m 1,6 km/h (1 Bft) O-NO 67 0 min 0,0 UV-I 0 W/m 2,4 C 3,4 C 3,2 km/h (1 Bft)
13.02.2023 02:20 3,4 C 2,2 C 93 % 1038,8 hPa 0,0 l/m 3,2 km/h (1 Bft) O-NO 67 0 min 0,0 UV-I 0 W/m 2,4 C 3,4 C 6,4 km/h (2 Bft)
13.02.2023 02:21 3,4 C 2,2 C 93 % 1038,7 hPa 0,0 l/m 3,2 km/h (1 Bft) O-NO 67 0 min 0,0 UV-I 0 W/m 2,4 C 3,4 C 4,8 km/h (1 Bft)
13.02.2023 02:22 3,4 C 2,2 C 93 % 1038,7 hPa 0,0 l/m 1,6 km/h (1 Bft) O-NO 67 0 min 0,0 UV-I 0 W/m 2,4 C 3,4 C 3,2 km/h (1 Bft)
13.02.2023 02:23 3,4 C 2,2 C 93 % 1038,7 hPa 0,0 l/m 1,6 km/h (1 Bft) O-NO 67 0 min 0,0 UV-I 0 W/m 2,4 C 3,4 C 3,2 km/h (1 Bft)
13.02.2023 02:24 3,4 C 2,2 C 93 % 1038,6 hPa 0,0 l/m 0,0 km/h (0 Bft) O-NO 67 0 min 0,0 UV-I 0 W/m 2,4 C 3,4 C 1,6 km/h (1 Bft)
13.02.2023 02:25 3,4 C 2,2 C 93 % 1038,6 hPa 0,0 l/m 1,6 km/h (1 Bft) O-NO 67 0 min 0,0 UV-I 0 W/m 2,4 C 3,4 C 3,2 km/h (1 Bft)
13.02.2023 02:26 3,4 C 2,2 C 93 % 1038,6 hPa 0,0 l/m 3,2 km/h (1 Bft) O-NO 67 0 min 0,0 UV-I 0 W/m 2,4 C 3,4 C 4,8 km/h (1 Bft)
13.02.2023 02:27 3,4 C 2,2 C 93 % 1038,7 hPa 0,0 l/m 1,6 km/h (1 Bft) O-NO 67 0 min 0,0 UV-I 0 W/m 2,4 C 3,4 C 3,2 km/h (1 Bft)
13.02.2023 02:28 3,4 C 2,2 C 93 % 1038,6 hPa 0,0 l/m 1,6 km/h (1 Bft) O-NO 67 0 min 0,0 UV-I 0 W/m 2,4 C 3,4 C 1,6 km/h (1 Bft)
13.02.2023 02:29 3,4 C 2,2 C 93 % 1038,6 hPa 0,0 l/m 3,2 km/h (1 Bft) O-NO 67 0 min 0,0 UV-I 0 W/m 2,4 C 3,4 C 6,4 km/h (2 Bft)
13.02.2023 02:30 3,4 C 2,2 C 93 % 1038,6 hPa 0,0 l/m 3,2 km/h (1 Bft) O-NO 67 0 min 0,0 UV-I 0 W/m 2,4 C 3,4 C 4,8 km/h (1 Bft)
13.02.2023 02:31 3,4 C 2,2 C 93 % 1038,6 hPa 0,0 l/m 1,6 km/h (1 Bft) O-NO 67 0 min 0,0 UV-I 0 W/m 2,4 C 3,4 C 3,2 km/h (1 Bft)
13.02.2023 02:32 3,4 C 2,2 C 93 % 1038,6 hPa 0,0 l/m 0,0 km/h (0 Bft) O-NO 67 0 min 0,0 UV-I 0 W/m 2,4 C 3,4 C 1,6 km/h (1 Bft)
13.02.2023 02:33 3,4 C 2,2 C 93 % 1038,6 hPa 0,0 l/m 1,6 km/h (1 Bft) O-NO 67 0 min 0,0 UV-I 0 W/m 2,4 C 3,4 C 3,2 km/h (1 Bft)
13.02.2023 02:34 3,4 C 2,2 C 93 % 1038,6 hPa 0,0 l/m 3,2 km/h (1 Bft) O-NO 67 0 min 0,0 UV-I 0 W/m 2,4 C 3,4 C 3,2 km/h (1 Bft)
13.02.2023 02:35 3,4 C 2,2 C 93 % 1038,6 hPa 0,0 l/m 3,2 km/h (1 Bft) O-NO 67 0 min 0,0 UV-I 0 W/m 2,4 C 3,4 C 4,8 km/h (1 Bft)
13.02.2023 02:36 3,4 C 2,2 C 93 % 1038,5 hPa 0,0 l/m 1,6 km/h (1 Bft) O-NO 67 0 min 0,0 UV-I 0 W/m 2,4 C 3,4 C 3,2 km/h (1 Bft)
13.02.2023 02:37 3,4 C 2,2 C 93 % 1038,5 hPa 0,0 l/m 1,6 km/h (1 Bft) O-NO 67 0 min 0,0 UV-I 0 W/m 2,4 C 3,4 C 3,2 km/h (1 Bft)
13.02.2023 02:38 3,4 C 2,2 C 93 % 1038,5 hPa 0,0 l/m 1,6 km/h (1 Bft) O-NO 67 0 min 0,0 UV-I 0 W/m 2,4 C 3,4 C 3,2 km/h (1 Bft)
13.02.2023 02:39 3,4 C 2,2 C 93 % 1038,6 hPa 0,0 l/m 3,2 km/h (1 Bft) O-NO 67 0 min 0,0 UV-I 0 W/m 2,4 C 3,4 C 4,8 km/h (1 Bft)
13.02.2023 02:40 3,4 C 2,2 C 93 % 1038,5 hPa 0,0 l/m 1,6 km/h (1 Bft) O-NO 67 0 min 0,0 UV-I 0 W/m 2,4 C 3,4 C 4,8 km/h (1 Bft)
13.02.2023 02:41 3,4 C 2,2 C 93 % 1038,5 hPa 0,0 l/m 1,6 km/h (1 Bft) O-NO 67 0 min 0,0 UV-I 0 W/m 2,4 C 3,4 C 3,2 km/h (1 Bft)
13.02.2023 02:42 3,4 C 2,2 C 93 % 1038,5 hPa 0,0 l/m 1,6 km/h (1 Bft) O-NO 67 0 min 0,0 UV-I 0 W/m 2,4 C 3,4 C 3,2 km/h (1 Bft)
13.02.2023 02:43 3,4 C 2,2 C 93 % 1038,5 hPa 0,0 l/m 1,6 km/h (1 Bft) O-NO 67 0 min 0,0 UV-I 0 W/m 2,4 C 3,4 C 4,8 km/h (1 Bft)
13.02.2023 02:44 3,4 C 2,2 C 93 % 1038,5 hPa 0,0 l/m 1,6 km/h (1 Bft) O-NO 67 0 min 0,0 UV-I 0 W/m 2,4 C 3,4 C 3,2 km/h (1 Bft)
13.02.2023 02:45 3,4 C 2,2 C 93 % 1038,5 hPa 0,0 l/m 1,6 km/h (1 Bft) O-NO 67 0 min 0,0 UV-I 0 W/m 2,4 C 3,4 C 4,8 km/h (1 Bft)
13.02.2023 02:46 3,5 C 2,2 C 93 % 1038,5 hPa 0,0 l/m 4,8 km/h (1 Bft) O-NO 67 0 min 0,0 UV-I 0 W/m 2,5 C 3,5 C 6,4 km/h (2 Bft)
13.02.2023 02:47 3,4 C 2,2 C 93 % 1038,5 hPa 0,0 l/m 3,2 km/h (1 Bft) O-NO 67 0 min 0,0 UV-I 0 W/m 2,4 C 3,4 C 6,4 km/h (2 Bft)
13.02.2023 02:48 3,5 C 2,2 C 93 % 1038,5 hPa 0,0 l/m 3,2 km/h (1 Bft) O-NO 67 0 min 0,0 UV-I 0 W/m 2,5 C 3,5 C 4,8 km/h (1 Bft)
13.02.2023 02:49 3,5 C 2,2 C 93 % 1038,5 hPa 0,0 l/m 1,6 km/h (1 Bft) O-NO 67 0 min 0,0 UV-I 0 W/m 2,5 C 3,5 C 3,2 km/h (1 Bft)
13.02.2023 02:50 3,4 C 2,2 C 93 % 1038,6 hPa 0,0 l/m 0,0 km/h (0 Bft) O-NO 67 0 min 0,0 UV-I 0 W/m 2,4 C 3,4 C 1,6 km/h (1 Bft)
13.02.2023 02:51 3,5 C 2,2 C 93 % 1038,5 hPa 0,0 l/m 0,0 km/h (0 Bft) N 0 0 min 0,0 UV-I 0 W/m 2,5 C 3,5 C 0,0 km/h (0 Bft)
13.02.2023 02:52 3,5 C 2,2 C 93 % 1038,6 hPa 0,0 l/m 0,0 km/h (0 Bft) N 0 0 min 0,0 UV-I 0 W/m 2,5 C 3,5 C 0,0 km/h (0 Bft)
13.02.2023 02:53 3,5 C 2,2 C 93 % 1038,5 hPa 0,0 l/m 0,0 km/h (0 Bft) O-NO 67 0 min 0,0 UV-I 0 W/m 2,5 C 3,5 C 1,6 km/h (1 Bft)
13.02.2023 02:54 3,5 C 2,2 C 93 % 1038,6 hPa 0,0 l/m 0,0 km/h (0 Bft) O-NO 67 0 min 0,0 UV-I 0 W/m 2,5 C 3,5 C 1,6 km/h (1 Bft)
13.02.2023 02:55 3,4 C 2,2 C 93 % 1038,6 hPa 0,0 l/m 1,6 km/h (1 Bft) O-NO 67 0 min 0,0 UV-I 0 W/m 2,4 C 3,4 C 4,8 km/h (1 Bft)
13.02.2023 02:56 3,4 C 2,2 C 93 % 1038,5 hPa 0,0 l/m 0,0 km/h (0 Bft) O-NO 67 0 min 0,0 UV-I 0 W/m 2,4 C 3,4 C 1,6 km/h (1 Bft)
13.02.2023 02:57 3,5 C 2,2 C 93 % 1038,5 hPa 0,0 l/m 0,0 km/h (0 Bft) N 0 0 min 0,0 UV-I 0 W/m 2,5 C 3,5 C 0,0 km/h (0 Bft)
13.02.2023 02:58 3,5 C 2,2 C 93 % 1038,5 hPa 0,0 l/m 1,6 km/h (1 Bft) O-NO 67 0 min 0,0 UV-I 0 W/m 2,5 C 3,5 C 3,2 km/h (1 Bft)
13.02.2023 02:59 3,5 C 2,2 C 93 % 1038,5 hPa 0,0 l/m 3,2 km/h (1 Bft) O-NO 67 0 min 0,0 UV-I 0 W/m 2,5 C 3,5 C 4,8 km/h (1 Bft)
13.02.2023 03:00 3,5 C 2,2 C 93 % 1038,5 hPa 0,0 l/m 1,6 km/h (1 Bft) O-NO 67 0 min 0,0 UV-I 0 W/m 2,5 C 3,5 C 3,2 km/h (1 Bft)
13.02.2023 03:01 3,5 C 2,2 C 93 % 1038,6 hPa 0,0 l/m 0,0 km/h (0 Bft) O-NO 67 0 min 0,0 UV-I 0 W/m 2,5 C 3,5 C 1,6 km/h (1 Bft)
13.02.2023 03:02 3,5 C 2,2 C 93 % 1038,5 hPa 0,0 l/m 0,0 km/h (0 Bft) O-NO 67 0 min 0,0 UV-I 0 W/m 2,5 C 3,5 C 3,2 km/h (1 Bft)
13.02.2023 03:03 3,5 C 2,2 C 93 % 1038,6 hPa 0,0 l/m 0,0 km/h (0 Bft) O-NO 67 0 min 0,0 UV-I 0 W/m 2,5 C 3,5 C 1,6 km/h (1 Bft)
13.02.2023 03:04 3,4 C 2,2 C 93 % 1038,5 hPa 0,0 l/m 0,0 km/h (0 Bft) N 0 0 min 0,0 UV-I 0 W/m 2,4 C 3,4 C 0,0 km/h (0 Bft)
13.02.2023 03:05 3,5 C 2,2 C 93 % 1038,6 hPa 0,0 l/m 0,0 km/h (0 Bft) O-NO 67 0 min 0,0 UV-I 0 W/m 2,5 C 3,5 C 3,2 km/h (1 Bft)
13.02.2023 03:06 3,4 C 2,2 C 93 % 1038,6 hPa 0,0 l/m 3,2 km/h (1 Bft) NO 45 0 min 0,0 UV-I 0 W/m 2,4 C 3,4 C 4,8 km/h (1 Bft)
13.02.2023 03:07 3,4 C 2,2 C 93 % 1038,6 hPa 0,0 l/m 1,6 km/h (1 Bft) NO 45 0 min 0,0 UV-I 0 W/m 2,4 C 3,4 C 3,2 km/h (1 Bft)
13.02.2023 03:08 3,4 C 2,2 C 93 % 1038,6 hPa 0,0 l/m 1,6 km/h (1 Bft) NO 45 0 min 0,0 UV-I 0 W/m 2,4 C 3,4 C 3,2 km/h (1 Bft)
13.02.2023 03:09 3,4 C 2,2 C 93 % 1038,6 hPa 0,0 l/m 0,0 km/h (0 Bft) NO 45 0 min 0,0 UV-I 0 W/m 2,4 C 3,4 C 1,6 km/h (1 Bft)
13.02.2023 03:10 3,5 C 2,2 C 93 % 1038,6 hPa 0,0 l/m 0,0 km/h (0 Bft) N 0 0 min 0,0 UV-I 0 W/m 2,5 C 3,5 C 0,0 km/h (0 Bft)
13.02.2023 03:11 3,5 C 2,2 C 93 % 1038,5 hPa 0,0 l/m 0,0 km/h (0 Bft) N 0 0 min 0,0 UV-I 0 W/m 2,5 C 3,5 C 0,0 km/h (0 Bft)
13.02.2023 03:12 3,4 C 2,2 C 93 % 1038,6 hPa 0,0 l/m 0,0 km/h (0 Bft) N 0 0 min 0,0 UV-I 0 W/m 2,4 C 3,4 C 0,0 km/h (0 Bft)
13.02.2023 03:13 3,4 C 2,2 C 93 % 1038,6 hPa 0,0 l/m 0,0 km/h (0 Bft) NO 45 0 min 0,0 UV-I 0 W/m 2,4 C 3,4 C 1,6 km/h (1 Bft)
13.02.2023 03:14 3,3 C 2,2 C 93 % 1038,6 hPa 0,0 l/m 0,0 km/h (0 Bft) NO 45 0 min 0,0 UV-I 0 W/m 2,3 C 3,3 C 1,6 km/h (1 Bft)
13.02.2023 03:15 3,3 C 2,2 C 93 % 1038,6 hPa 0,0 l/m 0,0 km/h (0 Bft) NO 45 0 min 0,0 UV-I 0 W/m 2,3 C 3,3 C 1,6 km/h (1 Bft)
13.02.2023 03:16 3,3 C 2,2 C 93 % 1038,6 hPa 0,0 l/m 0,0 km/h (0 Bft) NO 45 0 min 0,0 UV-I 0 W/m 2,3 C 3,3 C 1,6 km/h (1 Bft)
13.02.2023 03:17 3,4 C 2,2 C 93 % 1038,6 hPa 0,0 l/m 3,2 km/h (1 Bft) NO 45 0 min 0,0 UV-I 0 W/m 2,4 C 3,4 C 4,8 km/h (1 Bft)
13.02.2023 03:18 3,4 C 2,8 C 93 % 1038,6 hPa 0,0 l/m 0,0 km/h (0 Bft) NO 45 0 min 0,0 UV-I 0 W/m 2,4 C 3,4 C 1,6 km/h (1 Bft)
13.02.2023 03:19 3,4 C 2,2 C 93 % 1038,6 hPa 0,0 l/m 0,0 km/h (0 Bft) NO 45 0 min 0,0 UV-I 0 W/m 2,4 C 3,4 C 1,6 km/h (1 Bft)
13.02.2023 03:20 3,3 C 2,2 C 93 % 1038,6 hPa 0,0 l/m 0,0 km/h (0 Bft) N 0 0 min 0,0 UV-I 0 W/m 2,3 C 3,3 C 0,0 km/h (0 Bft)
13.02.2023 03:21 3,2 C 2,2 C 93 % 1038,6 hPa 0,0 l/m 0,0 km/h (0 Bft) NO 45 0 min 0,0 UV-I 0 W/m 2,2 C 3,2 C 1,6 km/h (1 Bft)
13.02.2023 03:22 3,2 C 2,2 C 93 % 1038,6 hPa 0,0 l/m 1,6 km/h (1 Bft) NO 45 0 min 0,0 UV-I 0 W/m 2,2 C 3,2 C 1,6 km/h (1 Bft)
13.02.2023 03:23 3,2 C 2,2 C 93 % 1038,6 hPa 0,0 l/m 1,6 km/h (1 Bft) NO 45 0 min 0,0 UV-I 0 W/m 2,2 C 3,2 C 1,6 km/h (1 Bft)
13.02.2023 03:24 3,2 C 2,2 C 93 % 1038,6 hPa 0,0 l/m 0,0 km/h (0 Bft) NO 45 0 min 0,0 UV-I 0 W/m 2,2 C 3,2 C 1,6 km/h (1 Bft)
13.02.2023 03:25 3,3 C 2,2 C 93 % 1038,5 hPa 0,0 l/m 0,0 km/h (0 Bft) N 0 0 min 0,0 UV-I 0 W/m 2,3 C 3,3 C 0,0 km/h (0 Bft)
13.02.2023 03:26 3,2 C 2,2 C 93 % 1038,6 hPa 0,0 l/m 0,0 km/h (0 Bft) N 0 0 min 0,0 UV-I 0 W/m 2,2 C 3,2 C 0,0 km/h (0 Bft)
13.02.2023 03:27 3,2 C 2,2 C 93 % 1038,5 hPa 0,0 l/m 0,0 km/h (0 Bft) N 0 0 min 0,0 UV-I 0 W/m 2,2 C 3,2 C 0,0 km/h (0 Bft)
13.02.2023 03:28 3,2 C 2,2 C 93 % 1038,6 hPa 0,0 l/m 0,0 km/h (0 Bft) N 0 0 min 0,0 UV-I 0 W/m 2,2 C 3,2 C 0,0 km/h (0 Bft)
13.02.2023 03:29 3,2 C 2,2 C 93 % 1038,5 hPa 0,0 l/m 1,6 km/h (1 Bft) NO 45 0 min 0,0 UV-I 0 W/m 2,2 C 3,2 C 3,2 km/h (1 Bft)
13.02.2023 03:30 3,2 C 2,2 C 93 % 1038,6 hPa 0,0 l/m 3,2 km/h (1 Bft) NO 45 0 min 0,0 UV-I 0 W/m 2,2 C 3,2 C 4,8 km/h (1 Bft)
13.02.2023 03:31 3,3 C 2,2 C 93 % 1038,6 hPa 0,0 l/m 3,2 km/h (1 Bft) NO 45 0 min 0,0 UV-I 0 W/m 2,3 C 3,3 C 4,8 km/h (1 Bft)
13.02.2023 03:32 3,3 C 2,2 C 93 % 1038,6 hPa 0,0 l/m 3,2 km/h (1 Bft) NO 45 0 min 0,0 UV-I 0 W/m 2,3 C 3,3 C 4,8 km/h (1 Bft)
13.02.2023 03:33 3,4 C 2,2 C 93 % 1038,6 hPa 0,0 l/m 3,2 km/h (1 Bft) NO 45 0 min 0,0 UV-I 0 W/m 2,4 C 3,4 C 3,2 km/h (1 Bft)
13.02.2023 03:34 3,4 C 2,2 C 93 % 1038,5 hPa 0,0 l/m 3,2 km/h (1 Bft) NO 45 0 min 0,0 UV-I 0 W/m 2,4 C 3,4 C 4,8 km/h (1 Bft)
13.02.2023 03:35 3,4 C 2,2 C 93 % 1038,5 hPa 0,0 l/m 1,6 km/h (1 Bft) NO 45 0 min 0,0 UV-I 0 W/m 2,4 C 3,4 C 4,8 km/h (1 Bft)
13.02.2023 03:36 3,2 C 2,2 C 93 % 1038,5 hPa 0,0 l/m 1,6 km/h (1 Bft) NO 45 0 min 0,0 UV-I 0 W/m 2,2 C 3,2 C 3,2 km/h (1 Bft)
13.02.2023 03:37 3,1 C 2,2 C 93 % 1038,5 hPa 0,0 l/m 1,6 km/h (1 Bft) NO 45 0 min 0,0 UV-I 0 W/m 2,1 C 3,1 C 3,2 km/h (1 Bft)
13.02.2023 03:38 3,2 C 2,2 C 93 % 1038,5 hPa 0,0 l/m 1,6 km/h (1 Bft) NO 45 0 min 0,0 UV-I 0 W/m 2,2 C 3,2 C 1,6 km/h (1 Bft)
13.02.2023 03:39 3,3 C 2,2 C 93 % 1038,6 hPa 0,0 l/m 1,6 km/h (1 Bft) NO 45 0 min 0,0 UV-I 0 W/m 2,3 C 3,3 C 1,6 km/h (1 Bft)
13.02.2023 03:40 3,3 C 2,2 C 93 % 1038,5 hPa 0,0 l/m 1,6 km/h (1 Bft) NO 45 0 min 0,0 UV-I 0 W/m 2,3 C 3,3 C 3,2 km/h (1 Bft)
13.02.2023 03:41 3,3 C 2,2 C 93 % 1038,6 hPa 0,0 l/m 1,6 km/h (1 Bft) NO 45 0 min 0,0 UV-I 0 W/m 2,3 C 3,3 C 3,2 km/h (1 Bft)
13.02.2023 03:42 3,4 C 2,2 C 93 % 1038,5 hPa 0,0 l/m 1,6 km/h (1 Bft) NO 45 0 min 0,0 UV-I 0 W/m 2,4 C 3,4 C 4,8 km/h (1 Bft)
13.02.2023 03:43 3,4 C 2,2 C 93 % 1038,5 hPa 0,0 l/m 1,6 km/h (1 Bft) NO 45 0 min 0,0 UV-I 0 W/m 2,4 C 3,4 C 4,8 km/h (1 Bft)
13.02.2023 03:44 3,4 C 2,2 C 93 % 1038,5 hPa 0,0 l/m 3,2 km/h (1 Bft) NO 45 0 min 0,0 UV-I 0 W/m 2,4 C 3,4 C 4,8 km/h (1 Bft)
13.02.2023 03:45 3,4 C 2,2 C 93 % 1038,4 hPa 0,0 l/m 3,2 km/h (1 Bft) NO 45 0 min 0,0 UV-I 0 W/m 2,4 C 3,4 C 4,8 km/h (1 Bft)
13.02.2023 03:46 3,4 C 2,2 C 93 % 1038,4 hPa 0,0 l/m 4,8 km/h (1 Bft) NO 45 0 min 0,0 UV-I 0 W/m 2,4 C 3,4 C 8,0 km/h (2 Bft)
13.02.2023 03:47 3,4 C 2,8 C 93 % 1038,4 hPa 0,0 l/m 4,8 km/h (1 Bft) NO 45 0 min 0,0 UV-I 0 W/m 2,4 C 3,4 C 4,8 km/h (1 Bft)
13.02.2023 03:48 3,4 C 2,8 C 93 % 1038,5 hPa 0,0 l/m 3,2 km/h (1 Bft) NO 45 0 min 0,0 UV-I 0 W/m 2,4 C 3,4 C 3,2 km/h (1 Bft)
13.02.2023 03:49 3,4 C 2,8 C 93 % 1038,5 hPa 0,0 l/m 4,8 km/h (1 Bft) NO 45 0 min 0,0 UV-I 0 W/m 2,4 C 3,4 C 6,4 km/h (2 Bft)
13.02.2023 03:50 3,4 C 2,8 C 93 % 1038,4 hPa 0,0 l/m 4,8 km/h (1 Bft) NO 45 0 min 0,0 UV-I 0 W/m 2,4 C 3,4 C 6,4 km/h (2 Bft)
13.02.2023 03:51 3,4 C 2,8 C 93 % 1038,4 hPa 0,0 l/m 1,6 km/h (1 Bft) NO 45 0 min 0,0 UV-I 0 W/m 2,4 C 3,4 C 4,8 km/h (1 Bft)
13.02.2023 03:52 3,5 C 2,8 C 93 % 1038,4 hPa 0,0 l/m 3,2 km/h (1 Bft) NO 45 0 min 0,0 UV-I 0 W/m 2,5 C 3,5 C 4,8 km/h (1 Bft)
13.02.2023 03:53 3,5 C 2,2 C 93 % 1038,4 hPa 0,0 l/m 4,8 km/h (1 Bft) NO 45 0 min 0,0 UV-I 0 W/m 2,5 C 3,5 C 6,4 km/h (2 Bft)
13.02.2023 03:54 3,5 C 2,2 C 93 % 1038,3 hPa 0,0 l/m 3,2 km/h (1 Bft) NO 45 0 min 0,0 UV-I 0 W/m 2,5 C 3,5 C 4,8 km/h (1 Bft)
13.02.2023 03:55 3,5 C 2,2 C 93 % 1038,4 hPa 0,0 l/m 1,6 km/h (1 Bft) NO 45 0 min 0,0 UV-I 0 W/m 2,5 C 3,5 C 4,8 km/h (1 Bft)
13.02.2023 03:56 3,5 C 2,2 C 93 % 1038,4 hPa 0,0 l/m 1,6 km/h (1 Bft) NO 45 0 min 0,0 UV-I 0 W/m 2,5 C 3,5 C 3,2 km/h (1 Bft)
13.02.2023 03:57 3,5 C 2,2 C 93 % 1038,4 hPa 0,0 l/m 3,2 km/h (1 Bft) NO 45 0 min 0,0 UV-I 0 W/m 2,5 C 3,5 C 4,8 km/h (1 Bft)
13.02.2023 03:58 3,5 C 2,2 C 93 % 1038,4 hPa 0,0 l/m 3,2 km/h (1 Bft) NO 45 0 min 0,0 UV-I 0 W/m 2,5 C 3,5 C 4,8 km/h (1 Bft)
13.02.2023 03:59 3,4 C 2,2 C 93 % 1038,4 hPa 0,0 l/m 3,2 km/h (1 Bft) NO 45 0 min 0,0 UV-I 0 W/m 2,4 C 3,4 C 4,8 km/h (1 Bft)
13.02.2023 04:00 3,4 C 2,2 C 93 % 1038,4 hPa 0,0 l/m 3,2 km/h (1 Bft) NO 45 0 min 0,0 UV-I 0 W/m 2,4 C 3,4 C 4,8 km/h (1 Bft)
13.02.2023 04:01 3,4 C 2,2 C 93 % 1038,5 hPa 0,0 l/m 4,8 km/h (1 Bft) NO 45 0 min 0,0 UV-I 0 W/m 2,4 C 3,4 C 6,4 km/h (2 Bft)
13.02.2023 04:02 3,4 C 2,2 C 93 % 1038,5 hPa 0,0 l/m 3,2 km/h (1 Bft) NO 45 0 min 0,0 UV-I 0 W/m 2,4 C 3,4 C 4,8 km/h (1 Bft)
13.02.2023 04:03 3,4 C 2,2 C 93 % 1038,3 hPa 0,0 l/m 1,6 km/h (1 Bft) NO 45 0 min 0,0 UV-I 0 W/m 2,4 C 3,4 C 3,2 km/h (1 Bft)
13.02.2023 04:04 3,4 C 2,2 C 93 % 1038,4 hPa 0,0 l/m 1,6 km/h (1 Bft) NO 45 0 min 0,0 UV-I 0 W/m 2,4 C 3,4 C 3,2 km/h (1 Bft)
13.02.2023 04:05 3,4 C 2,2 C 93 % 1038,5 hPa 0,0 l/m 3,2 km/h (1 Bft) NO 45 0 min 0,0 UV-I 0 W/m 2,4 C 3,4 C 4,8 km/h (1 Bft)
13.02.2023 04:06 3,4 C 2,2 C 93 % 1038,4 hPa 0,0 l/m 4,8 km/h (1 Bft) NO 45 0 min 0,0 UV-I 0 W/m 2,4 C 3,4 C 6,4 km/h (2 Bft)
13.02.2023 04:07 3,4 C 2,2 C 93 % 1038,4 hPa 0,0 l/m 4,8 km/h (1 Bft) NO 45 0 min 0,0 UV-I 0 W/m 2,4 C 3,4 C 6,4 km/h (2 Bft)
13.02.2023 04:08 3,4 C 2,2 C 93 % 1038,4 hPa 0,0 l/m 4,8 km/h (1 Bft) NO 45 0 min 0,0 UV-I 0 W/m 2,4 C 3,4 C 6,4 km/h (2 Bft)
13.02.2023 04:09 3,3 C 2,2 C 93 % 1038,4 hPa 0,0 l/m 3,2 km/h (1 Bft) NO 45 0 min 0,0 UV-I 0 W/m 2,3 C 3,3 C 4,8 km/h (1 Bft)
13.02.2023 04:10 3,4 C 1,7 C 93 % 1038,4 hPa 0,0 l/m 3,2 km/h (1 Bft) NO 45 0 min 0,0 UV-I 0 W/m 2,4 C 3,4 C 4,8 km/h (1 Bft)
13.02.2023 04:11 3,3 C 1,7 C 93 % 1038,4 hPa 0,0 l/m 4,8 km/h (1 Bft) NO 45 0 min 0,0 UV-I 0 W/m 2,3 C 3,3 C 6,4 km/h (2 Bft)
13.02.2023 04:12 3,3 C 1,7 C 93 % 1038,4 hPa 0,0 l/m 4,8 km/h (1 Bft) NO 45 0 min 0,0 UV-I 0 W/m 2,3 C 3,3 C 6,4 km/h (2 Bft)
13.02.2023 04:13 3,3 C 1,7 C 93 % 1038,5 hPa 0,0 l/m 4,8 km/h (1 Bft) NO 45 0 min 0,0 UV-I 0 W/m 2,3 C 3,3 C 6,4 km/h (2 Bft)
13.02.2023 04:14 3,3 C 1,7 C 93 % 1038,5 hPa 0,0 l/m 3,2 km/h (1 Bft) NO 45 0 min 0,0 UV-I 0 W/m 2,3 C 3,3 C 4,8 km/h (1 Bft)
13.02.2023 04:15 3,2 C 1,7 C 93 % 1038,5 hPa 0,0 l/m 3,2 km/h (1 Bft) NO 45 0 min 0,0 UV-I 0 W/m 2,2 C 3,2 C 6,4 km/h (2 Bft)
13.02.2023 04:16 3,2 C 1,7 C 93 % 1038,5 hPa 0,0 l/m 4,8 km/h (1 Bft) NO 45 0 min 0,0 UV-I 0 W/m 2,2 C 3,2 C 6,4 km/h (2 Bft)
13.02.2023 04:17 3,2 C 1,7 C 93 % 1038,5 hPa 0,0 l/m 4,8 km/h (1 Bft) NO 45 0 min 0,0 UV-I 0 W/m 2,2 C 3,2 C 6,4 km/h (2 Bft)
13.02.2023 04:18 3,2 C 1,1 C 93 % 1038,5 hPa 0,0 l/m 4,8 km/h (1 Bft) NO 45 0 min 0,0 UV-I 0 W/m 2,2 C 3,2 C 6,4 km/h (2 Bft)
13.02.2023 04:19 3,2 C 1,1 C 93 % 1038,4 hPa 0,0 l/m 4,8 km/h (1 Bft) NO 45 0 min 0,0 UV-I 0 W/m 2,2 C 3,2 C 6,4 km/h (2 Bft)
13.02.2023 04:20 3,1 C 1,1 C 93 % 1038,4 hPa 0,0 l/m 4,8 km/h (1 Bft) NO 45 0 min 0,0 UV-I 0 W/m 2,1 C 3,1 C 6,4 km/h (2 Bft)
13.02.2023 04:21 3,1 C 1,1 C 93 % 1038,5 hPa 0,0 l/m 4,8 km/h (1 Bft) NO 45 0 min 0,0 UV-I 0 W/m 2,1 C 3,1 C 6,4 km/h (2 Bft)
13.02.2023 04:22 3,1 C 1,1 C 93 % 1038,4 hPa 0,0 l/m 1,6 km/h (1 Bft) NO 45 0 min 0,0 UV-I 0 W/m 2,1 C 3,1 C 3,2 km/h (1 Bft)
13.02.2023 04:23 3,1 C 1,1 C 93 % 1038,5 hPa 0,0 l/m 1,6 km/h (1 Bft) NO 45 0 min 0,0 UV-I 0 W/m 2,1 C 3,1 C 3,2 km/h (1 Bft)
13.02.2023 04:24 2,9 C 1,1 C 93 % 1038,4 hPa 0,0 l/m 0,0 km/h (0 Bft) N 0 0 min 0,0 UV-I 0 W/m 1,9 C 2,9 C 0,0 km/h (0 Bft)
13.02.2023 04:25 2,8 C 1,1 C 93 % 1038,4 hPa 0,0 l/m 1,6 km/h (1 Bft) NO 45 0 min 0,0 UV-I 0 W/m 1,8 C 2,8 C 3,2 km/h (1 Bft)
13.02.2023 04:26 2,8 C 1,1 C 93 % 1038,4 hPa 0,0 l/m 0,0 km/h (0 Bft) NO 45 0 min 0,0 UV-I 0 W/m 1,8 C 2,8 C 1,6 km/h (1 Bft)
13.02.2023 04:27 2,7 C 1,1 C 93 % 1038,4 hPa 0,0 l/m 0,0 km/h (0 Bft) NO 45 0 min 0,0 UV-I 0 W/m 1,7 C 2,7 C 1,6 km/h (1 Bft)
13.02.2023 04:28 2,7 C 0,6 C 93 % 1038,4 hPa 0,0 l/m 3,2 km/h (1 Bft) NO 45 0 min 0,0 UV-I 0 W/m 1,7 C 2,7 C 6,4 km/h (2 Bft)
13.02.2023 04:29 2,8 C 1,1 C 93 % 1038,3 hPa 0,0 l/m 4,8 km/h (1 Bft) NO 45 0 min 0,0 UV-I 0 W/m 1,8 C 2,8 C 6,4 km/h (2 Bft)
13.02.2023 04:30 2,8 C 1,1 C 93 % 1038,4 hPa 0,0 l/m 1,6 km/h (1 Bft) NO 45 0 min 0,0 UV-I 0 W/m 1,8 C 2,8 C 4,8 km/h (1 Bft)
13.02.2023 04:31 2,8 C 1,1 C 93 % 1038,3 hPa 0,0 l/m 1,6 km/h (1 Bft) NO 45 0 min 0,0 UV-I 0 W/m 1,8 C 2,8 C 1,6 km/h (1 Bft)
13.02.2023 04:32 2,8 C 1,1 C 93 % 1038,5 hPa 0,0 l/m 1,6 km/h (1 Bft) NO 45 0 min 0,0 UV-I 0 W/m 1,8 C 2,8 C 3,2 km/h (1 Bft)
13.02.2023 04:33 2,8 C 0,6 C 93 % 1038,4 hPa 0,0 l/m 0,0 km/h (0 Bft) N 0 0 min 0,0 UV-I 0 W/m 1,8 C 2,8 C 0,0 km/h (0 Bft)
13.02.2023 04:34 2,7 C 0,6 C 93 % 1038,4 hPa 0,0 l/m 0,0 km/h (0 Bft) N 0 0 min 0,0 UV-I 0 W/m 1,7 C 2,7 C 0,0 km/h (0 Bft)
13.02.2023 04:35 2,6 C 0,6 C 93 % 1038,4 hPa 0,0 l/m 0,0 km/h (0 Bft) N 0 0 min 0,0 UV-I 0 W/m 1,6 C 2,6 C 0,0 km/h (0 Bft)
13.02.2023 04:36 2,6 C 0,6 C 93 % 1038,3 hPa 0,0 l/m 0,0 km/h (0 Bft) N 0 0 min 0,0 UV-I 0 W/m 1,6 C 2,6 C 0,0 km/h (0 Bft)
13.02.2023 04:37 2,6 C 0,6 C 93 % 1038,4 hPa 0,0 l/m 0,0 km/h (0 Bft) N 0 0 min 0,0 UV-I 0 W/m 1,6 C 2,6 C 0,0 km/h (0 Bft)
13.02.2023 04:38 2,6 C 0,6 C 93 % 1038,4 hPa 0,0 l/m 0,0 km/h (0 Bft) N 0 0 min 0,0 UV-I 0 W/m 1,6 C 2,6 C 0,0 km/h (0 Bft)
13.02.2023 04:39 2,6 C 0,6 C 93 % 1038,4 hPa 0,0 l/m 0,0 km/h (0 Bft) N 0 0 min 0,0 UV-I 0 W/m 1,6 C 2,6 C 0,0 km/h (0 Bft)
13.02.2023 04:40 2,6 C 0,6 C 93 % 1038,4 hPa 0,0 l/m 0,0 km/h (0 Bft) N 0 0 min 0,0 UV-I 0 W/m 1,6 C 2,6 C 0,0 km/h (0 Bft)
13.02.2023 04:41 2,6 C 0,6 C 93 % 1038,4 hPa 0,0 l/m 0,0 km/h (0 Bft) N 0 0 min 0,0 UV-I 0 W/m 1,6 C 2,6 C 0,0 km/h (0 Bft)
13.02.2023 04:42 2,6 C 1,1 C 93 % 1038,4 hPa 0,0 l/m 0,0 km/h (0 Bft) N 0 0 min 0,0 UV-I 0 W/m 1,6 C 2,6 C 0,0 km/h (0 Bft)
13.02.2023 04:43 2,7 C 1,1 C 93 % 1038,5 hPa 0,0 l/m 0,0 km/h (0 Bft) N 0 0 min 0,0 UV-I 0 W/m 1,7 C 2,7 C 0,0 km/h (0 Bft)
13.02.2023 04:44 2,7 C 1,1 C 93 % 1038,5 hPa 0,0 l/m 0,0 km/h (0 Bft) N 0 0 min 0,0 UV-I 0 W/m 1,7 C 2,7 C 0,0 km/h (0 Bft)
13.02.2023 04:45 2,8 C 0,6 C 93 % 1038,6 hPa 0,0 l/m 0,0 km/h (0 Bft) N 0 0 min 0,0 UV-I 0 W/m 1,8 C 2,8 C 0,0 km/h (0 Bft)
13.02.2023 04:46 2,8 C 0,6 C 93 % 1038,5 hPa 0,0 l/m 0,0 km/h (0 Bft) N 0 0 min 0,0 UV-I 0 W/m 1,8 C 2,8 C 0,0 km/h (0 Bft)
13.02.2023 04:47 2,7 C 0,6 C 93 % 1038,6 hPa 0,0 l/m 0,0 km/h (0 Bft) N 0 0 min 0,0 UV-I 0 W/m 1,7 C 2,7 C 0,0 km/h (0 Bft)
13.02.2023 04:48 2,7 C 0,6 C 93 % 1038,6 hPa 0,0 l/m 0,0 km/h (0 Bft) N 0 0 min 0,0 UV-I 0 W/m 1,7 C 2,7 C 0,0 km/h (0 Bft)
13.02.2023 04:49 2,7 C 0,6 C 93 % 1038,5 hPa 0,0 l/m 0,0 km/h (0 Bft) N 0 0 min 0,0 UV-I 0 W/m 1,7 C 2,7 C 0,0 km/h (0 Bft)
13.02.2023 04:50 2,7 C 0,6 C 93 % 1038,5 hPa 0,0 l/m 0,0 km/h (0 Bft) N 0 0 min 0,0 UV-I 0 W/m 1,7 C 2,7 C 0,0 km/h (0 Bft)
13.02.2023 04:51 2,7 C 0,6 C 93 % 1038,6 hPa 0,0 l/m 0,0 km/h (0 Bft) N 0 0 min 0,0 UV-I 0 W/m 1,7 C 2,7 C 0,0 km/h (0 Bft)
13.02.2023 04:52 2,6 C 0,6 C 93 % 1038,6 hPa 0,0 l/m 0,0 km/h (0 Bft) N 0 0 min 0,0 UV-I 0 W/m 1,6 C 2,6 C 0,0 km/h (0 Bft)
13.02.2023 04:53 2,6 C 0,6 C 93 % 1038,6 hPa 0,0 l/m 0,0 km/h (0 Bft) N 0 0 min 0,0 UV-I 0 W/m 1,6 C 2,6 C 0,0 km/h (0 Bft)
13.02.2023 04:54 2,6 C 0,0 C 93 % 1038,5 hPa 0,0 l/m 0,0 km/h (0 Bft) NO 45 0 min 0,0 UV-I 0 W/m 1,6 C 2,6 C 1,6 km/h (1 Bft)
13.02.2023 04:55 2,6 C 0,0 C 93 % 1038,6 hPa 0,0 l/m 0,0 km/h (0 Bft) N 0 0 min 0,0 UV-I 0 W/m 1,6 C 2,6 C 0,0 km/h (0 Bft)
13.02.2023 04:56 2,5 C 0,0 C 93 % 1038,6 hPa 0,0 l/m 0,0 km/h (0 Bft) NO 45 0 min 0,0 UV-I 0 W/m 1,5 C 2,5 C 1,6 km/h (1 Bft)
13.02.2023 04:57 2,5 C 0,0 C 93 % 1038,6 hPa 0,0 l/m 1,6 km/h (1 Bft) NO 45 0 min 0,0 UV-I 0 W/m 1,5 C 2,5 C 3,2 km/h (1 Bft)
13.02.2023 04:58 2,4 C 0,0 C 93 % 1038,6 hPa 0,0 l/m 3,2 km/h (1 Bft) NO 45 0 min 0,0 UV-I 0 W/m 1,4 C 2,4 C 3,2 km/h (1 Bft)
13.02.2023 04:59 2,4 C 0,0 C 93 % 1038,6 hPa 0,0 l/m 3,2 km/h (1 Bft) NO 45 0 min 0,0 UV-I 0 W/m 1,4 C 2,4 C 4,8 km/h (1 Bft)
13.02.2023 05:00 2,3 C 0,0 C 93 % 1038,6 hPa 0,0 l/m 4,8 km/h (1 Bft) NO 45 0 min 0,0 UV-I 0 W/m 1,3 C 2,3 C 4,8 km/h (1 Bft)
13.02.2023 05:01 2,3 C 0,0 C 93 % 1038,7 hPa 0,0 l/m 3,2 km/h (1 Bft) NO 45 0 min 0,0 UV-I 0 W/m 1,3 C 2,3 C 6,4 km/h (2 Bft)
13.02.2023 05:02 2,3 C 0,0 C 93 % 1038,6 hPa 0,0 l/m 3,2 km/h (1 Bft) NO 45 0 min 0,0 UV-I 0 W/m 1,3 C 2,3 C 3,2 km/h (1 Bft)
13.02.2023 05:03 2,3 C -0,6 C 93 % 1038,6 hPa 0,0 l/m 3,2 km/h (1 Bft) NO 45 0 min 0,0 UV-I 0 W/m 1,3 C 2,3 C 4,8 km/h (1 Bft)
13.02.2023 05:04 2,4 C 0,0 C 93 % 1038,6 hPa 0,0 l/m 3,2 km/h (1 Bft) NO 45 0 min 0,0 UV-I 0 W/m 1,4 C 2,4 C 4,8 km/h (1 Bft)
13.02.2023 05:05 2,4 C 0,0 C 93 % 1038,7 hPa 0,0 l/m 3,2 km/h (1 Bft) NO 45 0 min 0,0 UV-I 0 W/m 1,4 C 2,4 C 4,8 km/h (1 Bft)
13.02.2023 05:06 2,3 C 0,0 C 93 % 1038,7 hPa 0,0 l/m 4,8 km/h (1 Bft) NO 45 0 min 0,0 UV-I 0 W/m 1,3 C 2,3 C 4,8 km/h (1 Bft)
13.02.2023 05:07 2,4 C 0,0 C 93 % 1038,7 hPa 0,0 l/m 4,8 km/h (1 Bft) NO 45 0 min 0,0 UV-I 0 W/m 1,4 C 2,4 C 6,4 km/h (2 Bft)
13.02.2023 05:08 2,4 C 0,0 C 93 % 1038,7 hPa 0,0 l/m 1,6 km/h (1 Bft) NO 45 0 min 0,0 UV-I 0 W/m 1,4 C 2,4 C 4,8 km/h (1 Bft)
13.02.2023 05:09 2,4 C 0,0 C 93 % 1038,7 hPa 0,0 l/m 1,6 km/h (1 Bft) NO 45 0 min 0,0 UV-I 0 W/m 1,4 C 2,4 C 3,2 km/h (1 Bft)
13.02.2023 05:10 2,3 C 0,0 C 93 % 1038,7 hPa 0,0 l/m 1,6 km/h (1 Bft) NO 45 0 min 0,0 UV-I 0 W/m 1,3 C 2,3 C 3,2 km/h (1 Bft)
13.02.2023 05:11 2,3 C 0,0 C 93 % 1038,7 hPa 0,0 l/m 3,2 km/h (1 Bft) NO 45 0 min 0,0 UV-I 0 W/m 1,3 C 2,3 C 4,8 km/h (1 Bft)
13.02.2023 05:12 2,2 C 0,0 C 93 % 1038,7 hPa 0,0 l/m 1,6 km/h (1 Bft) NO 45 0 min 0,0 UV-I 0 W/m 1,2 C 2,2 C 3,2 km/h (1 Bft)
13.02.2023 05:13 2,2 C -0,6 C 93 % 1038,6 hPa 0,0 l/m 1,6 km/h (1 Bft) NO 45 0 min 0,0 UV-I 0 W/m 1,2 C 2,2 C 3,2 km/h (1 Bft)
13.02.2023 05:14 2,1 C -0,6 C 93 % 1038,6 hPa 0,0 l/m 0,0 km/h (0 Bft) NO 45 0 min 0,0 UV-I 0 W/m 1,1 C 2,1 C 1,6 km/h (1 Bft)
13.02.2023 05:15 1,9 C -0,6 C 93 % 1038,7 hPa 0,0 l/m 0,0 km/h (0 Bft) N 0 0 min 0,0 UV-I 0 W/m 0,9 C 1,9 C 0,0 km/h (0 Bft)
13.02.2023 05:16 1,8 C -0,6 C 93 % 1038,6 hPa 0,0 l/m 0,0 km/h (0 Bft) N 0 0 min 0,0 UV-I 0 W/m 0,8 C 1,8 C 0,0 km/h (0 Bft)
13.02.2023 05:17 1,7 C -0,6 C 93 % 1038,7 hPa 0,0 l/m 0,0 km/h (0 Bft) N 0 0 min 0,0 UV-I 0 W/m 0,7 C 1,7 C 0,0 km/h (0 Bft)
13.02.2023 05:18 1,6 C -0,6 C 93 % 1038,6 hPa 0,0 l/m 0,0 km/h (0 Bft) N 0 0 min 0,0 UV-I 0 W/m 0,6 C 1,6 C 0,0 km/h (0 Bft)
13.02.2023 05:19 1,6 C -0,6 C 93 % 1038,6 hPa 0,0 l/m 0,0 km/h (0 Bft) N 0 0 min 0,0 UV-I 0 W/m 0,6 C 1,6 C 0,0 km/h (0 Bft)
13.02.2023 05:20 1,6 C -0,6 C 93 % 1038,6 hPa 0,0 l/m 0,0 km/h (0 Bft) NO 45 0 min 0,0 UV-I 0 W/m 0,6 C 1,6 C 1,6 km/h (1 Bft)
13.02.2023 05:21 1,6 C -0,6 C 93 % 1038,7 hPa 0,0 l/m 0,0 km/h (0 Bft) NO 45 0 min 0,0 UV-I 0 W/m 0,6 C 1,6 C 1,6 km/h (1 Bft)
13.02.2023 05:22 1,6 C -0,6 C 93 % 1038,7 hPa 0,0 l/m 0,0 km/h (0 Bft) N 0 0 min 0,0 UV-I 0 W/m 0,6 C 1,6 C 0,0 km/h (0 Bft)
13.02.2023 05:23 1,6 C -0,6 C 93 % 1038,6 hPa 0,0 l/m 0,0 km/h (0 Bft) N 0 0 min 0,0 UV-I 0 W/m 0,6 C 1,6 C 0,0 km/h (0 Bft)
13.02.2023 05:24 1,6 C -0,6 C 93 % 1038,6 hPa 0,0 l/m 0,0 km/h (0 Bft) N 0 0 min 0,0 UV-I 0 W/m 0,6 C 1,6 C 0,0 km/h (0 Bft)
13.02.2023 05:25 1,7 C -0,6 C 93 % 1038,6 hPa 0,0 l/m 0,0 km/h (0 Bft) N 0 0 min 0,0 UV-I 0 W/m 0,7 C 1,7 C 0,0 km/h (0 Bft)
13.02.2023 05:26 1,7 C -0,6 C 93 % 1038,7 hPa 0,0 l/m 0,0 km/h (0 Bft) N 0 0 min 0,0 UV-I 0 W/m 0,7 C 1,7 C 0,0 km/h (0 Bft)
13.02.2023 05:27 1,7 C -0,6 C 93 % 1038,6 hPa 0,0 l/m 0,0 km/h (0 Bft) N 0 0 min 0,0 UV-I 0 W/m 0,7 C 1,7 C 0,0 km/h (0 Bft)
13.02.2023 05:28 1,8 C -0,6 C 93 % 1038,6 hPa 0,0 l/m 0,0 km/h (0 Bft) N 0 0 min 0,0 UV-I 0 W/m 0,8 C 1,8 C 0,0 km/h (0 Bft)
13.02.2023 05:29 1,7 C -0,6 C 93 % 1038,6 hPa 0,0 l/m 0,0 km/h (0 Bft) N 0 0 min 0,0 UV-I 0 W/m 0,7 C 1,7 C 0,0 km/h (0 Bft)
13.02.2023 05:30 1,6 C -0,6 C 93 % 1038,6 hPa 0,0 l/m 0,0 km/h (0 Bft) N 0 0 min 0,0 UV-I 0 W/m 0,6 C 1,6 C 0,0 km/h (0 Bft)
13.02.2023 05:31 1,6 C -0,6 C 93 % 1038,5 hPa 0,0 l/m 0,0 km/h (0 Bft) N 0 0 min 0,0 UV-I 0 W/m 0,6 C 1,6 C 0,0 km/h (0 Bft)
13.02.2023 05:32 1,6 C -0,6 C 93 % 1038,6 hPa 0,0 l/m 0,0 km/h (0 Bft) N 0 0 min 0,0 UV-I 0 W/m 0,6 C 1,6 C 0,0 km/h (0 Bft)
13.02.2023 05:33 1,6 C -0,6 C 93 % 1038,6 hPa 0,0 l/m 0,0 km/h (0 Bft) N 0 0 min 0,0 UV-I 0 W/m 0,6 C 1,6 C 0,0 km/h (0 Bft)
13.02.2023 05:34 1,5 C -0,6 C 93 % 1038,6 hPa 0,0 l/m 0,0 km/h (0 Bft) N 0 0 min 0,0 UV-I 0 W/m 0,5 C 1,5 C 0,0 km/h (0 Bft)
13.02.2023 05:35 1,5 C -0,6 C 93 % 1038,6 hPa 0,0 l/m 0,0 km/h (0 Bft) N 0 0 min 0,0 UV-I 0 W/m 0,5 C 1,5 C 0,0 km/h (0 Bft)
13.02.2023 05:36 1,4 C -0,6 C 93 % 1038,6 hPa 0,0 l/m 0,0 km/h (0 Bft) N 0 0 min 0,0 UV-I 0 W/m 0,4 C 1,4 C 0,0 km/h (0 Bft)
13.02.2023 05:37 1,4 C -0,6 C 93 % 1038,6 hPa 0,0 l/m 0,0 km/h (0 Bft) N 0 0 min 0,0 UV-I 0 W/m 0,4 C 1,4 C 0,0 km/h (0 Bft)
13.02.2023 05:38 1,3 C -1,1 C 93 % 1038,5 hPa 0,0 l/m 0,0 km/h (0 Bft) N 0 0 min 0,0 UV-I 0 W/m 0,3 C 1,3 C 0,0 km/h (0 Bft)
13.02.2023 05:39 1,1 C -1,1 C 93 % 1038,6 hPa 0,0 l/m 0,0 km/h (0 Bft) N 0 0 min 0,0 UV-I 0 W/m 0,1 C 1,1 C 0,0 km/h (0 Bft)
13.02.2023 05:40 0,9 C -1,1 C 93 % 1038,5 hPa 0,0 l/m 0,0 km/h (0 Bft) N 0 0 min 0,0 UV-I 0 W/m -0,1 C 0,9 C 0,0 km/h (0 Bft)
13.02.2023 05:41 0,9 C -1,1 C 93 % 1038,5 hPa 0,0 l/m 0,0 km/h (0 Bft) N 0 0 min 0,0 UV-I 0 W/m -0,1 C 0,9 C 0,0 km/h (0 Bft)
13.02.2023 05:42 0,9 C -1,1 C 93 % 1038,5 hPa 0,0 l/m 0,0 km/h (0 Bft) N 0 0 min 0,0 UV-I 0 W/m -0,1 C 0,9 C 0,0 km/h (0 Bft)
13.02.2023 05:43 0,9 C -1,1 C 93 % 1038,5 hPa 0,0 l/m 0,0 km/h (0 Bft) N 0 0 min 0,0 UV-I 0 W/m -0,1 C 0,9 C 0,0 km/h (0 Bft)
13.02.2023 05:44 0,9 C -1,1 C 93 % 1038,5 hPa 0,0 l/m 0,0 km/h (0 Bft) N 0 0 min 0,0 UV-I 0 W/m -0,1 C 0,9 C 0,0 km/h (0 Bft)
13.02.2023 05:45 0,8 C -1,1 C 93 % 1038,5 hPa 0,0 l/m 0,0 km/h (0 Bft) N 0 0 min 0,0 UV-I 0 W/m -0,2 C 0,8 C 0,0 km/h (0 Bft)
13.02.2023 05:46 0,7 C -1,1 C 93 % 1038,5 hPa 0,0 l/m 0,0 km/h (0 Bft) N 0 0 min 0,0 UV-I 0 W/m -0,3 C 0,7 C 0,0 km/h (0 Bft)
13.02.2023 05:47 0,5 C -1,1 C 93 % 1038,5 hPa 0,0 l/m 0,0 km/h (0 Bft) N 0 0 min 0,0 UV-I 0 W/m -0,5 C 0,5 C 0,0 km/h (0 Bft)
13.02.2023 05:48 0,4 C -1,1 C 93 % 1038,4 hPa 0,0 l/m 0,0 km/h (0 Bft) N 0 0 min 0,0 UV-I 0 W/m -0,6 C 0,4 C 0,0 km/h (0 Bft)
13.02.2023 05:49 0,4 C -1,1 C 93 % 1038,5 hPa 0,0 l/m 0,0 km/h (0 Bft) N 0 0 min 0,0 UV-I 0 W/m -0,6 C 0,4 C 0,0 km/h (0 Bft)
13.02.2023 05:50 0,4 C -0,6 C 93 % 1038,5 hPa 0,0 l/m 0,0 km/h (0 Bft) N 0 0 min 0,0 UV-I 0 W/m -0,6 C 0,4 C 0,0 km/h (0 Bft)
13.02.2023 05:51 0,4 C -0,6 C 93 % 1038,5 hPa 0,0 l/m 0,0 km/h (0 Bft) N 0 0 min 0,0 UV-I 0 W/m -0,6 C 0,4 C 0,0 km/h (0 Bft)
13.02.2023 05:52 0,3 C -0,6 C 93 % 1038,5 hPa 0,0 l/m 0,0 km/h (0 Bft) N 0 0 min 0,0 UV-I 0 W/m -0,7 C 0,3 C 0,0 km/h (0 Bft)
13.02.2023 05:53 0,2 C -0,6 C 93 % 1038,5 hPa 0,0 l/m 0,0 km/h (0 Bft) N 0 0 min 0,0 UV-I 0 W/m -0,8 C 0,2 C 0,0 km/h (0 Bft)
13.02.2023 05:54 0,3 C -0,6 C 93 % 1038,4 hPa 0,0 l/m 0,0 km/h (0 Bft) N 0 0 min 0,0 UV-I 0 W/m -0,7 C 0,3 C 0,0 km/h (0 Bft)
13.02.2023 05:55 0,6 C -0,6 C 93 % 1038,5 hPa 0,0 l/m 0,0 km/h (0 Bft) N 0 0 min 0,0 UV-I 0 W/m -0,4 C 0,6 C 0,0 km/h (0 Bft)
13.02.2023 05:56 0,8 C -0,6 C 94 % 1038,4 hPa 0,0 l/m 0,0 km/h (0 Bft) N 0 0 min 0,0 UV-I 0 W/m -0,1 C 0,8 C 0,0 km/h (0 Bft)
13.02.2023 05:57 0,7 C -0,6 C 94 % 1038,5 hPa 0,0 l/m 0,0 km/h (0 Bft) N 0 0 min 0,0 UV-I 0 W/m -0,2 C 0,7 C 0,0 km/h (0 Bft)
13.02.2023 05:58 0,6 C -1,1 C 93 % 1038,4 hPa 0,0 l/m 0,0 km/h (0 Bft) N 0 0 min 0,0 UV-I 0 W/m -0,4 C 0,6 C 0,0 km/h (0 Bft)
13.02.2023 05:59 0,4 C -1,1 C 93 % 1038,4 hPa 0,0 l/m 0,0 km/h (0 Bft) N 0 0 min 0,0 UV-I 0 W/m -0,6 C 0,4 C 0,0 km/h (0 Bft)
13.02.2023 06:00 0,7 C -0,6 C 93 % 1038,4 hPa 0,0 l/m 0,0 km/h (0 Bft) N 0 0 min 0,0 UV-I 0 W/m -0,3 C 0,7 C 0,0 km/h (0 Bft)
13.02.2023 06:01 0,8 C -0,6 C 94 % 1038,5 hPa 0,0 l/m 0,0 km/h (0 Bft) N 0 0 min 0,0 UV-I 0 W/m -0,1 C 0,8 C 0,0 km/h (0 Bft)
13.02.2023 06:02 0,7 C -1,1 C 94 % 1038,4 hPa 0,0 l/m 0,0 km/h (0 Bft) N 0 0 min 0,0 UV-I 0 W/m -0,2 C 0,7 C 0,0 km/h (0 Bft)
13.02.2023 06:03 0,6 C -1,1 C 93 % 1038,3 hPa 0,0 l/m 0,0 km/h (0 Bft) N 0 0 min 0,0 UV-I 0 W/m -0,4 C 0,6 C 0,0 km/h (0 Bft)
13.02.2023 06:04 0,6 C -1,1 C 93 % 1038,4 hPa 0,0 l/m 0,0 km/h (0 Bft) N 0 0 min 0,0 UV-I 0 W/m -0,4 C 0,6 C 0,0 km/h (0 Bft)
13.02.2023 06:05 0,6 C -1,1 C 93 % 1038,4 hPa 0,0 l/m 0,0 km/h (0 Bft) N 0 0 min 0,0 UV-I 0 W/m -0,4 C 0,6 C 0,0 km/h (0 Bft)
13.02.2023 06:06 0,8 C -1,1 C 93 % 1038,4 hPa 0,0 l/m 0,0 km/h (0 Bft) N 0 0 min 0,0 UV-I 0 W/m -0,2 C 0,8 C 0,0 km/h (0 Bft)
13.02.2023 06:07 0,8 C -0,6 C 94 % 1038,4 hPa 0,0 l/m 0,0 km/h (0 Bft) N 0 0 min 0,0 UV-I 0 W/m -0,1 C 0,8 C 0,0 km/h (0 Bft)
13.02.2023 06:08 0,7 C -0,6 C 93 % 1038,4 hPa 0,0 l/m 0,0 km/h (0 Bft) N 0 0 min 0,0 UV-I 0 W/m -0,3 C 0,7 C 0,0 km/h (0 Bft)
13.02.2023 06:09 0,8 C -0,6 C 93 % 1038,4 hPa 0,0 l/m 0,0 km/h (0 Bft) N 0 0 min 0,0 UV-I 0 W/m -0,2 C 0,8 C 0,0 km/h (0 Bft)
13.02.2023 06:10 0,7 C -0,6 C 93 % 1038,3 hPa 0,0 l/m 0,0 km/h (0 Bft) N 0 0 min 0,0 UV-I 0 W/m -0,3 C 0,7 C 0,0 km/h (0 Bft)
13.02.2023 06:11 0,7 C -0,6 C 93 % 1038,4 hPa 0,0 l/m 0,0 km/h (0 Bft) N 0 0 min 0,0 UV-I 0 W/m -0,3 C 0,7 C 0,0 km/h (0 Bft)
13.02.2023 06:12 0,7 C -0,6 C 93 % 1038,4 hPa 0,0 l/m 0,0 km/h (0 Bft) NO 45 0 min 0,0 UV-I 0 W/m -0,3 C 0,7 C 1,6 km/h (1 Bft)
13.02.2023 06:13 0,4 C -0,6 C 93 % 1038,4 hPa 0,0 l/m 0,0 km/h (0 Bft) N 0 0 min 0,0 UV-I 0 W/m -0,6 C 0,4 C 0,0 km/h (0 Bft)
13.02.2023 06:14 0,3 C -0,6 C 93 % 1038,6 hPa 0,0 l/m 0,0 km/h (0 Bft) N 0 0 min 0,0 UV-I 0 W/m -0,7 C 0,3 C 0,0 km/h (0 Bft)
13.02.2023 06:15 0,3 C -0,6 C 93 % 1038,5 hPa 0,0 l/m 0,0 km/h (0 Bft) N 0 0 min 0,0 UV-I 0 W/m -0,7 C 0,3 C 0,0 km/h (0 Bft)
13.02.2023 06:16 0,2 C -0,6 C 93 % 1038,5 hPa 0,0 l/m 0,0 km/h (0 Bft) N 0 0 min 0,0 UV-I 0 W/m -0,8 C 0,2 C 0,0 km/h (0 Bft)
13.02.2023 06:17 0,2 C -0,6 C 93 % 1038,5 hPa 0,0 l/m 0,0 km/h (0 Bft) N 0 0 min 0,0 UV-I 0 W/m -0,8 C 0,2 C 0,0 km/h (0 Bft)
13.02.2023 06:18 0,1 C -0,6 C 93 % 1038,5 hPa 0,0 l/m 0,0 km/h (0 Bft) N 0 0 min 0,0 UV-I 0 W/m -0,9 C 0,1 C 0,0 km/h (0 Bft)
13.02.2023 06:19 0,2 C -0,6 C 93 % 1038,5 hPa 0,0 l/m 0,0 km/h (0 Bft) N 0 0 min 0,0 UV-I 0 W/m -0,8 C 0,2 C 0,0 km/h (0 Bft)
13.02.2023 06:20 0,2 C -0,6 C 93 % 1038,4 hPa 0,0 l/m 0,0 km/h (0 Bft) N 0 0 min 0,0 UV-I 0 W/m -0,8 C 0,2 C 0,0 km/h (0 Bft)
13.02.2023 06:21 0,2 C -0,6 C 93 % 1038,4 hPa 0,0 l/m 0,0 km/h (0 Bft) N 0 0 min 0,0 UV-I 0 W/m -0,8 C 0,2 C 0,0 km/h (0 Bft)
13.02.2023 06:22 0,2 C -0,6 C 93 % 1038,4 hPa 0,0 l/m 0,0 km/h (0 Bft) N 0 0 min 0,0 UV-I 0 W/m -0,8 C 0,2 C 0,0 km/h (0 Bft)
13.02.2023 06:23 0,3 C -0,6 C 94 % 1038,4 hPa 0,0 l/m 0,0 km/h (0 Bft) N 0 0 min 0,0 UV-I 0 W/m -0,5 C 0,3 C 0,0 km/h (0 Bft)
13.02.2023 06:24 0,4 C -0,6 C 94 % 1038,4 hPa 0,0 l/m 0,0 km/h (0 Bft) N 0 0 min 0,0 UV-I 0 W/m -0,5 C 0,4 C 0,0 km/h (0 Bft)
13.02.2023 06:25 0,6 C -0,6 C 94 % 1038,4 hPa 0,0 l/m 0,0 km/h (0 Bft) NO 45 0 min 0,0 UV-I 0 W/m -0,3 C 0,6 C 1,6 km/h (1 Bft)
13.02.2023 06:26 0,7 C -0,6 C 94 % 1038,4 hPa 0,0 l/m 1,6 km/h (1 Bft) NO 45 0 min 0,0 UV-I 0 W/m -0,2 C 0,7 C 3,2 km/h (1 Bft)
13.02.2023 06:27 0,8 C -0,6 C 94 % 1038,4 hPa 0,0 l/m 0,0 km/h (0 Bft) NO 45 0 min 0,0 UV-I 0 W/m -0,1 C 0,8 C 1,6 km/h (1 Bft)
13.02.2023 06:28 0,8 C 0,0 C 94 % 1038,4 hPa 0,0 l/m 0,0 km/h (0 Bft) N 0 0 min 0,0 UV-I 0 W/m -0,1 C 0,8 C 0,0 km/h (0 Bft)
13.02.2023 06:29 0,9 C 0,0 C 94 % 1038,4 hPa 0,0 l/m 0,0 km/h (0 Bft) N 0 0 min 0,0 UV-I 0 W/m 0,0 C 0,9 C 0,0 km/h (0 Bft)
13.02.2023 06:30 0,9 C 0,0 C 94 % 1038,5 hPa 0,0 l/m 0,0 km/h (0 Bft) N 0 0 min 0,0 UV-I 0 W/m 0,0 C 0,9 C 0,0 km/h (0 Bft)
13.02.2023 06:31 0,9 C 0,0 C 94 % 1038,4 hPa 0,0 l/m 0,0 km/h (0 Bft) N 0 0 min 0,0 UV-I 0 W/m 0,0 C 0,9 C 0,0 km/h (0 Bft)
13.02.2023 06:32 0,8 C 0,0 C 94 % 1038,5 hPa 0,0 l/m 0,0 km/h (0 Bft) N 0 0 min 0,0 UV-I 0 W/m -0,1 C 0,8 C 0,0 km/h (0 Bft)
13.02.2023 06:33 0,8 C 0,0 C 93 % 1038,4 hPa 0,0 l/m 0,0 km/h (0 Bft) N 0 0 min 0,0 UV-I 0 W/m -0,2 C 0,8 C 0,0 km/h (0 Bft)
13.02.2023 06:34 0,7 C 0,0 C 93 % 1038,5 hPa 0,0 l/m 0,0 km/h (0 Bft) N 0 0 min 0,0 UV-I 0 W/m -0,3 C 0,7 C 0,0 km/h (0 Bft)
13.02.2023 06:35 0,7 C 0,0 C 93 % 1038,5 hPa 0,0 l/m 0,0 km/h (0 Bft) N 0 0 min 0,0 UV-I 0 W/m -0,3 C 0,7 C 0,0 km/h (0 Bft)
13.02.2023 06:36 0,7 C 0,0 C 93 % 1038,5 hPa 0,0 l/m 0,0 km/h (0 Bft) NO 45 0 min 0,0 UV-I 0 W/m -0,3 C 0,7 C 1,6 km/h (1 Bft)
13.02.2023 06:37 0,8 C 0,0 C 93 % 1038,4 hPa 0,0 l/m 0,0 km/h (0 Bft) N 0 0 min 0,0 UV-I 0 W/m -0,2 C 0,8 C 0,0 km/h (0 Bft)
13.02.2023 06:38 0,8 C 0,0 C 94 % 1038,5 hPa 0,0 l/m 0,0 km/h (0 Bft) NO 45 0 min 0,0 UV-I 0 W/m -0,1 C 0,8 C 1,6 km/h (1 Bft)
13.02.2023 06:39 0,8 C 0,0 C 94 % 1038,4 hPa 0,0 l/m 0,0 km/h (0 Bft) NO 45 0 min 0,0 UV-I 0 W/m -0,1 C 0,8 C 1,6 km/h (1 Bft)
13.02.2023 06:40 0,8 C 0,0 C 94 % 1038,5 hPa 0,0 l/m 0,0 km/h (0 Bft) N 0 0 min 0,0 UV-I 0 W/m -0,1 C 0,8 C 0,0 km/h (0 Bft)
13.02.2023 06:41 0,8 C 0,0 C 94 % 1038,5 hPa 0,0 l/m 0,0 km/h (0 Bft) N 0 0 min 0,0 UV-I 0 W/m -0,1 C 0,8 C 0,0 km/h (0 Bft)
13.02.2023 06:42 0,8 C 0,0 C 94 % 1038,4 hPa 0,0 l/m 0,0 km/h (0 Bft) N 0 0 min 0,0 UV-I 0 W/m -0,1 C 0,8 C 0,0 km/h (0 Bft)
13.02.2023 06:43 0,8 C 0,0 C 94 % 1038,5 hPa 0,0 l/m 0,0 km/h (0 Bft) N 0 0 min 0,0 UV-I 0 W/m -0,1 C 0,8 C 0,0 km/h (0 Bft)
13.02.2023 06:44 0,8 C 0,0 C 94 % 1038,5 hPa 0,0 l/m 0,0 km/h (0 Bft) N 0 0 min 0,0 UV-I 0 W/m -0,1 C 0,8 C 0,0 km/h (0 Bft)
13.02.2023 06:45 0,8 C 0,0 C 93 % 1038,6 hPa 0,0 l/m 0,0 km/h (0 Bft) N 0 0 min 0,0 UV-I 0 W/m -0,2 C 0,8 C 0,0 km/h (0 Bft)
13.02.2023 06:46 0,7 C 0,0 C 94 % 1038,5 hPa 0,0 l/m 0,0 km/h (0 Bft) N 0 0 min 0,0 UV-I 0 W/m -0,2 C 0,7 C 0,0 km/h (0 Bft)
13.02.2023 06:47 0,7 C 0,0 C 94 % 1038,5 hPa 0,0 l/m 0,0 km/h (0 Bft) N 0 0 min 0,0 UV-I 0 W/m -0,2 C 0,7 C 0,0 km/h (0 Bft)
13.02.2023 06:48 0,7 C 0,0 C 94 % 1038,6 hPa 0,0 l/m 0,0 km/h (0 Bft) N 0 0 min 0,0 UV-I 0 W/m -0,2 C 0,7 C 0,0 km/h (0 Bft)
13.02.2023 06:49 0,7 C 0,0 C 94 % 1038,5 hPa 0,0 l/m 0,0 km/h (0 Bft) N 0 0 min 0,0 UV-I 0 W/m -0,2 C 0,7 C 0,0 km/h (0 Bft)
13.02.2023 06:50 0,7 C 0,0 C 94 % 1038,7 hPa 0,0 l/m 0,0 km/h (0 Bft) N 0 0 min 0,0 UV-I 0 W/m -0,2 C 0,7 C 0,0 km/h (0 Bft)
13.02.2023 06:51 0,7 C 0,0 C 94 % 1038,7 hPa 0,0 l/m 0,0 km/h (0 Bft) N 0 0 min 0,0 UV-I 0 W/m -0,2 C 0,7 C 0,0 km/h (0 Bft)
13.02.2023 06:52 0,7 C 0,0 C 94 % 1038,6 hPa 0,0 l/m 0,0 km/h (0 Bft) N 0 0 min 0,0 UV-I 0 W/m -0,2 C 0,7 C 0,0 km/h (0 Bft)
13.02.2023 06:53 0,7 C 0,0 C 94 % 1038,7 hPa 0,0 l/m 0,0 km/h (0 Bft) N 0 0 min 0,0 UV-I 0 W/m -0,2 C 0,7 C 0,0 km/h (0 Bft)
13.02.2023 06:54 0,7 C 0,0 C 94 % 1038,7 hPa 0,0 l/m 0,0 km/h (0 Bft) N 0 0 min 0,0 UV-I 0 W/m -0,2 C 0,7 C 0,0 km/h (0 Bft)
13.02.2023 06:55 0,7 C 0,0 C 94 % 1038,7 hPa 0,0 l/m 0,0 km/h (0 Bft) N 0 0 min 0,0 UV-I 0 W/m -0,2 C 0,7 C 0,0 km/h (0 Bft)
13.02.2023 06:56 0,7 C 0,0 C 94 % 1038,7 hPa 0,0 l/m 0,0 km/h (0 Bft) N 0 0 min 0,0 UV-I 0 W/m -0,2 C 0,7 C 0,0 km/h (0 Bft)
13.02.2023 06:57 0,7 C 0,0 C 94 % 1038,7 hPa 0,0 l/m 0,0 km/h (0 Bft) N 0 0 min 0,0 UV-I 0 W/m -0,2 C 0,7 C 0,0 km/h (0 Bft)
13.02.2023 06:58 0,7 C 0,0 C 94 % 1038,6 hPa 0,0 l/m 0,0 km/h (0 Bft) N 0 0 min 0,0 UV-I 0 W/m -0,2 C 0,7 C 0,0 km/h (0 Bft)
13.02.2023 06:59 0,7 C 0,0 C 94 % 1038,7 hPa 0,0 l/m 0,0 km/h (0 Bft) N 0 0 min 0,0 UV-I 0 W/m -0,2 C 0,7 C 0,0 km/h (0 Bft)
13.02.2023 07:00 0,7 C 0,0 C 94 % 1038,6 hPa 0,0 l/m 0,0 km/h (0 Bft) N 0 0 min 0,0 UV-I 0 W/m -0,2 C 0,7 C 0,0 km/h (0 Bft)
13.02.2023 07:01 0,8 C 0,0 C 94 % 1038,7 hPa 0,0 l/m 0,0 km/h (0 Bft) N 0 0 min 0,0 UV-I 0 W/m -0,1 C 0,8 C 0,0 km/h (0 Bft)
13.02.2023 07:02 0,7 C 0,0 C 94 % 1038,7 hPa 0,0 l/m 0,0 km/h (0 Bft) N 0 0 min 0,0 UV-I 0 W/m -0,2 C 0,7 C 0,0 km/h (0 Bft)
13.02.2023 07:03 0,7 C 0,0 C 94 % 1038,7 hPa 0,0 l/m 0,0 km/h (0 Bft) N 0 0 min 0,0 UV-I 0 W/m -0,2 C 0,7 C 0,0 km/h (0 Bft)
13.02.2023 07:04 0,7 C 0,0 C 94 % 1038,7 hPa 0,0 l/m 0,0 km/h (0 Bft) N 0 0 min 0,0 UV-I 0 W/m -0,2 C 0,7 C 0,0 km/h (0 Bft)
13.02.2023 07:05 0,7 C 0,0 C 94 % 1038,7 hPa 0,0 l/m 0,0 km/h (0 Bft) N 0 0 min 0,0 UV-I 0 W/m -0,2 C 0,7 C 0,0 km/h (0 Bft)
13.02.2023 07:06 0,7 C 0,0 C 94 % 1038,8 hPa 0,0 l/m 0,0 km/h (0 Bft) N 0 0 min 0,0 UV-I 0 W/m -0,2 C 0,7 C 0,0 km/h (0 Bft)
13.02.2023 07:07 0,7 C 0,0 C 94 % 1038,8 hPa 0,0 l/m 0,0 km/h (0 Bft) N 0 0 min 0,0 UV-I 0 W/m -0,2 C 0,7 C 0,0 km/h (0 Bft)
13.02.2023 07:08 0,6 C 0,0 C 94 % 1038,8 hPa 0,0 l/m 0,0 km/h (0 Bft) N 0 0 min 0,0 UV-I 0 W/m -0,3 C 0,6 C 0,0 km/h (0 Bft)
13.02.2023 07:09 0,6 C 0,0 C 93 % 1038,7 hPa 0,0 l/m 0,0 km/h (0 Bft) N 0 0 min 0,0 UV-I 0 W/m -0,4 C 0,6 C 0,0 km/h (0 Bft)
13.02.2023 07:10 0,6 C 0,0 C 94 % 1038,8 hPa 0,0 l/m 0,0 km/h (0 Bft) N 0 0 min 0,0 UV-I 0 W/m -0,3 C 0,6 C 0,0 km/h (0 Bft)
13.02.2023 07:11 0,6 C 0,0 C 94 % 1038,8 hPa 0,0 l/m 0,0 km/h (0 Bft) N 0 0 min 0,0 UV-I 0 W/m -0,3 C 0,6 C 0,0 km/h (0 Bft)
13.02.2023 07:12 0,6 C 0,0 C 94 % 1038,8 hPa 0,0 l/m 0,0 km/h (0 Bft) N 0 0 min 0,0 UV-I 0 W/m -0,3 C 0,6 C 0,0 km/h (0 Bft)
13.02.2023 07:13 0,6 C 0,0 C 94 % 1038,7 hPa 0,0 l/m 0,0 km/h (0 Bft) N 0 0 min 0,0 UV-I 0 W/m -0,3 C 0,6 C 0,0 km/h (0 Bft)
13.02.2023 07:14 0,4 C 0,0 C 93 % 1038,7 hPa 0,0 l/m 0,0 km/h (0 Bft) N 0 0 min 0,0 UV-I 0 W/m -0,6 C 0,4 C 0,0 km/h (0 Bft)
13.02.2023 07:15 0,4 C 0,0 C 94 % 1038,7 hPa 0,0 l/m 0,0 km/h (0 Bft) N 0 0 min 0,0 UV-I 0 W/m -0,5 C 0,4 C 0,0 km/h (0 Bft)
13.02.2023 07:16 0,4 C 0,0 C 94 % 1038,7 hPa 0,0 l/m 0,0 km/h (0 Bft) N 0 0 min 0,0 UV-I 0 W/m -0,5 C 0,4 C 0,0 km/h (0 Bft)
13.02.2023 07:17 0,4 C 0,0 C 94 % 1038,7 hPa 0,0 l/m 0,0 km/h (0 Bft) N 0 0 min 0,0 UV-I 0 W/m -0,5 C 0,4 C 0,0 km/h (0 Bft)
13.02.2023 07:18 0,4 C 0,0 C 94 % 1038,6 hPa 0,0 l/m 0,0 km/h (0 Bft) N 0 0 min 0,0 UV-I 0 W/m -0,5 C 0,4 C 0,0 km/h (0 Bft)
13.02.2023 07:19 0,4 C 0,0 C 94 % 1038,7 hPa 0,0 l/m 0,0 km/h (0 Bft) N 0 0 min 0,0 UV-I 0 W/m -0,5 C 0,4 C 0,0 km/h (0 Bft)
13.02.2023 07:20 0,4 C 0,0 C 94 % 1038,8 hPa 0,0 l/m 0,0 km/h (0 Bft) N 0 0 min 0,0 UV-I 0 W/m -0,5 C 0,4 C 0,0 km/h (0 Bft)
13.02.2023 07:21 0,4 C 0,0 C 94 % 1038,7 hPa 0,0 l/m 0,0 km/h (0 Bft) N 0 0 min 0,0 UV-I 0 W/m -0,5 C 0,4 C 0,0 km/h (0 Bft)
13.02.2023 07:22 0,4 C 0,0 C 94 % 1038,8 hPa 0,0 l/m 0,0 km/h (0 Bft) N 0 0 min 0,0 UV-I 0 W/m -0,5 C 0,4 C 0,0 km/h (0 Bft)
13.02.2023 07:23 0,5 C 0,0 C 94 % 1038,7 hPa 0,0 l/m 0,0 km/h (0 Bft) N 0 0 min 0,0 UV-I 0 W/m -0,4 C 0,5 C 0,0 km/h (0 Bft)
13.02.2023 07:24 0,4 C 0,0 C 94 % 1038,7 hPa 0,0 l/m 0,0 km/h (0 Bft) N 0 0 min 0,0 UV-I 0 W/m -0,5 C 0,4 C 0,0 km/h (0 Bft)
13.02.2023 07:25 0,4 C 0,0 C 94 % 1038,8 hPa 0,0 l/m 0,0 km/h (0 Bft) N 0 0 min 0,0 UV-I 0 W/m -0,5 C 0,4 C 0,0 km/h (0 Bft)
13.02.2023 07:26 0,4 C 0,0 C 94 % 1038,7 hPa 0,0 l/m 0,0 km/h (0 Bft) N 0 0 min 0,0 UV-I 0 W/m -0,5 C 0,4 C 0,0 km/h (0 Bft)
13.02.2023 07:27 0,4 C 0,0 C 94 % 1038,7 hPa 0,0 l/m 0,0 km/h (0 Bft) N 0 0 min 0,0 UV-I 0 W/m -0,5 C 0,4 C 0,0 km/h (0 Bft)
13.02.2023 07:28 0,4 C 0,0 C 94 % 1038,8 hPa 0,0 l/m 0,0 km/h (0 Bft) N 0 0 min 0,0 UV-I 0 W/m -0,5 C 0,4 C 0,0 km/h (0 Bft)
13.02.2023 07:29 0,4 C 0,0 C 94 % 1038,7 hPa 0,0 l/m 0,0 km/h (0 Bft) N 0 0 min 0,0 UV-I 0 W/m -0,5 C 0,4 C 0,0 km/h (0 Bft)
13.02.2023 07:30 0,4 C 0,0 C 94 % 1038,8 hPa 0,0 l/m 0,0 km/h (0 Bft) N 0 0 min 0,0 UV-I 0 W/m -0,5 C 0,4 C 0,0 km/h (0 Bft)
13.02.2023 07:31 0,4 C 0,0 C 94 % 1038,8 hPa 0,0 l/m 0,0 km/h (0 Bft) NO 45 0 min 0,0 UV-I 0 W/m -0,5 C 0,4 C 1,6 km/h (1 Bft)
13.02.2023 07:32 0,4 C 0,0 C 94 % 1038,7 hPa 0,0 l/m 0,0 km/h (0 Bft) N 0 0 min 0,0 UV-I 0 W/m -0,5 C 0,4 C 0,0 km/h (0 Bft)
13.02.2023 07:33 0,4 C 0,0 C 94 % 1038,7 hPa 0,0 l/m 0,0 km/h (0 Bft) N 0 0 min 0,0 UV-I 0 W/m -0,5 C 0,4 C 0,0 km/h (0 Bft)
13.02.2023 07:34 0,5 C 0,0 C 94 % 1038,7 hPa 0,0 l/m 0,0 km/h (0 Bft) N 0 0 min 0,0 UV-I 0 W/m -0,4 C 0,5 C 0,0 km/h (0 Bft)
13.02.2023 07:35 0,4 C 0,0 C 94 % 1038,8 hPa 0,0 l/m 0,0 km/h (0 Bft) N 0 0 min 0,0 UV-I 0 W/m -0,5 C 0,4 C 0,0 km/h (0 Bft)
13.02.2023 07:36 0,3 C 0,0 C 94 % 1038,8 hPa 0,0 l/m 0,0 km/h (0 Bft) N 0 0 min 0,0 UV-I 0 W/m -0,5 C 0,3 C 0,0 km/h (0 Bft)
13.02.2023 07:37 0,2 C 0,0 C 94 % 1038,8 hPa 0,0 l/m 0,0 km/h (0 Bft) N 0 0 min 0,0 UV-I 0 W/m -0,6 C 0,2 C 0,0 km/h (0 Bft)
13.02.2023 07:38 0,2 C 0,0 C 93 % 1038,7 hPa 0,0 l/m 0,0 km/h (0 Bft) N 0 0 min 0,0 UV-I 0 W/m -0,8 C 0,2 C 0,0 km/h (0 Bft)
13.02.2023 07:39 0,1 C 0,0 C 93 % 1038,8 hPa 0,0 l/m 0,0 km/h (0 Bft) N 0 0 min 0,0 UV-I 0 W/m -0,9 C 0,1 C 0,0 km/h (0 Bft)
13.02.2023 07:40 0,1 C 0,0 C 93 % 1038,8 hPa 0,0 l/m 0,0 km/h (0 Bft) N 0 0 min 0,0 UV-I 0 W/m -0,9 C 0,1 C 0,0 km/h (0 Bft)
13.02.2023 07:41 0,1 C 0,0 C 94 % 1038,8 hPa 0,0 l/m 0,0 km/h (0 Bft) N 0 0 min 0,0 UV-I 0 W/m -0,7 C 0,1 C 0,0 km/h (0 Bft)
13.02.2023 07:42 0,0 C 0,0 C 94 % 1038,7 hPa 0,0 l/m 0,0 km/h (0 Bft) N 0 0 min 0,0 UV-I 0 W/m -0,8 C 0,0 C 0,0 km/h (0 Bft)
13.02.2023 07:43 0,0 C 0,0 C 94 % 1038,7 hPa 0,0 l/m 0,0 km/h (0 Bft) N 0 0 min 0,0 UV-I 0 W/m -0,8 C 0,0 C 0,0 km/h (0 Bft)
13.02.2023 07:44 0,0 C 0,0 C 94 % 1038,7 hPa 0,0 l/m 0,0 km/h (0 Bft) N 0 0 min 0,0 UV-I 0 W/m -0,8 C 0,0 C 0,0 km/h (0 Bft)
13.02.2023 07:45 0,0 C 0,0 C 94 % 1038,8 hPa 0,0 l/m 0,0 km/h (0 Bft) N 0 0 min 0,0 UV-I 0 W/m -0,8 C 0,0 C 0,0 km/h (0 Bft)
13.02.2023 07:46 0,0 C 0,0 C 94 % 1038,8 hPa 0,0 l/m 0,0 km/h (0 Bft) N 0 0 min 0,0 UV-I 0 W/m -0,8 C 0,0 C 0,0 km/h (0 Bft)
13.02.2023 07:47 0,0 C 0,0 C 94 % 1038,7 hPa 0,0 l/m 0,0 km/h (0 Bft) N 0 0 min 0,0 UV-I 0 W/m -0,8 C 0,0 C 0,0 km/h (0 Bft)
13.02.2023 07:48 -0,1 C 0,0 C 94 % 1038,8 hPa 0,0 l/m 0,0 km/h (0 Bft) N 0 0 min 0,0 UV-I 0 W/m -0,9 C -0,1 C 0,0 km/h (0 Bft)
13.02.2023 07:49 -0,1 C 0,0 C 94 % 1038,7 hPa 0,0 l/m 0,0 km/h (0 Bft) N 0 0 min 0,0 UV-I 0 W/m -0,9 C -0,1 C 0,0 km/h (0 Bft)
13.02.2023 07:50 0,0 C 0,0 C 94 % 1038,7 hPa 0,0 l/m 0,0 km/h (0 Bft) N 0 0 min 0,0 UV-I 0 W/m -0,8 C 0,0 C 0,0 km/h (0 Bft)
13.02.2023 07:51 -0,1 C 0,0 C 94 % 1038,7 hPa 0,0 l/m 0,0 km/h (0 Bft) N 0 0 min 0,0 UV-I 0 W/m -0,9 C -0,1 C 0,0 km/h (0 Bft)
13.02.2023 07:52 -0,1 C 0,0 C 94 % 1038,7 hPa 0,0 l/m 0,0 km/h (0 Bft) N 0 0 min 0,0 UV-I 0 W/m -0,9 C -0,1 C 0,0 km/h (0 Bft)
13.02.2023 07:53 -0,1 C -0,6 C 94 % 1038,7 hPa 0,0 l/m 0,0 km/h (0 Bft) N 0 0 min 0,0 UV-I 0 W/m -0,9 C -0,1 C 0,0 km/h (0 Bft)
13.02.2023 07:54 0,0 C 0,0 C 94 % 1038,7 hPa 0,0 l/m 0,0 km/h (0 Bft) N 0 0 min 0,0 UV-I 5 W/m -0,8 C 0,0 C 0,0 km/h (0 Bft)
13.02.2023 07:55 -0,1 C 0,0 C 94 % 1038,7 hPa 0,0 l/m 0,0 km/h (0 Bft) N 0 0 min 0,0 UV-I 5 W/m -0,9 C -0,1 C 0,0 km/h (0 Bft)
13.02.2023 07:56 0,0 C 0,0 C 94 % 1038,7 hPa 0,0 l/m 0,0 km/h (0 Bft) N 0 0 min 0,0 UV-I 5 W/m -0,8 C 0,0 C 0,0 km/h (0 Bft)
13.02.2023 07:57 -0,1 C 0,0 C 94 % 1038,7 hPa 0,0 l/m 0,0 km/h (0 Bft) N 0 0 min 0,0 UV-I 5 W/m -0,9 C -0,1 C 0,0 km/h (0 Bft)
13.02.2023 07:58 -0,1 C 0,0 C 94 % 1038,7 hPa 0,0 l/m 0,0 km/h (0 Bft) N 0 0 min 0,0 UV-I 5 W/m -0,9 C -0,1 C 0,0 km/h (0 Bft)
13.02.2023 07:59 -0,1 C 0,0 C 94 % 1038,7 hPa 0,0 l/m 0,0 km/h (0 Bft) N 0 0 min 0,0 UV-I 5 W/m -0,9 C -0,1 C 0,0 km/h (0 Bft)
13.02.2023 08:00 -0,1 C 0,0 C 94 % 1038,7 hPa 0,0 l/m 0,0 km/h (0 Bft) N 0 0 min 0,0 UV-I 5 W/m -0,9 C -0,1 C 0,0 km/h (0 Bft)
13.02.2023 08:01 -0,1 C 0,0 C 94 % 1038,6 hPa 0,0 l/m 0,0 km/h (0 Bft) N 0 0 min 0,0 UV-I 5 W/m -0,9 C -0,1 C 0,0 km/h (0 Bft)
13.02.2023 08:02 -0,1 C 0,0 C 94 % 1038,7 hPa 0,0 l/m 0,0 km/h (0 Bft) N 0 0 min 0,0 UV-I 7 W/m -0,9 C -0,1 C 0,0 km/h (0 Bft)
13.02.2023 08:03 -0,1 C 0,0 C 94 % 1038,7 hPa 0,0 l/m 0,0 km/h (0 Bft) N 0 0 min 0,0 UV-I 7 W/m -0,9 C -0,1 C 0,0 km/h (0 Bft)
13.02.2023 08:04 -0,1 C 0,0 C 94 % 1038,8 hPa 0,0 l/m 0,0 km/h (0 Bft) N 0 0 min 0,0 UV-I 8 W/m -0,9 C -0,1 C 0,0 km/h (0 Bft)
13.02.2023 08:05 -0,1 C 0,0 C 94 % 1038,7 hPa 0,0 l/m 0,0 km/h (0 Bft) N 0 0 min 0,0 UV-I 9 W/m -0,9 C -0,1 C 0,0 km/h (0 Bft)
13.02.2023 08:06 -0,1 C 0,0 C 94 % 1038,8 hPa 0,0 l/m 0,0 km/h (0 Bft) N 0 0 min 0,0 UV-I 9 W/m -0,9 C -0,1 C 0,0 km/h (0 Bft)
13.02.2023 08:07 -0,1 C 0,0 C 94 % 1038,8 hPa 0,0 l/m 0,0 km/h (0 Bft) N 0 0 min 0,0 UV-I 11 W/m -0,9 C -0,1 C 0,0 km/h (0 Bft)
13.02.2023 08:08 -0,1 C 0,0 C 94 % 1038,9 hPa 0,0 l/m 0,0 km/h (0 Bft) N 0 0 min 0,0 UV-I 11 W/m -0,9 C -0,1 C 0,0 km/h (0 Bft)
13.02.2023 08:09 -0,2 C 0,0 C 94 % 1038,8 hPa 0,0 l/m 0,0 km/h (0 Bft) N 0 0 min 0,0 UV-I 12 W/m -1,0 C -0,2 C 0,0 km/h (0 Bft)
13.02.2023 08:10 -0,2 C 0,0 C 94 % 1038,9 hPa 0,0 l/m 0,0 km/h (0 Bft) N 0 0 min 0,0 UV-I 14 W/m -1,0 C -0,2 C 0,0 km/h (0 Bft)
13.02.2023 08:11 -0,2 C 0,0 C 94 % 1038,9 hPa 0,0 l/m 0,0 km/h (0 Bft) N 0 0 min 0,0 UV-I 16 W/m -1,0 C -0,2 C 0,0 km/h (0 Bft)
13.02.2023 08:12 -0,2 C 0,0 C 94 % 1038,8 hPa 0,0 l/m 0,0 km/h (0 Bft) N 0 0 min 0,0 UV-I 14 W/m -1,0 C -0,2 C 0,0 km/h (0 Bft)
13.02.2023 08:13 -0,2 C 0,0 C 94 % 1038,9 hPa 0,0 l/m 0,0 km/h (0 Bft) N 0 0 min 0,0 UV-I 14 W/m -1,0 C -0,2 C 0,0 km/h (0 Bft)
13.02.2023 08:14 -0,3 C 0,0 C 94 % 1038,9 hPa 0,0 l/m 0,0 km/h (0 Bft) N 0 0 min 0,0 UV-I 16 W/m -1,1 C -0,3 C 0,0 km/h (0 Bft)
13.02.2023 08:15 -0,3 C 0,0 C 94 % 1038,9 hPa 0,0 l/m 0,0 km/h (0 Bft) N 0 0 min 0,0 UV-I 17 W/m -1,1 C -0,3 C 0,0 km/h (0 Bft)
13.02.2023 08:16 -0,3 C 0,0 C 94 % 1038,9 hPa 0,0 l/m 0,0 km/h (0 Bft) N 0 0 min 0,0 UV-I 18 W/m -1,1 C -0,3 C 0,0 km/h (0 Bft)
13.02.2023 08:17 -0,3 C 0,0 C 94 % 1039,0 hPa 0,0 l/m 0,0 km/h (0 Bft) N 0 0 min 0,0 UV-I 16 W/m -1,1 C -0,3 C 0,0 km/h (0 Bft)
13.02.2023 08:18 -0,3 C 0,0 C 94 % 1038,9 hPa 0,0 l/m 0,0 km/h (0 Bft) N 0 0 min 0,0 UV-I 19 W/m -1,1 C -0,3 C 0,0 km/h (0 Bft)
13.02.2023 08:19 -0,3 C 0,0 C 94 % 1038,9 hPa 0,0 l/m 0,0 km/h (0 Bft) N 0 0 min 0,0 UV-I 19 W/m -1,1 C -0,3 C 0,0 km/h (0 Bft)
13.02.2023 08:20 -0,3 C 0,0 C 94 % 1038,9 hPa 0,0 l/m 0,0 km/h (0 Bft) N 0 0 min 0,0 UV-I 19 W/m -1,1 C -0,3 C 0,0 km/h (0 Bft)
13.02.2023 08:21 -0,3 C -0,6 C 94 % 1039,0 hPa 0,0 l/m 0,0 km/h (0 Bft) N 0 0 min 0,0 UV-I 21 W/m -1,1 C -0,3 C 0,0 km/h (0 Bft)
13.02.2023 08:22 -0,3 C -0,6 C 94 % 1038,9 hPa 0,0 l/m 0,0 km/h (0 Bft) N 0 0 min 0,0 UV-I 19 W/m -1,1 C -0,3 C 0,0 km/h (0 Bft)
13.02.2023 08:23 -0,4 C -0,6 C 94 % 1038,9 hPa 0,0 l/m 0,0 km/h (0 Bft) N 0 0 min 0,0 UV-I 23 W/m -1,2 C -0,4 C 0,0 km/h (0 Bft)
13.02.2023 08:24 -0,3 C 0,0 C 94 % 1039,0 hPa 0,0 l/m 0,0 km/h (0 Bft) N 0 0 min 0,0 UV-I 23 W/m -1,1 C -0,3 C 0,0 km/h (0 Bft)
13.02.2023 08:25 -0,3 C 0,0 C 94 % 1039,0 hPa 0,0 l/m 0,0 km/h (0 Bft) N 0 0 min 0,0 UV-I 28 W/m -1,1 C -0,3 C 0,0 km/h (0 Bft)
13.02.2023 08:26 -0,3 C 0,0 C 94 % 1039,0 hPa 0,0 l/m 0,0 km/h (0 Bft) N 0 0 min 0,0 UV-I 25 W/m -1,1 C -0,3 C 0,0 km/h (0 Bft)
13.02.2023 08:27 -0,4 C 0,0 C 94 % 1039,0 hPa 0,0 l/m 0,0 km/h (0 Bft) N 0 0 min 0,0 UV-I 30 W/m -1,2 C -0,4 C 0,0 km/h (0 Bft)
13.02.2023 08:28 -0,4 C 0,0 C 94 % 1039,0 hPa 0,0 l/m 0,0 km/h (0 Bft) N 0 0 min 0,0 UV-I 26 W/m -1,2 C -0,4 C 0,0 km/h (0 Bft)
13.02.2023 08:29 -0,4 C 0,0 C 94 % 1038,9 hPa 0,0 l/m 0,0 km/h (0 Bft) N 0 0 min 0,0 UV-I 30 W/m -1,2 C -0,4 C 0,0 km/h (0 Bft)
13.02.2023 08:30 -0,4 C 0,0 C 94 % 1039,0 hPa 0,0 l/m 0,0 km/h (0 Bft) N 0 0 min 0,0 UV-I 32 W/m -1,2 C -0,4 C 0,0 km/h (0 Bft)
13.02.2023 08:31 -0,4 C 0,0 C 94 % 1038,9 hPa 0,0 l/m 0,0 km/h (0 Bft) N 0 0 min 0,0 UV-I 33 W/m -1,2 C -0,4 C 0,0 km/h (0 Bft)
13.02.2023 08:32 -0,4 C 0,0 C 94 % 1038,9 hPa 0,0 l/m 0,0 km/h (0 Bft) N 0 0 min 0,0 UV-I 28 W/m -1,2 C -0,4 C 0,0 km/h (0 Bft)
13.02.2023 08:33 -0,4 C 0,0 C 94 % 1038,9 hPa 0,0 l/m 0,0 km/h (0 Bft) N 0 0 min 0,0 UV-I 35 W/m -1,2 C -0,4 C 0,0 km/h (0 Bft)
13.02.2023 08:34 -0,4 C 0,0 C 94 % 1038,8 hPa 0,0 l/m 0,0 km/h (0 Bft) N 0 0 min 0,0 UV-I 37 W/m -1,2 C -0,4 C 0,0 km/h (0 Bft)
13.02.2023 08:35 -0,4 C 0,0 C 94 % 1038,9 hPa 0,0 l/m 0,0 km/h (0 Bft) N 0 0 min 0,0 UV-I 35 W/m -1,2 C -0,4 C 0,0 km/h (0 Bft)
13.02.2023 08:36 -0,4 C 0,0 C 94 % 1038,9 hPa 0,0 l/m 0,0 km/h (0 Bft) N 0 0 min 0,0 UV-I 35 W/m -1,2 C -0,4 C 0,0 km/h (0 Bft)
13.02.2023 08:37 -0,4 C 0,0 C 94 % 1038,8 hPa 0,0 l/m 0,0 km/h (0 Bft) N 0 0 min 0,0 UV-I 33 W/m -1,2 C -0,4 C 0,0 km/h (0 Bft)
13.02.2023 08:38 -0,4 C 0,0 C 94 % 1038,9 hPa 0,0 l/m 0,0 km/h (0 Bft) N 0 0 min 0,0 UV-I 39 W/m -1,2 C -0,4 C 0,0 km/h (0 Bft)
13.02.2023 08:39 -0,4 C 0,0 C 94 % 1038,8 hPa 0,0 l/m 0,0 km/h (0 Bft) N 0 0 min 0,0 UV-I 39 W/m -1,2 C -0,4 C 0,0 km/h (0 Bft)
13.02.2023 08:40 -0,4 C 0,0 C 94 % 1038,8 hPa 0,0 l/m 0,0 km/h (0 Bft) N 0 0 min 0,0 UV-I 33 W/m -1,2 C -0,4 C 0,0 km/h (0 Bft)
13.02.2023 08:41 -0,4 C 0,0 C 94 % 1038,8 hPa 0,0 l/m 0,0 km/h (0 Bft) N 0 0 min 0,0 UV-I 47 W/m -1,2 C -0,4 C 0,0 km/h (0 Bft)
13.02.2023 08:42 -0,4 C 0,0 C 94 % 1038,9 hPa 0,0 l/m 0,0 km/h (0 Bft) N 0 0 min 0,0 UV-I 47 W/m -1,2 C -0,4 C 0,0 km/h (0 Bft)
13.02.2023 08:43 -0,4 C 0,0 C 94 % 1038,8 hPa 0,0 l/m 0,0 km/h (0 Bft) N 0 0 min 0,0 UV-I 51 W/m -1,2 C -0,4 C 0,0 km/h (0 Bft)
13.02.2023 08:44 -0,4 C 0,0 C 94 % 1038,7 hPa 0,0 l/m 0,0 km/h (0 Bft) N 0 0 min 0,0 UV-I 32 W/m -1,2 C -0,4 C 0,0 km/h (0 Bft)
13.02.2023 08:45 -0,4 C 0,0 C 94 % 1038,8 hPa 0,0 l/m 0,0 km/h (0 Bft) N 0 0 min 0,0 UV-I 43 W/m -1,2 C -0,4 C 0,0 km/h (0 Bft)
13.02.2023 08:46 -0,4 C 0,0 C 94 % 1038,8 hPa 0,0 l/m 0,0 km/h (0 Bft) N 0 0 min 0,0 UV-I 47 W/m -1,2 C -0,4 C 0,0 km/h (0 Bft)
13.02.2023 08:47 -0,5 C 0,0 C 94 % 1038,8 hPa 0,0 l/m 0,0 km/h (0 Bft) N 0 0 min 0,0 UV-I 39 W/m -1,3 C -0,5 C 0,0 km/h (0 Bft)
13.02.2023 08:48 -0,5 C 0,0 C 94 % 1038,8 hPa 0,0 l/m 0,0 km/h (0 Bft) N 0 0 min 0,0 UV-I 49 W/m -1,3 C -0,5 C 0,0 km/h (0 Bft)
13.02.2023 08:49 -0,5 C 0,0 C 94 % 1038,8 hPa 0,0 l/m 0,0 km/h (0 Bft) N 0 0 min 0,0 UV-I 49 W/m -1,3 C -0,5 C 0,0 km/h (0 Bft)
13.02.2023 08:50 -0,5 C 0,0 C 94 % 1038,8 hPa 0,0 l/m 0,0 km/h (0 Bft) N 0 0 min 0,0 UV-I 54 W/m -1,3 C -0,5 C 0,0 km/h (0 Bft)
13.02.2023 08:51 -0,6 C 0,0 C 94 % 1038,8 hPa 0,0 l/m 0,0 km/h (0 Bft) N 0 0 min 0,0 UV-I 49 W/m -1,4 C -0,6 C 0,0 km/h (0 Bft)
13.02.2023 08:52 -0,5 C 0,0 C 94 % 1038,9 hPa 0,0 l/m 0,0 km/h (0 Bft) N 0 0 min 0,0 UV-I 58 W/m -1,3 C -0,5 C 0,0 km/h (0 Bft)
13.02.2023 08:53 -0,5 C 0,0 C 94 % 1038,9 hPa 0,0 l/m 0,0 km/h (0 Bft) N 0 0 min 0,0 UV-I 47 W/m -1,3 C -0,5 C 0,0 km/h (0 Bft)
13.02.2023 08:54 -0,5 C 0,0 C 94 % 1038,8 hPa 0,0 l/m 0,0 km/h (0 Bft) N 0 0 min 0,0 UV-I 70 W/m -1,3 C -0,5 C 0,0 km/h (0 Bft)
13.02.2023 08:55 -0,5 C 0,0 C 94 % 1038,9 hPa 0,0 l/m 0,0 km/h (0 Bft) N 0 0 min 0,0 UV-I 47 W/m -1,3 C -0,5 C 0,0 km/h (0 Bft)
13.02.2023 08:56 -0,5 C 0,0 C 94 % 1038,9 hPa 0,0 l/m 0,0 km/h (0 Bft) N 0 0 min 0,0 UV-I 59 W/m -1,3 C -0,5 C 0,0 km/h (0 Bft)
13.02.2023 08:57 -0,5 C 0,0 C 94 % 1038,8 hPa 0,0 l/m 0,0 km/h (0 Bft) N 0 0 min 0,0 UV-I 58 W/m -1,3 C -0,5 C 0,0 km/h (0 Bft)
13.02.2023 08:58 -0,5 C 0,0 C 94 % 1038,9 hPa 0,0 l/m 0,0 km/h (0 Bft) N 0 0 min 0,0 UV-I 58 W/m -1,3 C -0,5 C 0,0 km/h (0 Bft)
13.02.2023 08:59 -0,4 C 0,0 C 94 % 1038,9 hPa 0,0 l/m 0,0 km/h (0 Bft) N 0 0 min 0,0 UV-I 62 W/m -1,2 C -0,4 C 0,0 km/h (0 Bft)
13.02.2023 09:00 -0,4 C 0,0 C 94 % 1038,9 hPa 0,0 l/m 0,0 km/h (0 Bft) N 0 0 min 0,0 UV-I 56 W/m -1,2 C -0,4 C 0,0 km/h (0 Bft)
13.02.2023 09:01 -0,4 C 0,0 C 94 % 1038,9 hPa 0,0 l/m 0,0 km/h (0 Bft) N 0 0 min 0,0 UV-I 63 W/m -1,2 C -0,4 C 0,0 km/h (0 Bft)
13.02.2023 09:02 -0,5 C 0,0 C 94 % 1038,9 hPa 0,0 l/m 0,0 km/h (0 Bft) N 0 0 min 0,0 UV-I 62 W/m -1,3 C -0,5 C 0,0 km/h (0 Bft)
13.02.2023 09:03 -0,4 C 0,0 C 94 % 1038,9 hPa 0,0 l/m 0,0 km/h (0 Bft) N 0 0 min 0,0 UV-I 79 W/m -1,2 C -0,4 C 0,0 km/h (0 Bft)
13.02.2023 09:04 -0,4 C 0,0 C 94 % 1038,9 hPa 0,0 l/m 0,0 km/h (0 Bft) N 0 0 min 0,0 UV-I 51 W/m -1,2 C -0,4 C 0,0 km/h (0 Bft)
13.02.2023 09:05 -0,4 C 0,0 C 94 % 1039,0 hPa 0,0 l/m 0,0 km/h (0 Bft) N 0 0 min 0,0 UV-I 88 W/m -1,2 C -0,4 C 0,0 km/h (0 Bft)
13.02.2023 09:06 -0,4 C 0,0 C 94 % 1038,9 hPa 0,0 l/m 0,0 km/h (0 Bft) N 0 0 min 0,0 UV-I 58 W/m -1,2 C -0,4 C 0,0 km/h (0 Bft)
13.02.2023 09:07 -0,4 C 0,0 C 94 % 1038,9 hPa 0,0 l/m 0,0 km/h (0 Bft) N 0 0 min 0,0 UV-I 67 W/m -1,2 C -0,4 C 0,0 km/h (0 Bft)
13.02.2023 09:08 -0,4 C 0,0 C 94 % 1038,9 hPa 0,0 l/m 0,0 km/h (0 Bft) N 0 0 min 0,0 UV-I 70 W/m -1,2 C -0,4 C 0,0 km/h (0 Bft)
13.02.2023 09:09 -0,4 C 0,0 C 94 % 1038,8 hPa 0,0 l/m 0,0 km/h (0 Bft) N 0 0 min 0,0 UV-I 86 W/m -1,2 C -0,4 C 0,0 km/h (0 Bft)
13.02.2023 09:10 -0,4 C 0,0 C 94 % 1038,9 hPa 0,0 l/m 0,0 km/h (0 Bft) N 0 0 min 0,0 UV-I 67 W/m -1,2 C -0,4 C 0,0 km/h (0 Bft)
13.02.2023 09:11 -0,4 C 0,0 C 94 % 1038,8 hPa 0,0 l/m 0,0 km/h (0 Bft) N 0 0 min 0,0 UV-I 72 W/m -1,2 C -0,4 C 0,0 km/h (0 Bft)
13.02.2023 09:12 -0,4 C 0,0 C 94 % 1038,9 hPa 0,0 l/m 0,0 km/h (0 Bft) N 0 0 min 0,0 UV-I 63 W/m -1,2 C -0,4 C 0,0 km/h (0 Bft)
13.02.2023 09:13 -0,4 C 0,0 C 94 % 1038,8 hPa 0,0 l/m 0,0 km/h (0 Bft) N 0 0 min 0,0 UV-I 67 W/m -1,2 C -0,4 C 0,0 km/h (0 Bft)
13.02.2023 09:14 -0,4 C 0,0 C 94 % 1038,8 hPa 0,0 l/m 0,0 km/h (0 Bft) N 0 0 min 0,0 UV-I 64 W/m -1,2 C -0,4 C 0,0 km/h (0 Bft)
13.02.2023 09:15 -0,5 C 0,0 C 94 % 1038,9 hPa 0,0 l/m 0,0 km/h (0 Bft) N 0 0 min 0,0 UV-I 74 W/m -1,3 C -0,5 C 0,0 km/h (0 Bft)
13.02.2023 09:16 -0,5 C 0,0 C 94 % 1038,9 hPa 0,0 l/m 0,0 km/h (0 Bft) N 0 0 min 0,0 UV-I 58 W/m -1,3 C -0,5 C 0,0 km/h (0 Bft)
13.02.2023 09:17 -0,6 C 0,0 C 94 % 1038,8 hPa 0,0 l/m 0,0 km/h (0 Bft) N 0 0 min 0,0 UV-I 90 W/m -1,4 C -0,6 C 0,0 km/h (0 Bft)
13.02.2023 09:18 -0,6 C 0,0 C 94 % 1038,8 hPa 0,0 l/m 0,0 km/h (0 Bft) N 0 0 min 0,0 UV-I 62 W/m -1,4 C -0,6 C 0,0 km/h (0 Bft)
13.02.2023 09:19 -0,6 C 0,0 C 94 % 1038,9 hPa 0,0 l/m 0,0 km/h (0 Bft) N 0 0 min 0,0 UV-I 77 W/m -1,4 C -0,6 C 0,0 km/h (0 Bft)
13.02.2023 09:20 -0,6 C 0,0 C 94 % 1038,9 hPa 0,0 l/m 0,0 km/h (0 Bft) N 0 0 min 0,0 UV-I 77 W/m -1,4 C -0,6 C 0,0 km/h (0 Bft)
13.02.2023 09:21 -0,6 C 0,0 C 94 % 1038,9 hPa 0,0 l/m 0,0 km/h (0 Bft) N 0 0 min 0,0 UV-I 81 W/m -1,4 C -0,6 C 0,0 km/h (0 Bft)
13.02.2023 09:22 -0,5 C 0,0 C 94 % 1038,9 hPa 0,0 l/m 0,0 km/h (0 Bft) N 0 0 min 0,0 UV-I 70 W/m -1,3 C -0,5 C 0,0 km/h (0 Bft)
13.02.2023 09:23 -0,5 C 0,0 C 94 % 1038,9 hPa 0,0 l/m 0,0 km/h (0 Bft) N 0 0 min 0,5 UV-I 83 W/m -1,3 C -0,5 C 0,0 km/h (0 Bft)
13.02.2023 09:24 -0,5 C 0,6 C 94 % 1039,0 hPa 0,0 l/m 0,0 km/h (0 Bft) N 0 0 min 0,5 UV-I 98 W/m -1,3 C -0,5 C 0,0 km/h (0 Bft)
13.02.2023 09:25 -0,4 C 0,6 C 94 % 1038,8 hPa 0,0 l/m 0,0 km/h (0 Bft) N 0 0 min 0,5 UV-I 70 W/m -1,2 C -0,4 C 0,0 km/h (0 Bft)
13.02.2023 09:26 -0,4 C 0,6 C 94 % 1039,0 hPa 0,0 l/m 0,0 km/h (0 Bft) N 0 0 min 0,5 UV-I 92 W/m -1,2 C -0,4 C 0,0 km/h (0 Bft)
13.02.2023 09:27 -0,4 C 0,6 C 94 % 1039,0 hPa 0,0 l/m 0,0 km/h (0 Bft) N 0 0 min 0,5 UV-I 84 W/m -1,2 C -0,4 C 0,0 km/h (0 Bft)
13.02.2023 09:28 -0,4 C 0,6 C 94 % 1038,9 hPa 0,0 l/m 0,0 km/h (0 Bft) N 0 0 min 0,5 UV-I 114 W/m -1,2 C -0,4 C 0,0 km/h (0 Bft)
13.02.2023 09:29 -0,3 C 1,1 C 94 % 1039,0 hPa 0,0 l/m 0,0 km/h (0 Bft) N 0 0 min 0,5 UV-I 84 W/m -1,1 C -0,3 C 0,0 km/h (0 Bft)
13.02.2023 09:30 -0,3 C 1,1 C 94 % 1039,0 hPa 0,0 l/m 0,0 km/h (0 Bft) N 0 0 min 0,5 UV-I 77 W/m -1,1 C -0,3 C 0,0 km/h (0 Bft)
13.02.2023 09:31 -0,3 C 1,1 C 94 % 1039,0 hPa 0,0 l/m 0,0 km/h (0 Bft) N 0 0 min 0,5 UV-I 111 W/m -1,1 C -0,3 C 0,0 km/h (0 Bft)
13.02.2023 09:32 -0,3 C 1,1 C 94 % 1038,9 hPa 0,0 l/m 0,0 km/h (0 Bft) N 0 0 min 0,5 UV-I 100 W/m -1,1 C -0,3 C 0,0 km/h (0 Bft)
13.02.2023 09:33 -0,3 C 1,1 C 94 % 1039,0 hPa 0,0 l/m 0,0 km/h (0 Bft) N 0 0 min 0,5 UV-I 102 W/m -1,1 C -0,3 C 0,0 km/h (0 Bft)
13.02.2023 09:34 -0,2 C 1,1 C 94 % 1039,1 hPa 0,0 l/m 0,0 km/h (0 Bft) N 0 0 min 0,6 UV-I 116 W/m -1,0 C -0,2 C 0,0 km/h (0 Bft)
13.02.2023 09:35 -0,1 C 1,7 C 94 % 1039,0 hPa 0,0 l/m 0,0 km/h (0 Bft) N 0 0 min 0,6 UV-I 123 W/m -0,9 C -0,1 C 0,0 km/h (0 Bft)
13.02.2023 09:36 -0,1 C 2,2 C 94 % 1039,0 hPa 0,0 l/m 0,0 km/h (0 Bft) N 0 0 min 0,6 UV-I 107 W/m -0,9 C -0,1 C 0,0 km/h (0 Bft)
13.02.2023 09:37 -0,1 C 2,2 C 94 % 1039,0 hPa 0,0 l/m 0,0 km/h (0 Bft) N 0 0 min 0,6 UV-I 116 W/m -0,9 C -0,1 C 0,0 km/h (0 Bft)
13.02.2023 09:38 -0,1 C 1,7 C 94 % 1039,0 hPa 0,0 l/m 0,0 km/h (0 Bft) N 0 0 min 0,6 UV-I 113 W/m -0,9 C -0,1 C 0,0 km/h (0 Bft)
13.02.2023 09:39 -0,1 C 1,7 C 94 % 1038,9 hPa 0,0 l/m 0,0 km/h (0 Bft) NO 45 0 min 0,6 UV-I 113 W/m -0,9 C -0,1 C 1,6 km/h (1 Bft)
13.02.2023 09:40 0,0 C 2,2 C 94 % 1039,0 hPa 0,0 l/m 0,0 km/h (0 Bft) NO 45 0 min 0,6 UV-I 132 W/m -0,8 C 0,0 C 1,6 km/h (1 Bft)
13.02.2023 09:41 0,0 C 2,8 C 94 % 1039,0 hPa 0,0 l/m 0,0 km/h (0 Bft) N 0 0 min 0,6 UV-I 123 W/m -0,8 C 0,0 C 0,0 km/h (0 Bft)
13.02.2023 09:42 0,0 C 2,8 C 94 % 1039,0 hPa 0,0 l/m 0,0 km/h (0 Bft) N 0 0 min 0,6 UV-I 139 W/m -0,8 C 0,0 C 0,0 km/h (0 Bft)
13.02.2023 09:43 -0,1 C 2,8 C 94 % 1038,9 hPa 0,0 l/m 0,0 km/h (0 Bft) N 0 0 min 0,7 UV-I 152 W/m -0,9 C -0,1 C 0,0 km/h (0 Bft)
13.02.2023 09:44 -0,1 C 2,2 C 94 % 1039,0 hPa 0,0 l/m 0,0 km/h (0 Bft) N 0 0 min 0,6 UV-I 123 W/m -0,9 C -0,1 C 0,0 km/h (0 Bft)
13.02.2023 09:45 -0,1 C 2,8 C 94 % 1039,0 hPa 0,0 l/m 0,0 km/h (0 Bft) N 0 0 min 0,7 UV-I 149 W/m -0,9 C -0,1 C 0,0 km/h (0 Bft)
13.02.2023 09:46 0,0 C 2,8 C 94 % 1039,0 hPa 0,0 l/m 0,0 km/h (0 Bft) N 0 0 min 0,6 UV-I 123 W/m -0,8 C 0,0 C 0,0 km/h (0 Bft)
13.02.2023 09:47 0,1 C 2,8 C 94 % 1039,1 hPa 0,0 l/m 0,0 km/h (0 Bft) N 0 0 min 0,7 UV-I 137 W/m -0,7 C 0,1 C 0,0 km/h (0 Bft)
13.02.2023 09:48 0,1 C 2,8 C 94 % 1039,0 hPa 0,0 l/m 0,0 km/h (0 Bft) N 0 0 min 0,7 UV-I 158 W/m -0,7 C 0,1 C 0,0 km/h (0 Bft)
13.02.2023 09:51 0,3 C 3,3 C 94 % 1039,1 hPa 0,0 l/m 0,0 km/h (0 Bft) NO 42 0 min 0,7 UV-I 143 W/m -0,5 C 0,3 C 0,0 km/h (0 Bft)
13.02.2023 09:54 0,5 C 3,9 C 94 % 1039,0 hPa 0,0 l/m 0,0 km/h (0 Bft) NO 42 0 min 0,7 UV-I 155 W/m -0,4 C 0,5 C 0,0 km/h (0 Bft)
13.02.2023 09:57 0,7 C 3,9 C 95 % 1039,0 hPa 0,0 l/m 0,0 km/h (0 Bft) NO 42 0 min 0,8 UV-I 171 W/m -0,0 C 0,7 C 0,0 km/h (0 Bft)
13.02.2023 10:00 1,0 C 5,6 C 95 % 1039,0 hPa 0,0 l/m 0,0 km/h (0 Bft) NO 42 0 min 0,8 UV-I 164 W/m 0,3 C 1,0 C 0,0 km/h (0 Bft)
13.02.2023 10:03 1,3 C 6,1 C 95 % 1038,9 hPa 0,0 l/m 0,0 km/h (0 Bft) NO 42 0 min 0,8 UV-I 170 W/m 0,6 C 1,3 C 0,0 km/h (0 Bft)
13.02.2023 10:06 1,4 C 6,1 C 95 % 1038,9 hPa 0,0 l/m 0,0 km/h (0 Bft) NO 42 0 min 0,8 UV-I 172 W/m 0,7 C 1,4 C 0,0 km/h (0 Bft)
13.02.2023 10:09 1,4 C 6,7 C 95 % 1039,0 hPa 0,0 l/m 0,0 km/h (0 Bft) NO 42 0 min 0,9 UV-I 185 W/m 0,7 C 1,4 C 0,0 km/h (0 Bft)
13.02.2023 10:12 1,8 C 7,8 C 95 % 1039,0 hPa 0,0 l/m 0,0 km/h (0 Bft) NO 42 3 min 1,0 UV-I 260 W/m 1,1 C 1,8 C 0,0 km/h (0 Bft)
13.02.2023 10:15 2,4 C 9,4 C 95 % 1038,9 hPa 0,0 l/m 0,0 km/h (0 Bft) NO 42 3 min 1,0 UV-I 252 W/m 1,7 C 2,4 C 0,0 km/h (0 Bft)
13.02.2023 10:18 2,8 C 11,7 C 95 % 1038,9 hPa 0,0 l/m 0,0 km/h (0 Bft) NO 42 3 min 1,1 UV-I 270 W/m 2,1 C 2,8 C 0,0 km/h (0 Bft)
13.02.2023 10:21 2,9 C 12,8 C 95 % 1038,9 hPa 0,0 l/m 0,0 km/h (0 Bft) NO 42 3 min 1,1 UV-I 276 W/m 2,2 C 2,9 C 0,0 km/h (0 Bft)
13.02.2023 10:24 3,2 C 12,2 C 95 % 1038,9 hPa 0,0 l/m 0,0 km/h (0 Bft) NO 42 3 min 1,2 UV-I 281 W/m 2,5 C 3,2 C 1,6 km/h (1 Bft)
13.02.2023 10:27 3,4 C 12,2 C 95 % 1038,9 hPa 0,0 l/m 0,0 km/h (0 Bft) NO 42 3 min 1,2 UV-I 289 W/m 2,7 C 3,4 C 0,0 km/h (0 Bft)
13.02.2023 10:30 3,6 C 13,3 C 95 % 1038,9 hPa 0,0 l/m 0,0 km/h (0 Bft) NO 42 3 min 1,3 UV-I 294 W/m 2,9 C 3,6 C 0,0 km/h (0 Bft)
13.02.2023 10:33 3,9 C 13,3 C 95 % 1038,9 hPa 0,0 l/m 0,2 km/h (0 Bft) NO 42 3 min 1,3 UV-I 300 W/m 3,2 C 3,9 C 3,2 km/h (1 Bft)
13.02.2023 10:36 4,1 C 14,4 C 95 % 1038,9 hPa 0,0 l/m 2,0 km/h (1 Bft) NO 42 3 min 1,3 UV-I 305 W/m 3,4 C 4,1 C 4,8 km/h (1 Bft)
13.02.2023 10:39 4,2 C 15,0 C 95 % 1038,9 hPa 0,0 l/m 3,2 km/h (1 Bft) NO 40 3 min 1,4 UV-I 311 W/m 3,5 C 4,2 C 4,8 km/h (1 Bft)
13.02.2023 10:42 4,3 C 15,6 C 95 % 1039,0 hPa 0,0 l/m 2,9 km/h (1 Bft) NO 38 3 min 1,4 UV-I 320 W/m 3,6 C 4,3 C 4,8 km/h (1 Bft)
13.02.2023 10:45 4,4 C 15,6 C 95 % 1039,1 hPa 0,0 l/m 2,5 km/h (1 Bft) NO 36 3 min 1,4 UV-I 329 W/m 3,7 C 4,4 C 6,4 km/h (2 Bft)
13.02.2023 10:48 4,8 C 16,1 C 95 % 1039,1 hPa 0,0 l/m 2,3 km/h (1 Bft) NO 36 3 min 1,5 UV-I 338 W/m 4,1 C 4,8 C 4,8 km/h (1 Bft)
13.02.2023 10:51 5,1 C 16,1 C 95 % 1039,0 hPa 0,0 l/m 1,2 km/h (1 Bft) NO 36 3 min 1,5 UV-I 344 W/m 4,4 C 5,1 C 4,8 km/h (1 Bft)
13.02.2023 10:54 5,3 C 16,7 C 95 % 1039,0 hPa 0,0 l/m 2,8 km/h (1 Bft) NO 35 3 min 1,5 UV-I 350 W/m 4,6 C 5,3 C 4,8 km/h (1 Bft)
13.02.2023 10:57 5,4 C 16,7 C 94 % 1039,0 hPa 0,0 l/m 3,3 km/h (1 Bft) NO 39 3 min 1,6 UV-I 355 W/m 4,5 C 5,4 C 6,4 km/h (2 Bft)
13.02.2023 11:00 5,5 C 16,1 C 94 % 1039,0 hPa 0,0 l/m 3,8 km/h (1 Bft) NO 39 3 min 1,6 UV-I 359 W/m 4,6 C 5,5 C 6,4 km/h (2 Bft)
13.02.2023 11:03 5,7 C 16,1 C 94 % 1039,1 hPa 0,0 l/m 2,1 km/h (1 Bft) NO 40 3 min 1,7 UV-I 362 W/m 4,8 C 5,7 C 4,8 km/h (1 Bft)
13.02.2023 11:06 5,9 C 17,2 C 93 % 1039,1 hPa 0,0 l/m 2,7 km/h (1 Bft) NO 39 3 min 1,7 UV-I 368 W/m 4,9 C 5,9 C 6,4 km/h (2 Bft)
13.02.2023 11:09 6,1 C 17,8 C 93 % 1039,0 hPa 0,0 l/m 3,6 km/h (1 Bft) NO 38 3 min 1,7 UV-I 372 W/m 5,1 C 6,1 C 4,8 km/h (1 Bft)
13.02.2023 11:12 6,3 C 18,3 C 92 % 1039,0 hPa 0,0 l/m 3,7 km/h (1 Bft) NO 39 3 min 1,8 UV-I 377 W/m 5,1 C 6,3 C 6,4 km/h (2 Bft)
13.02.2023 11:15 6,3 C 18,3 C 92 % 1039,0 hPa 0,0 l/m 4,1 km/h (1 Bft) NO 39 3 min 1,8 UV-I 383 W/m 5,1 C 6,3 C 6,4 km/h (2 Bft)
13.02.2023 11:18 6,5 C 18,3 C 92 % 1039,1 hPa 0,0 l/m 5,7 km/h (1 Bft) NO 42 3 min 1,8 UV-I 387 W/m 5,3 C 6,5 C 8,0 km/h (2 Bft)
13.02.2023 11:21 6,7 C 18,9 C 91 % 1039,0 hPa 0,0 l/m 5,9 km/h (2 Bft) NO 35 3 min 1,8 UV-I 392 W/m 5,3 C 6,7 C 8,0 km/h (2 Bft)
13.02.2023 11:24 7,2 C 19,4 C 91 % 1039,1 hPa 0,0 l/m 4,5 km/h (1 Bft) NO 36 3 min 1,9 UV-I 395 W/m 5,8 C 7,2 C 6,4 km/h (2 Bft)
13.02.2023 11:27 7,4 C 20,0 C 90 % 1039,1 hPa 0,0 l/m 4,5 km/h (1 Bft) NO 35 3 min 1,9 UV-I 399 W/m 5,9 C 7,4 C 6,4 km/h (2 Bft)
13.02.2023 11:30 7,8 C 20,0 C 89 % 1039,1 hPa 0,0 l/m 4,7 km/h (1 Bft) NO 41 3 min 1,9 UV-I 402 W/m 6,1 C 7,8 C 8,0 km/h (2 Bft)
13.02.2023 11:33 7,9 C 20,6 C 87 % 1039,1 hPa 0,0 l/m 5,0 km/h (1 Bft) NO 34 3 min 1,9 UV-I 406 W/m 5,9 C 7,9 C 8,0 km/h (2 Bft)
13.02.2023 11:36 8,1 C 20,6 C 85 % 1039,1 hPa 0,0 l/m 5,1 km/h (1 Bft) N-NO 27 3 min 2,0 UV-I 410 W/m 5,7 C 8,1 C 8,0 km/h (2 Bft)
13.02.2023 11:39 8,2 C 20,6 C 84 % 1039,0 hPa 0,0 l/m 5,3 km/h (1 Bft) N-NO 31 3 min 2,0 UV-I 412 W/m 5,7 C 8,2 C 6,4 km/h (2 Bft)
13.02.2023 11:42 8,2 C 20,0 C 83 % 1039,0 hPa 0,0 l/m 5,4 km/h (1 Bft) N-NO 32 3 min 2,0 UV-I 417 W/m 5,5 C 8,2 C 6,4 km/h (2 Bft)
13.02.2023 11:45 8,5 C 20,6 C 82 % 1038,9 hPa 0,0 l/m 5,1 km/h (1 Bft) N-NO 29 3 min 2,0 UV-I 420 W/m 5,6 C 8,5 C 6,4 km/h (2 Bft)
13.02.2023 11:48 8,8 C 21,7 C 81 % 1038,9 hPa 0,0 l/m 6,4 km/h (2 Bft) N-NO 26 3 min 2,1 UV-I 422 W/m 5,7 C 8,8 C 8,0 km/h (2 Bft)
13.02.2023 11:51 8,9 C 21,7 C 81 % 1038,9 hPa 0,0 l/m 6,8 km/h (2 Bft) N-NO 25 3 min 2,1 UV-I 425 W/m 5,8 C 8,6 C 9,7 km/h (2 Bft)
13.02.2023 11:54 9,2 C 22,2 C 80 % 1038,8 hPa 0,0 l/m 5,4 km/h (1 Bft) N-NO 22 3 min 2,1 UV-I 428 W/m 5,9 C 9,2 C 8,0 km/h (2 Bft)
13.02.2023 11:57 9,3 C 22,2 C 80 % 1038,8 hPa 0,0 l/m 5,5 km/h (1 Bft) N-NO 16 3 min 2,1 UV-I 430 W/m 6,0 C 9,3 C 8,0 km/h (2 Bft)
13.02.2023 12:00 9,4 C 22,8 C 79 % 1038,8 hPa 0,0 l/m 4,7 km/h (1 Bft) N 9 3 min 2,1 UV-I 432 W/m 5,9 C 9,4 C 6,4 km/h (2 Bft)
13.02.2023 12:03 9,8 C 23,3 C 79 % 1038,7 hPa 0,0 l/m 4,1 km/h (1 Bft) N 360 3 min 2,2 UV-I 435 W/m 6,3 C 9,8 C 8,0 km/h (2 Bft)
13.02.2023 12:06 10,1 C 22,2 C 77 % 1038,7 hPa 0,0 l/m 5,1 km/h (1 Bft) N 360 3 min 2,2 UV-I 438 W/m 6,3 C 10,1 C 6,4 km/h (2 Bft)
13.02.2023 12:09 10,1 C 23,3 C 76 % 1038,7 hPa 0,0 l/m 5,1 km/h (1 Bft) N 5 3 min 2,2 UV-I 439 W/m 6,1 C 10,1 C 6,4 km/h (2 Bft)
13.02.2023 12:12 10,2 C 23,3 C 76 % 1038,7 hPa 0,0 l/m 5,2 km/h (1 Bft) N 10 3 min 2,2 UV-I 440 W/m 6,2 C 10,2 C 6,4 km/h (2 Bft)
13.02.2023 12:15 10,2 C 23,3 C 76 % 1038,6 hPa 0,0 l/m 5,3 km/h (1 Bft) N 11 3 min 2,2 UV-I 443 W/m 6,2 C 10,2 C 6,4 km/h (2 Bft)
13.02.2023 12:18 10,4 C 23,3 C 75 % 1038,6 hPa 0,0 l/m 5,6 km/h (1 Bft) N-NO 15 3 min 2,2 UV-I 444 W/m 6,2 C 10,4 C 8,0 km/h (2 Bft)
13.02.2023 12:21 10,6 C 23,9 C 76 % 1038,7 hPa 0,0 l/m 3,0 km/h (1 Bft) N-NO 15 3 min 2,2 UV-I 446 W/m 6,5 C 10,6 C 6,4 km/h (2 Bft)
13.02.2023 12:24 10,7 C 23,9 C 73 % 1038,6 hPa 0,0 l/m 4,9 km/h (1 Bft) N 9 3 min 2,3 UV-I 447 W/m 6,1 C 10,7 C 8,0 km/h (2 Bft)
13.02.2023 12:27 10,9 C 23,9 C 73 % 1038,6 hPa 0,0 l/m 5,4 km/h (1 Bft) N-NO 17 3 min 2,3 UV-I 449 W/m 6,3 C 10,9 C 8,0 km/h (2 Bft)
13.02.2023 12:30 11,2 C 24,4 C 72 % 1038,6 hPa 0,0 l/m 5,2 km/h (1 Bft) N-NO 18 3 min 2,3 UV-I 452 W/m 6,3 C 11,2 C 8,0 km/h (2 Bft)
13.02.2023 12:33 11,1 C 23,9 C 71 % 1038,4 hPa 0,0 l/m 5,8 km/h (2 Bft) N-NO 22 3 min 2,3 UV-I 454 W/m 6,0 C 11,1 C 8,0 km/h (2 Bft)
13.02.2023 12:36 11,2 C 23,3 C 70 % 1038,3 hPa 0,0 l/m 7,4 km/h (2 Bft) N-NO 30 3 min 2,3 UV-I 454 W/m 5,9 C 10,5 C 9,7 km/h (2 Bft)
13.02.2023 12:39 11,1 C 23,3 C 71 % 1038,3 hPa 0,0 l/m 7,3 km/h (2 Bft) N-NO 32 3 min 2,3 UV-I 453 W/m 6,0 C 10,5 C 9,7 km/h (2 Bft)
13.02.2023 12:42 11,2 C 23,3 C 70 % 1038,2 hPa 0,0 l/m 7,1 km/h (2 Bft) N-NO 32 3 min 2,3 UV-I 454 W/m 5,9 C 10,7 C 8,0 km/h (2 Bft)
13.02.2023 12:45 11,2 C 23,3 C 70 % 1038,3 hPa 0,0 l/m 8,3 km/h (2 Bft) N-NO 16 3 min 2,3 UV-I 455 W/m 5,9 C 9,9 C 12,9 km/h (3 Bft)
13.02.2023 12:48 11,3 C 24,4 C 71 % 1038,4 hPa 0,0 l/m 6,8 km/h (2 Bft) NO 34 3 min 2,3 UV-I 456 W/m 6,2 C 11,0 C 11,3 km/h (2 Bft)
13.02.2023 12:51 11,2 C 23,3 C 70 % 1038,3 hPa 0,0 l/m 7,5 km/h (2 Bft) N-NO 28 3 min 2,3 UV-I 456 W/m 5,9 C 10,4 C 9,7 km/h (2 Bft)
13.02.2023 12:54 11,3 C 23,9 C 70 % 1038,5 hPa 0,0 l/m 8,0 km/h (2 Bft) NO 37 3 min 2,3 UV-I 457 W/m 6,0 C 10,2 C 12,9 km/h (3 Bft)
13.02.2023 12:57 11,4 C 23,3 C 69 % 1038,3 hPa 0,0 l/m 7,1 km/h (2 Bft) NO 48 3 min 2,3 UV-I 456 W/m 5,9 C 10,9 C 9,7 km/h (2 Bft)
13.02.2023 13:00 11,4 C 23,9 C 68 % 1038,4 hPa 0,0 l/m 6,7 km/h (2 Bft) NO 49 3 min 2,3 UV-I 457 W/m 5,7 C 11,2 C 11,3 km/h (2 Bft)
13.02.2023 13:03 11,8 C 24,4 C 68 % 1038,3 hPa 0,0 l/m 6,1 km/h (2 Bft) NO 43 3 min 2,3 UV-I 457 W/m 6,1 C 11,8 C 9,7 km/h (2 Bft)
13.02.2023 13:06 11,8 C 23,9 C 67 % 1038,3 hPa 0,0 l/m 8,0 km/h (2 Bft) O-NO 61 3 min 2,3 UV-I 457 W/m 5,9 C 10,7 C 12,9 km/h (3 Bft)
13.02.2023 13:09 11,8 C 23,3 C 66 % 1038,2 hPa 0,0 l/m 7,7 km/h (2 Bft) N-NO 28 3 min 2,3 UV-I 457 W/m 5,7 C 10,9 C 11,3 km/h (2 Bft)
13.02.2023 13:12 11,9 C 24,4 C 67 % 1038,0 hPa 0,0 l/m 4,8 km/h (1 Bft) N-NO 25 3 min 2,3 UV-I 458 W/m 6,0 C 11,9 C 8,0 km/h (2 Bft)
13.02.2023 13:15 12,0 C 23,3 C 65 % 1038,1 hPa 0,0 l/m 4,6 km/h (1 Bft) NO 46 3 min 2,3 UV-I 457 W/m 5,6 C 12,0 C 6,4 km/h (2 Bft)
13.02.2023 13:18 12,0 C 22,2 C 64 % 1038,1 hPa 0,0 l/m 3,3 km/h (1 Bft) O 86 3 min 2,3 UV-I 457 W/m 5,4 C 12,0 C 6,4 km/h (2 Bft)
13.02.2023 13:21 11,9 C 22,2 C 64 % 1038,0 hPa 0,0 l/m 3,2 km/h (1 Bft) O 83 3 min 2,3 UV-I 458 W/m 5,3 C 11,9 C 6,4 km/h (2 Bft)
13.02.2023 13:24 12,1 C 23,3 C 62 % 1038,0 hPa 0,0 l/m 3,2 km/h (1 Bft) O 86 3 min 2,3 UV-I 456 W/m 5,0 C 12,1 C 6,4 km/h (2 Bft)
13.02.2023 13:27 12,1 C 21,1 C 59 % 1038,0 hPa 0,0 l/m 8,9 km/h (2 Bft) O-SO 123 3 min 2,2 UV-I 456 W/m 4,3 C 10,5 C 14,5 km/h (3 Bft)
13.02.2023 13:30 12,3 C 20,0 C 60 % 1038,1 hPa 0,0 l/m 9,1 km/h (2 Bft) SO 127 3 min 2,2 UV-I 455 W/m 4,8 C 10,6 C 14,5 km/h (3 Bft)
13.02.2023 13:33 12,5 C 20,6 C 60 % 1038,0 hPa 0,0 l/m 6,9 km/h (2 Bft) S-SO 166 3 min 2,2 UV-I 454 W/m 5,0 C 12,2 C 14,5 km/h (3 Bft)
13.02.2023 13:36 12,5 C 18,9 C 59 % 1037,9 hPa 0,0 l/m 10,1 km/h (2 Bft) SO 135 3 min 2,2 UV-I 453 W/m 4,7 C 10,3 C 17,7 km/h (3 Bft)
13.02.2023 13:39 12,4 C 20,0 C 59 % 1037,9 hPa 0,0 l/m 9,8 km/h (2 Bft) S-SO 152 3 min 2,2 UV-I 451 W/m 4,6 C 10,4 C 16,1 km/h (3 Bft)
13.02.2023 13:42 12,2 C 18,9 C 58 % 1037,8 hPa 0,0 l/m 12,4 km/h (3 Bft) S-SO 158 3 min 2,2 UV-I 448 W/m 4,2 C 8,9 C 19,3 km/h (3 Bft)
13.02.2023 13:45 12,2 C 19,4 C 58 % 1038,0 hPa 0,0 l/m 8,0 km/h (2 Bft) S-SO 149 3 min 2,2 UV-I 446 W/m 4,2 C 11,2 C 12,9 km/h (3 Bft)
13.02.2023 13:48 12,3 C 19,4 C 59 % 1037,8 hPa 0,0 l/m 9,4 km/h (2 Bft) S-SO 167 3 min 2,2 UV-I 443 W/m 4,5 C 10,5 C 17,7 km/h (3 Bft)
13.02.2023 13:51 12,4 C 19,4 C 59 % 1037,8 hPa 0,0 l/m 10,8 km/h (2 Bft) S-SO 159 3 min 2,1 UV-I 441 W/m 4,6 C 9,8 C 17,7 km/h (3 Bft)
13.02.2023 13:54 12,3 C 18,9 C 59 % 1037,8 hPa 0,0 l/m 11,2 km/h (2 Bft) S-SO 163 3 min 2,1 UV-I 439 W/m 4,5 C 9,5 C 16,1 km/h (3 Bft)
13.02.2023 13:57 12,2 C 19,4 C 59 % 1037,8 hPa 0,0 l/m 8,9 km/h (2 Bft) S-SO 160 3 min 2,1 UV-I 436 W/m 4,4 C 10,6 C 12,9 km/h (3 Bft)
13.02.2023 14:00 12,5 C 20,0 C 59 % 1037,8 hPa 0,0 l/m 8,2 km/h (2 Bft) S-SO 151 3 min 2,1 UV-I 433 W/m 4,7 C 11,4 C 12,9 km/h (3 Bft)
13.02.2023 14:03 12,4 C 20,0 C 59 % 1037,7 hPa 0,0 l/m 9,5 km/h (2 Bft) S 184 3 min 2,0 UV-I 431 W/m 4,6 C 10,5 C 14,5 km/h (3 Bft)
13.02.2023 14:06 12,4 C 20,6 C 59 % 1037,8 hPa 0,0 l/m 6,9 km/h (2 Bft) S-SO 166 3 min 2,0 UV-I 428 W/m 4,6 C 12,1 C 11,3 km/h (2 Bft)
13.02.2023 14:09 12,4 C 20,0 C 59 % 1037,7 hPa 0,0 l/m 8,0 km/h (2 Bft) S-SO 153 3 min 2,0 UV-I 425 W/m 4,6 C 11,4 C 12,9 km/h (3 Bft)
13.02.2023 14:12 12,7 C 20,6 C 60 % 1037,6 hPa 0,0 l/m 6,0 km/h (2 Bft) S-SO 147 3 min 2,0 UV-I 422 W/m 5,1 C 12,7 C 9,7 km/h (2 Bft)
13.02.2023 14:15 12,6 C 20,6 C 58 % 1037,6 hPa 0,0 l/m 7,2 km/h (2 Bft) SO 141 3 min 2,0 UV-I 419 W/m 4,6 C 12,1 C 9,7 km/h (2 Bft)
13.02.2023 14:18 12,6 C 20,0 C 59 % 1037,6 hPa 0,0 l/m 6,8 km/h (2 Bft) S-SO 161 3 min 1,9 UV-I 416 W/m 4,8 C 12,4 C 12,9 km/h (3 Bft)
13.02.2023 14:21 12,4 C 19,4 C 60 % 1037,5 hPa 0,0 l/m 7,7 km/h (2 Bft) S 182 3 min 1,9 UV-I 412 W/m 4,9 C 11,6 C 11,3 km/h (2 Bft)
13.02.2023 14:24 12,7 C 19,4 C 60 % 1037,6 hPa 0,0 l/m 6,6 km/h (2 Bft) S-SO 151 3 min 1,9 UV-I 409 W/m 5,1 C 12,6 C 11,3 km/h (2 Bft)
13.02.2023 14:27 12,7 C 20,6 C 60 % 1037,6 hPa 0,0 l/m 7,1 km/h (2 Bft) S 191 3 min 1,8 UV-I 405 W/m 5,1 C 12,3 C 11,3 km/h (2 Bft)
13.02.2023 14:30 12,5 C 20,0 C 60 % 1037,5 hPa 0,0 l/m 8,6 km/h (2 Bft) S-SO 161 3 min 1,8 UV-I 402 W/m 5,0 C 11,1 C 12,9 km/h (3 Bft)
13.02.2023 14:33 12,6 C 20,6 C 60 % 1037,5 hPa 0,0 l/m 7,5 km/h (2 Bft) SO 141 3 min 1,8 UV-I 397 W/m 5,0 C 11,9 C 11,3 km/h (2 Bft)
13.02.2023 14:36 12,6 C 20,0 C 60 % 1037,5 hPa 0,0 l/m 7,4 km/h (2 Bft) SO 135 3 min 1,7 UV-I 393 W/m 5,0 C 12,0 C 12,9 km/h (3 Bft)
13.02.2023 14:39 12,5 C 19,4 C 59 % 1037,5 hPa 0,0 l/m 8,7 km/h (2 Bft) O 101 3 min 1,7 UV-I 389 W/m 4,7 C 11,1 C 14,5 km/h (3 Bft)
13.02.2023 14:42 12,4 C 20,0 C 58 % 1037,5 hPa 0,0 l/m 7,4 km/h (2 Bft) SO 127 3 min 1,7 UV-I 386 W/m 4,4 C 11,7 C 14,5 km/h (3 Bft)
13.02.2023 14:45 12,4 C 20,6 C 58 % 1037,5 hPa 0,0 l/m 7,7 km/h (2 Bft) SO 142 3 min 1,6 UV-I 381 W/m 4,4 C 11,6 C 14,5 km/h (3 Bft)
13.02.2023 14:48 12,5 C 20,6 C 57 % 1037,5 hPa 0,0 l/m 6,5 km/h (2 Bft) S-SO 163 3 min 1,6 UV-I 377 W/m 4,2 C 12,5 C 12,9 km/h (3 Bft)
13.02.2023 14:51 12,7 C 20,6 C 57 % 1037,4 hPa 0,0 l/m 6,9 km/h (2 Bft) S-SO 157 3 min 1,6 UV-I 373 W/m 4,4 C 12,4 C 11,3 km/h (2 Bft)
13.02.2023 14:54 12,7 C 20,6 C 58 % 1037,3 hPa 0,0 l/m 5,1 km/h (1 Bft) S-SO 159 3 min 1,6 UV-I 369 W/m 4,7 C 12,7 C 9,7 km/h (2 Bft)
13.02.2023 14:57 12,7 C 21,1 C 58 % 1037,3 hPa 0,0 l/m 6,4 km/h (2 Bft) SO 144 3 min 1,5 UV-I 364 W/m 4,7 C 12,7 C 11,3 km/h (2 Bft)
13.02.2023 15:00 12,8 C 21,7 C 57 % 1037,4 hPa 0,0 l/m 5,7 km/h (1 Bft) SO 141 3 min 1,5 UV-I 359 W/m 4,5 C 12,8 C 11,3 km/h (2 Bft)
13.02.2023 15:03 12,7 C 21,7 C 56 % 1037,3 hPa 0,0 l/m 4,9 km/h (1 Bft) O-SO 122 3 min 1,5 UV-I 354 W/m 4,2 C 12,7 C 8,0 km/h (2 Bft)
13.02.2023 15:06 12,7 C 22,2 C 58 % 1037,2 hPa 0,0 l/m 4,7 km/h (1 Bft) SO 134 3 min 1,4 UV-I 350 W/m 4,7 C 12,7 C 11,3 km/h (2 Bft)
13.02.2023 15:09 12,7 C 22,2 C 57 % 1037,3 hPa 0,0 l/m 6,0 km/h (2 Bft) O-SO 121 3 min 1,4 UV-I 344 W/m 4,4 C 12,7 C 12,9 km/h (3 Bft)
13.02.2023 15:12 12,6 C 21,7 C 57 % 1037,3 hPa 0,0 l/m 5,2 km/h (1 Bft) SO 125 3 min 1,4 UV-I 339 W/m 4,3 C 12,6 C 11,3 km/h (2 Bft)
13.02.2023 15:15 12,5 C 20,6 C 57 % 1037,3 hPa 0,0 l/m 5,0 km/h (1 Bft) O-SO 118 3 min 1,3 UV-I 335 W/m 4,2 C 12,5 C 9,7 km/h (2 Bft)
13.02.2023 15:18 12,5 C 21,7 C 58 % 1037,3 hPa 0,0 l/m 2,3 km/h (1 Bft) O-SO 120 3 min 1,3 UV-I 329 W/m 4,5 C 12,5 C 6,4 km/h (2 Bft)
13.02.2023 15:21 12,8 C 21,7 C 58 % 1037,3 hPa 0,0 l/m 1,8 km/h (1 Bft) O-SO 121 3 min 1,3 UV-I 323 W/m 4,7 C 12,8 C 6,4 km/h (2 Bft)
13.02.2023 15:24 12,8 C 21,7 C 56 % 1037,2 hPa 0,0 l/m 3,5 km/h (1 Bft) O-SO 117 3 min 1,2 UV-I 318 W/m 4,2 C 12,8 C 8,0 km/h (2 Bft)
13.02.2023 15:27 12,8 C 21,7 C 57 % 1037,2 hPa 0,0 l/m 3,4 km/h (1 Bft) O-SO 118 3 min 1,2 UV-I 312 W/m 4,5 C 12,8 C 6,4 km/h (2 Bft)
13.02.2023 15:30 12,6 C 20,0 C 58 % 1037,2 hPa 0,0 l/m 5,0 km/h (1 Bft) SO 134 3 min 1,2 UV-I 306 W/m 4,6 C 12,6 C 11,3 km/h (2 Bft)
13.02.2023 15:33 12,7 C 20,0 C 58 % 1037,2 hPa 0,0 l/m 5,9 km/h (2 Bft) S-SO 159 3 min 1,1 UV-I 301 W/m 4,7 C 12,7 C 11,3 km/h (2 Bft)
13.02.2023 15:36 12,9 C 20,6 C 58 % 1037,2 hPa 0,0 l/m 4,0 km/h (1 Bft) S-SO 158 3 min 1,1 UV-I 295 W/m 4,8 C 12,9 C 9,7 km/h (2 Bft)
13.02.2023 15:39 12,8 C 20,6 C 58 % 1037,2 hPa 0,0 l/m 3,4 km/h (1 Bft) S-SO 159 3 min 1,1 UV-I 288 W/m 4,7 C 12,8 C 8,0 km/h (2 Bft)
13.02.2023 15:42 12,8 C 20,0 C 57 % 1037,0 hPa 0,0 l/m 5,0 km/h (1 Bft) S-SO 161 3 min 1,0 UV-I 282 W/m 4,5 C 12,8 C 9,7 km/h (2 Bft)
13.02.2023 15:45 12,7 C 20,6 C 57 % 1037,1 hPa 0,0 l/m 5,6 km/h (1 Bft) S-SO 158 3 min 1,0 UV-I 275 W/m 4,4 C 12,7 C 8,0 km/h (2 Bft)
13.02.2023 15:48 12,7 C 20,0 C 57 % 1037,0 hPa 0,0 l/m 7,4 km/h (2 Bft) SO 144 3 min 0,9 UV-I 268 W/m 4,4 C 12,1 C 11,3 km/h (2 Bft)
13.02.2023 15:51 12,8 C 20,0 C 58 % 1037,0 hPa 0,0 l/m 5,8 km/h (2 Bft) S-SO 159 3 min 0,9 UV-I 262 W/m 4,7 C 12,8 C 9,7 km/h (2 Bft)
13.02.2023 15:54 12,7 C 20,0 C 57 % 1037,0 hPa 0,0 l/m 6,1 km/h (2 Bft) S-SO 156 3 min 0,9 UV-I 256 W/m 4,4 C 12,7 C 9,7 km/h (2 Bft)
13.02.2023 15:57 12,6 C 20,0 C 57 % 1036,9 hPa 0,0 l/m 5,3 km/h (1 Bft) S-SO 149 3 min 0,8 UV-I 249 W/m 4,3 C 12,6 C 9,7 km/h (2 Bft)
13.02.2023 16:00 12,4 C 17,8 C 58 % 1036,9 hPa 0,0 l/m 8,5 km/h (2 Bft) SO 128 0 min 0,8 UV-I 242 W/m 4,4 C 11,1 C 11,3 km/h (2 Bft)
13.02.2023 16:03 12,3 C 17,2 C 58 % 1036,9 hPa 0,0 l/m 5,8 km/h (2 Bft) SO 126 0 min 0,8 UV-I 234 W/m 4,3 C 12,3 C 11,3 km/h (2 Bft)
13.02.2023 16:06 12,4 C 18,3 C 58 % 1037,0 hPa 0,0 l/m 3,6 km/h (1 Bft) SO 127 0 min 0,7 UV-I 226 W/m 4,4 C 12,4 C 6,4 km/h (2 Bft)
13.02.2023 16:09 12,4 C 18,9 C 58 % 1036,9 hPa 0,0 l/m 4,8 km/h (1 Bft) S-SO 161 0 min 0,7 UV-I 218 W/m 4,4 C 12,4 C 8,0 km/h (2 Bft)
13.02.2023 16:12 12,6 C 15,6 C 59 % 1037,0 hPa 0,0 l/m 5,0 km/h (1 Bft) S-SO 160 0 min 0,7 UV-I 210 W/m 4,8 C 12,6 C 8,0 km/h (2 Bft)
13.02.2023 16:15 12,5 C 13,9 C 58 % 1037,0 hPa 0,0 l/m 4,8 km/h (1 Bft) S-SO 159 0 min 0,6 UV-I 202 W/m 4,5 C 12,5 C 8,0 km/h (2 Bft)
13.02.2023 16:18 12,5 C 14,4 C 58 % 1037,0 hPa 0,0 l/m 5,2 km/h (1 Bft) S-SO 162 0 min 0,6 UV-I 193 W/m 4,5 C 12,5 C 8,0 km/h (2 Bft)
13.02.2023 16:21 12,5 C 17,2 C 58 % 1037,0 hPa 0,0 l/m 6,7 km/h (2 Bft) S-SO 158 0 min 0,6 UV-I 184 W/m 4,5 C 12,3 C 11,3 km/h (2 Bft)
13.02.2023 16:24 12,4 C 18,3 C 59 % 1037,0 hPa 0,0 l/m 2,9 km/h (1 Bft) S-SO 158 0 min 0,6 UV-I 175 W/m 4,6 C 12,4 C 4,8 km/h (1 Bft)
13.02.2023 16:27 12,3 C 18,3 C 59 % 1037,0 hPa 0,0 l/m 4,9 km/h (1 Bft) S-SO 159 0 min 0,5 UV-I 166 W/m 4,5 C 12,3 C 9,7 km/h (2 Bft)
13.02.2023 16:30 12,1 C 18,9 C 59 % 1037,0 hPa 0,0 l/m 3,6 km/h (1 Bft) S-SO 158 0 min 0,5 UV-I 157 W/m 4,3 C 12,1 C 8,0 km/h (2 Bft)
13.02.2023 16:33 11,9 C 18,3 C 60 % 1037,0 hPa 0,0 l/m 5,7 km/h (1 Bft) SO 142 0 min 0,5 UV-I 148 W/m 4,4 C 11,9 C 9,7 km/h (2 Bft)
13.02.2023 16:36 11,8 C 18,3 C 61 % 1037,0 hPa 0,0 l/m 5,5 km/h (1 Bft) SO 136 0 min 0,1 UV-I 139 W/m 4,5 C 11,8 C 11,3 km/h (2 Bft)
13.02.2023 16:39 11,8 C 17,8 C 61 % 1036,9 hPa 0,0 l/m 4,0 km/h (1 Bft) SO 136 0 min 0,0 UV-I 131 W/m 4,5 C 11,8 C 6,4 km/h (2 Bft)
13.02.2023 16:42 11,8 C 17,2 C 61 % 1036,9 hPa 0,0 l/m 6,2 km/h (2 Bft) SO 128 0 min 0,0 UV-I 122 W/m 4,5 C 11,8 C 12,9 km/h (3 Bft)
13.02.2023 16:45 11,7 C 16,7 C 61 % 1037,0 hPa 0,0 l/m 5,9 km/h (2 Bft) O-SO 115 0 min 0,0 UV-I 114 W/m 4,4 C 11,7 C 9,7 km/h (2 Bft)
13.02.2023 16:48 11,7 C 16,7 C 61 % 1037,0 hPa 0,0 l/m 5,3 km/h (1 Bft) O-SO 114 0 min 0,0 UV-I 105 W/m 4,4 C 11,7 C 9,7 km/h (2 Bft)
13.02.2023 16:51 11,5 C 16,7 C 62 % 1037,0 hPa 0,0 l/m 3,8 km/h (1 Bft) O-SO 115 0 min 0,0 UV-I 96 W/m 4,5 C 11,5 C 6,4 km/h (2 Bft)
13.02.2023 16:54 11,5 C 17,8 C 62 % 1037,0 hPa 0,0 l/m 2,3 km/h (1 Bft) O-SO 111 0 min 0,0 UV-I 88 W/m 4,5 C 11,5 C 4,8 km/h (1 Bft)
13.02.2023 16:57 11,4 C 17,8 C 62 % 1037,0 hPa 0,0 l/m 4,4 km/h (1 Bft) O-SO 107 0 min 0,0 UV-I 80 W/m 4,4 C 11,4 C 11,3 km/h (2 Bft)
13.02.2023 17:00 11,3 C 16,1 C 62 % 1037,0 hPa 0,0 l/m 6,8 km/h (2 Bft) O 100 0 min 0,0 UV-I 73 W/m 4,3 C 11,0 C 12,9 km/h (3 Bft)
13.02.2023 17:03 11,2 C 16,1 C 63 % 1037,0 hPa 0,0 l/m 4,1 km/h (1 Bft) O 95 0 min 0,0 UV-I 65 W/m 4,4 C 11,2 C 9,7 km/h (2 Bft)
13.02.2023 17:06 11,1 C 16,1 C 63 % 1037,0 hPa 0,0 l/m 0,8 km/h (0 Bft) O 95 0 min 0,0 UV-I 58 W/m 4,3 C 11,1 C 3,2 km/h (1 Bft)
13.02.2023 17:09 10,9 C 16,1 C 64 % 1037,0 hPa 0,0 l/m 1,8 km/h (1 Bft) O 96 0 min 0,0 UV-I 51 W/m 4,4 C 10,9 C 6,4 km/h (2 Bft)
13.02.2023 17:12 10,8 C 13,3 C 64 % 1037,0 hPa 0,0 l/m 2,5 km/h (1 Bft) O 98 0 min 0,0 UV-I 45 W/m 4,3 C 10,8 C 4,8 km/h (1 Bft)
13.02.2023 17:15 10,6 C 10,6 C 65 % 1037,1 hPa 0,0 l/m 2,6 km/h (1 Bft) O 98 0 min 0,0 UV-I 39 W/m 4,3 C 10,6 C 4,8 km/h (1 Bft)
13.02.2023 17:18 10,3 C 9,4 C 66 % 1037,1 hPa 0,0 l/m 1,3 km/h (1 Bft) O 98 0 min 0,0 UV-I 34 W/m 4,2 C 10,3 C 4,8 km/h (1 Bft)
13.02.2023 17:21 10,3 C 7,8 C 66 % 1037,0 hPa 0,0 l/m 1,3 km/h (1 Bft) O 98 0 min 0,0 UV-I 28 W/m 4,2 C 10,3 C 3,2 km/h (1 Bft)
13.02.2023 17:24 10,1 C 7,8 C 66 % 1037,0 hPa 0,0 l/m 1,1 km/h (1 Bft) O 98 0 min 0,0 UV-I 21 W/m 4,0 C 10,1 C 3,2 km/h (1 Bft)
13.02.2023 17:27 9,8 C 6,7 C 67 % 1037,1 hPa 0,0 l/m 1,7 km/h (1 Bft) O 99 0 min 0,0 UV-I 13 W/m 4,0 C 9,8 C 4,8 km/h (1 Bft)
13.02.2023 17:30 9,5 C 6,7 C 67 % 1037,2 hPa 0,0 l/m 0,6 km/h (0 Bft) O 99 0 min 0,0 UV-I 12 W/m 3,7 C 9,5 C 1,6 km/h (1 Bft)
13.02.2023 17:33 9,2 C 6,1 C 68 % 1037,2 hPa 0,0 l/m 0,8 km/h (0 Bft) O 99 0 min 0,0 UV-I 11 W/m 3,6 C 9,2 C 4,8 km/h (1 Bft)
13.02.2023 17:36 9,1 C 5,6 C 69 % 1037,2 hPa 0,0 l/m 0,7 km/h (0 Bft) O 99 0 min 0,0 UV-I 10 W/m 3,7 C 9,1 C 3,2 km/h (1 Bft)
13.02.2023 17:39 8,9 C 5,6 C 69 % 1037,2 hPa 0,0 l/m 1,2 km/h (1 Bft) O 99 0 min 0,0 UV-I 9 W/m 3,5 C 8,9 C 3,2 km/h (1 Bft)
13.02.2023 17:42 8,8 C 5,0 C 70 % 1037,2 hPa 0,0 l/m 1,1 km/h (1 Bft) O 99 0 min 0,0 UV-I 7 W/m 3,6 C 8,8 C 3,2 km/h (1 Bft)
13.02.2023 17:45 8,6 C 5,0 C 70 % 1037,3 hPa 0,0 l/m 1,5 km/h (1 Bft) O 99 0 min 0,0 UV-I 6 W/m 3,4 C 8,6 C 3,2 km/h (1 Bft)
13.02.2023 17:48 8,4 C 5,0 C 71 % 1037,3 hPa 0,0 l/m 1,5 km/h (1 Bft) O 99 0 min 0,0 UV-I 5 W/m 3,5 C 8,4 C 3,2 km/h (1 Bft)
13.02.2023 17:51 8,3 C 4,4 C 71 % 1037,3 hPa 0,0 l/m 0,5 km/h (0 Bft) O 99 0 min 0,0 UV-I 4 W/m 3,4 C 8,3 C 1,6 km/h (1 Bft)
13.02.2023 17:54 8,2 C 4,4 C 71 % 1037,2 hPa 0,0 l/m 1,6 km/h (1 Bft) O 99 0 min 0,0 UV-I 0 W/m 3,3 C 8,2 C 3,2 km/h (1 Bft)
13.02.2023 17:57 8,0 C 3,9 C 72 % 1037,2 hPa 0,0 l/m 1,3 km/h (1 Bft) O 99 0 min 0,0 UV-I 0 W/m 3,3 C 8,0 C 3,2 km/h (1 Bft)
13.02.2023 18:00 7,8 C 3,9 C 72 % 1037,4 hPa 0,0 l/m 1,2 km/h (1 Bft) O 99 0 min 0,0 UV-I 0 W/m 3,1 C 7,8 C 3,2 km/h (1 Bft)
13.02.2023 18:03 7,6 C 3,9 C 73 % 1037,2 hPa 0,0 l/m 0,0 km/h (0 Bft) O 99 0 min 0,0 UV-I 0 W/m 3,1 C 7,6 C 1,6 km/h (1 Bft)
13.02.2023 18:06 7,4 C 3,3 C 73 % 1037,3 hPa 0,0 l/m 0,0 km/h (0 Bft) O 99 0 min 0,0 UV-I 0 W/m 2,9 C 7,4 C 0,0 km/h (0 Bft)
13.02.2023 18:09 7,3 C 3,3 C 73 % 1037,3 hPa 0,0 l/m 0,0 km/h (0 Bft) O 99 0 min 0,0 UV-I 0 W/m 2,8 C 7,3 C 0,0 km/h (0 Bft)
13.02.2023 18:12 7,2 C 3,3 C 74 % 1037,3 hPa 0,0 l/m 0,3 km/h (0 Bft) O 99 0 min 0,0 UV-I 0 W/m 2,9 C 7,2 C 1,6 km/h (1 Bft)
13.02.2023 18:15 7,2 C 3,3 C 74 % 1037,2 hPa 0,0 l/m 1,1 km/h (1 Bft) O 99 0 min 0,0 UV-I 0 W/m 2,9 C 7,2 C 3,2 km/h (1 Bft)
13.02.2023 18:18 7,1 C 3,3 C 75 % 1037,2 hPa 0,0 l/m 0,5 km/h (0 Bft) O 99 0 min 0,0 UV-I 0 W/m 3,0 C 7,1 C 1,6 km/h (1 Bft)
13.02.2023 18:21 7,2 C 3,3 C 74 % 1037,2 hPa 0,0 l/m 0,0 km/h (0 Bft) O 99 0 min 0,0 UV-I 0 W/m 2,9 C 7,2 C 1,6 km/h (1 Bft)
13.02.2023 18:24 7,1 C 2,8 C 75 % 1037,3 hPa 0,0 l/m 0,0 km/h (0 Bft) O 99 0 min 0,0 UV-I 0 W/m 3,0 C 7,1 C 0,0 km/h (0 Bft)
13.02.2023 18:27 6,9 C 2,8 C 74 % 1037,3 hPa 0,0 l/m 0,0 km/h (0 Bft) O 99 0 min 0,0 UV-I 0 W/m 2,6 C 6,9 C 0,0 km/h (0 Bft)
13.02.2023 18:30 6,3 C 2,8 C 76 % 1037,3 hPa 0,0 l/m 0,0 km/h (0 Bft) O 99 0 min 0,0 UV-I 0 W/m 2,4 C 6,3 C 0,0 km/h (0 Bft)
13.02.2023 18:33 6,0 C 2,2 C 76 % 1037,3 hPa 0,0 l/m 0,0 km/h (0 Bft) O 99 0 min 0,0 UV-I 0 W/m 2,1 C 6,0 C 0,0 km/h (0 Bft)
13.02.2023 18:36 5,6 C 2,2 C 77 % 1037,4 hPa 0,0 l/m 0,0 km/h (0 Bft) O 99 0 min 0,0 UV-I 0 W/m 1,9 C 5,6 C 0,0 km/h (0 Bft)
13.02.2023 18:39 5,3 C 1,7 C 78 % 1037,4 hPa 0,0 l/m 0,0 km/h (0 Bft) O 99 0 min 0,0 UV-I 0 W/m 1,8 C 5,3 C 0,0 km/h (0 Bft)
13.02.2023 18:42 5,0 C 1,7 C 79 % 1037,4 hPa 0,0 l/m 0,0 km/h (0 Bft) O 99 0 min 0,0 UV-I 0 W/m 1,7 C 5,0 C 0,0 km/h (0 Bft)
13.02.2023 18:45 4,8 C 1,7 C 80 % 1037,4 hPa 0,0 l/m 0,0 km/h (0 Bft) O 99 0 min 0,0 UV-I 0 W/m 1,6 C 4,8 C 0,0 km/h (0 Bft)
13.02.2023 18:48 4,6 C 1,7 C 80 % 1037,5 hPa 0,0 l/m 0,0 km/h (0 Bft) O 99 0 min 0,0 UV-I 0 W/m 1,5 C 4,6 C 0,0 km/h (0 Bft)
13.02.2023 18:51 4,6 C 1,7 C 81 % 1037,4 hPa 0,0 l/m 0,0 km/h (0 Bft) O 98 0 min 0,0 UV-I 0 W/m 1,6 C 4,6 C 0,0 km/h (0 Bft)
13.02.2023 18:54 4,6 C 1,7 C 81 % 1037,4 hPa 0,0 l/m 0,0 km/h (0 Bft) O 99 0 min 0,0 UV-I 0 W/m 1,6 C 4,6 C 0,0 km/h (0 Bft)
13.02.2023 18:57 4,4 C 1,1 C 81 % 1037,6 hPa 0,0 l/m 0,0 km/h (0 Bft) O 98 0 min 0,0 UV-I 0 W/m 1,4 C 4,4 C 0,0 km/h (0 Bft)
13.02.2023 19:00 4,1 C 1,1 C 81 % 1037,4 hPa 0,0 l/m 0,0 km/h (0 Bft) O 98 0 min 0,0 UV-I 0 W/m 1,1 C 4,1 C 0,0 km/h (0 Bft)
13.02.2023 19:03 3,9 C 1,1 C 82 % 1037,5 hPa 0,0 l/m 0,0 km/h (0 Bft) O 98 0 min 0,0 UV-I 0 W/m 1,1 C 3,9 C 0,0 km/h (0 Bft)
13.02.2023 19:06 3,8 C 0,6 C 83 % 1037,4 hPa 0,0 l/m 0,0 km/h (0 Bft) O 99 0 min 0,0 UV-I 0 W/m 1,2 C 3,8 C 0,0 km/h (0 Bft)
13.02.2023 19:09 3,8 C 0,6 C 83 % 1037,4 hPa 0,0 l/m 0,0 km/h (0 Bft) O 99 0 min 0,0 UV-I 0 W/m 1,2 C 3,8 C 0,0 km/h (0 Bft)
13.02.2023 19:12 3,8 C 0,6 C 83 % 1037,4 hPa 0,0 l/m 0,0 km/h (0 Bft) O 99 0 min 0,0 UV-I 0 W/m 1,2 C 3,8 C 0,0 km/h (0 Bft)
13.02.2023 19:15 3,6 C 0,6 C 83 % 1037,5 hPa 0,0 l/m 0,0 km/h (0 Bft) O 98 0 min 0,0 UV-I 0 W/m 1,0 C 3,6 C 0,0 km/h (0 Bft)
13.02.2023 19:18 3,4 C 1,1 C 83 % 1037,4 hPa 0,0 l/m 0,0 km/h (0 Bft) O 99 0 min 0,0 UV-I 0 W/m 0,8 C 3,4 C 0,0 km/h (0 Bft)
13.02.2023 19:21 3,4 C 0,6 C 84 % 1037,5 hPa 0,0 l/m 0,0 km/h (0 Bft) O 99 0 min 0,0 UV-I 0 W/m 1,0 C 3,4 C 0,0 km/h (0 Bft)
13.02.2023 19:24 3,4 C 0,6 C 84 % 1037,4 hPa 0,0 l/m 0,0 km/h (0 Bft) O 98 0 min 0,0 UV-I 0 W/m 1,0 C 3,4 C 0,0 km/h (0 Bft)
13.02.2023 19:27 3,2 C 0,6 C 84 % 1037,4 hPa 0,0 l/m 0,0 km/h (0 Bft) O 98 0 min 0,0 UV-I 0 W/m 0,8 C 3,2 C 0,0 km/h (0 Bft)
13.02.2023 19:30 3,2 C 0,6 C 85 % 1037,4 hPa 0,0 l/m 0,0 km/h (0 Bft) O 99 0 min 0,0 UV-I 0 W/m 0,9 C 3,2 C 0,0 km/h (0 Bft)
13.02.2023 19:33 3,3 C 0,6 C 84 % 1037,4 hPa 0,0 l/m 0,0 km/h (0 Bft) O 99 0 min 0,0 UV-I 0 W/m 0,9 C 3,3 C 0,0 km/h (0 Bft)
13.02.2023 19:36 2,9 C 0,0 C 84 % 1037,4 hPa 0,0 l/m 0,0 km/h (0 Bft) O 98 0 min 0,0 UV-I 0 W/m 0,5 C 2,9 C 0,0 km/h (0 Bft)
13.02.2023 19:39 2,6 C 0,0 C 84 % 1037,3 hPa 0,0 l/m 0,0 km/h (0 Bft) O 98 0 min 0,0 UV-I 0 W/m 0,2 C 2,6 C 0,0 km/h (0 Bft)
13.02.2023 19:42 2,3 C 0,0 C 85 % 1037,4 hPa 0,0 l/m 1,0 km/h (0 Bft) O 98 0 min 0,0 UV-I 0 W/m 0,0 C 2,3 C 3,2 km/h (1 Bft)
13.02.2023 19:45 2,3 C 0,0 C 85 % 1037,4 hPa 0,0 l/m 3,1 km/h (1 Bft) O 98 0 min 0,0 UV-I 0 W/m 0,0 C 2,3 C 4,8 km/h (1 Bft)
13.02.2023 19:48 2,2 C 0,0 C 85 % 1037,4 hPa 0,0 l/m 1,7 km/h (1 Bft) O 98 0 min 0,0 UV-I 0 W/m -0,1 C 2,2 C 3,2 km/h (1 Bft)
13.02.2023 19:51 2,1 C 0,0 C 86 % 1037,5 hPa 0,0 l/m 0,0 km/h (0 Bft) O 99 0 min 0,0 UV-I 0 W/m 0,0 C 2,1 C 1,6 km/h (1 Bft)
13.02.2023 19:54 2,1 C -0,6 C 86 % 1037,6 hPa 0,0 l/m 2,2 km/h (1 Bft) O 99 0 min 0,0 UV-I 0 W/m 0,0 C 2,1 C 3,2 km/h (1 Bft)
13.02.2023 19:57 2,4 C -0,6 C 87 % 1037,6 hPa 0,0 l/m 0,7 km/h (0 Bft) O 99 0 min 0,0 UV-I 0 W/m 0,5 C 2,4 C 1,6 km/h (1 Bft)
13.02.2023 20:00 2,4 C -0,6 C 86 % 1037,7 hPa 0,0 l/m 0,0 km/h (0 Bft) O 99 0 min 0,0 UV-I 0 W/m 0,3 C 2,4 C 0,0 km/h (0 Bft)
13.02.2023 20:01 2,4 C -0,6 C 86 % 1037,7 hPa 0,0 l/m 0,0 km/h (0 Bft) N 0 0 min 0,0 UV-I 0 W/m 0,3 C 2,4 C 0,0 km/h (0 Bft)
13.02.2023 20:02 2,3 C -0,6 C 86 % 1037,7 hPa 0,0 l/m 0,0 km/h (0 Bft) N 0 0 min 0,0 UV-I 0 W/m 0,2 C 2,3 C 0,0 km/h (0 Bft)
13.02.2023 20:03 2,2 C -0,6 C 86 % 1037,7 hPa 0,0 l/m 0,0 km/h (0 Bft) O 99 0 min 0,0 UV-I 0 W/m 0,1 C 2,2 C 0,0 km/h (0 Bft)
13.02.2023 20:04 2,1 C -0,6 C 86 % 1037,8 hPa 0,0 l/m 0,0 km/h (0 Bft) N 0 0 min 0,0 UV-I 0 W/m 0,0 C 2,1 C 0,0 km/h (0 Bft)
13.02.2023 20:05 1,9 C -0,6 C 86 % 1037,7 hPa 0,0 l/m 0,0 km/h (0 Bft) N 0 0 min 0,0 UV-I 0 W/m -0,2 C 1,9 C 0,0 km/h (0 Bft)
13.02.2023 20:06 1,9 C -0,6 C 86 % 1037,7 hPa 0,0 l/m 0,0 km/h (0 Bft) N 0 0 min 0,0 UV-I 0 W/m -0,2 C 1,9 C 0,0 km/h (0 Bft)
13.02.2023 20:07 1,9 C -0,6 C 86 % 1037,8 hPa 0,0 l/m 0,0 km/h (0 Bft) N 0 0 min 0,0 UV-I 0 W/m -0,2 C 1,9 C 0,0 km/h (0 Bft)
13.02.2023 20:08 1,9 C -0,6 C 86 % 1037,8 hPa 0,0 l/m 0,0 km/h (0 Bft) N 0 0 min 0,0 UV-I 0 W/m -0,2 C 1,9 C 0,0 km/h (0 Bft)
13.02.2023 20:09 1,9 C -0,6 C 87 % 1037,7 hPa 0,0 l/m 0,0 km/h (0 Bft) N 0 0 min 0,0 UV-I 0 W/m -0,0 C 1,9 C 0,0 km/h (0 Bft)
13.02.2023 20:10 1,9 C -0,6 C 87 % 1037,7 hPa 0,0 l/m 0,0 km/h (0 Bft) N 0 0 min 0,0 UV-I 0 W/m -0,0 C 1,9 C 0,0 km/h (0 Bft)
13.02.2023 20:11 1,8 C -1,1 C 86 % 1037,7 hPa 0,0 l/m 0,0 km/h (0 Bft) N 0 0 min 0,0 UV-I 0 W/m -0,3 C 1,8 C 0,0 km/h (0 Bft)
13.02.2023 20:12 1,7 C -0,6 C 86 % 1037,7 hPa 0,0 l/m 0,0 km/h (0 Bft) N 0 0 min 0,0 UV-I 0 W/m -0,4 C 1,7 C 0,0 km/h (0 Bft)
13.02.2023 20:13 1,7 C -1,1 C 86 % 1037,7 hPa 0,0 l/m 0,0 km/h (0 Bft) N 0 0 min 0,0 UV-I 0 W/m -0,4 C 1,7 C 0,0 km/h (0 Bft)
13.02.2023 20:14 1,7 C -1,1 C 87 % 1037,7 hPa 0,0 l/m 0,0 km/h (0 Bft) O 90 0 min 0,0 UV-I 0 W/m -0,2 C 1,7 C 1,6 km/h (1 Bft)
13.02.2023 20:15 1,7 C -1,1 C 87 % 1037,7 hPa 0,0 l/m 1,6 km/h (1 Bft) O 90 0 min 0,0 UV-I 0 W/m -0,2 C 1,7 C 1,6 km/h (1 Bft)
13.02.2023 20:16 1,8 C -0,6 C 87 % 1037,7 hPa 0,0 l/m 0,0 km/h (0 Bft) O 90 0 min 0,0 UV-I 0 W/m -0,1 C 1,8 C 1,6 km/h (1 Bft)
13.02.2023 20:17 1,8 C -1,1 C 87 % 1037,6 hPa 0,0 l/m 1,6 km/h (1 Bft) O 90 0 min 0,0 UV-I 0 W/m -0,1 C 1,8 C 1,6 km/h (1 Bft)
13.02.2023 20:18 1,8 C -1,1 C 87 % 1037,7 hPa 0,0 l/m 1,6 km/h (1 Bft) O 90 0 min 0,0 UV-I 0 W/m -0,1 C 1,8 C 3,2 km/h (1 Bft)
13.02.2023 20:19 1,9 C -0,6 C 88 % 1037,6 hPa 0,0 l/m 1,6 km/h (1 Bft) O 90 0 min 0,0 UV-I 0 W/m 0,1 C 1,9 C 3,2 km/h (1 Bft)
13.02.2023 20:20 1,9 C -0,6 C 87 % 1037,7 hPa 0,0 l/m 1,6 km/h (1 Bft) O 90 0 min 0,0 UV-I 0 W/m -0,0 C 1,9 C 1,6 km/h (1 Bft)
13.02.2023 20:21 2,0 C -0,6 C 87 % 1037,6 hPa 0,0 l/m 1,6 km/h (1 Bft) O 90 0 min 0,0 UV-I 0 W/m 0,1 C 2,0 C 1,6 km/h (1 Bft)
13.02.2023 20:22 2,1 C -0,6 C 87 % 1037,7 hPa 0,0 l/m 1,6 km/h (1 Bft) O 90 0 min 0,0 UV-I 0 W/m 0,2 C 2,1 C 1,6 km/h (1 Bft)
13.02.2023 20:23 2,0 C -0,6 C 87 % 1037,6 hPa 0,0 l/m 0,0 km/h (0 Bft) O 90 0 min 0,0 UV-I 0 W/m 0,1 C 2,0 C 1,6 km/h (1 Bft)
13.02.2023 20:24 2,0 C -0,6 C 87 % 1037,6 hPa 0,0 l/m 0,0 km/h (0 Bft) O 90 0 min 0,0 UV-I 0 W/m 0,1 C 2,0 C 1,6 km/h (1 Bft)
13.02.2023 20:25 2,0 C -0,6 C 87 % 1037,6 hPa 0,0 l/m 0,0 km/h (0 Bft) O 90 0 min 0,0 UV-I 0 W/m 0,1 C 2,0 C 1,6 km/h (1 Bft)
13.02.2023 20:26 2,0 C -1,1 C 87 % 1037,6 hPa 0,0 l/m 0,0 km/h (0 Bft) N 0 0 min 0,0 UV-I 0 W/m 0,1 C 2,0 C 0,0 km/h (0 Bft)
13.02.2023 20:27 2,1 C -1,1 C 87 % 1037,6 hPa 0,0 l/m 0,0 km/h (0 Bft) N 0 0 min 0,0 UV-I 0 W/m 0,2 C 2,1 C 0,0 km/h (0 Bft)
13.02.2023 20:28 2,1 C -1,1 C 88 % 1037,6 hPa 0,0 l/m 0,0 km/h (0 Bft) N 0 0 min 0,0 UV-I 0 W/m 0,3 C 2,1 C 0,0 km/h (0 Bft)
13.02.2023 20:29 1,9 C -1,1 C 87 % 1037,7 hPa 0,0 l/m 0,0 km/h (0 Bft) N 0 0 min 0,0 UV-I 0 W/m -0,0 C 1,9 C 0,0 km/h (0 Bft)
13.02.2023 20:30 1,8 C -1,1 C 87 % 1037,7 hPa 0,0 l/m 0,0 km/h (0 Bft) N 0 0 min 0,0 UV-I 0 W/m -0,1 C 1,8 C 0,0 km/h (0 Bft)
13.02.2023 20:31 1,8 C -1,1 C 87 % 1037,7 hPa 0,0 l/m 0,0 km/h (0 Bft) N 0 0 min 0,0 UV-I 0 W/m -0,1 C 1,8 C 0,0 km/h (0 Bft)
13.02.2023 20:32 1,8 C -1,1 C 87 % 1037,6 hPa 0,0 l/m 0,0 km/h (0 Bft) N 0 0 min 0,0 UV-I 0 W/m -0,1 C 1,8 C 0,0 km/h (0 Bft)
13.02.2023 20:33 1,7 C -1,1 C 87 % 1037,7 hPa 0,0 l/m 0,0 km/h (0 Bft) N 0 0 min 0,0 UV-I 0 W/m -0,2 C 1,7 C 0,0 km/h (0 Bft)
13.02.2023 20:34 1,7 C -1,1 C 87 % 1037,6 hPa 0,0 l/m 0,0 km/h (0 Bft) N 0 0 min 0,0 UV-I 0 W/m -0,2 C 1,7 C 0,0 km/h (0 Bft)
13.02.2023 20:35 1,6 C -1,1 C 87 % 1037,7 hPa 0,0 l/m 0,0 km/h (0 Bft) N 0 0 min 0,0 UV-I 0 W/m -0,3 C 1,6 C 0,0 km/h (0 Bft)
13.02.2023 20:36 1,4 C -1,1 C 87 % 1037,6 hPa 0,0 l/m 0,0 km/h (0 Bft) N 0 0 min 0,0 UV-I 0 W/m -0,5 C 1,4 C 0,0 km/h (0 Bft)
13.02.2023 20:37 1,3 C -1,1 C 87 % 1037,8 hPa 0,0 l/m 0,0 km/h (0 Bft) N 0 0 min 0,0 UV-I 0 W/m -0,6 C 1,3 C 0,0 km/h (0 Bft)
13.02.2023 20:38 1,3 C -1,1 C 87 % 1037,6 hPa 0,0 l/m 0,0 km/h (0 Bft) N 0 0 min 0,0 UV-I 0 W/m -0,6 C 1,3 C 0,0 km/h (0 Bft)
13.02.2023 20:39 1,2 C -1,1 C 87 % 1037,6 hPa 0,0 l/m 0,0 km/h (0 Bft) N 0 0 min 0,0 UV-I 0 W/m -0,7 C 1,2 C 0,0 km/h (0 Bft)
13.02.2023 20:40 1,1 C -1,1 C 87 % 1037,6 hPa 0,0 l/m 0,0 km/h (0 Bft) N 0 0 min 0,0 UV-I 0 W/m -0,8 C 1,1 C 0,0 km/h (0 Bft)
13.02.2023 20:41 1,0 C -1,1 C 87 % 1037,6 hPa 0,0 l/m 0,0 km/h (0 Bft) N 0 0 min 0,0 UV-I 0 W/m -0,9 C 1,0 C 0,0 km/h (0 Bft)
13.02.2023 20:42 0,9 C -1,1 C 87 % 1037,7 hPa 0,0 l/m 0,0 km/h (0 Bft) N 0 0 min 0,0 UV-I 0 W/m -1,0 C 0,9 C 0,0 km/h (0 Bft)
13.02.2023 20:43 0,9 C -1,1 C 87 % 1037,6 hPa 0,0 l/m 0,0 km/h (0 Bft) N 0 0 min 0,0 UV-I 0 W/m -1,0 C 0,9 C 0,0 km/h (0 Bft)
13.02.2023 20:44 0,9 C -1,7 C 87 % 1037,8 hPa 0,0 l/m 0,0 km/h (0 Bft) N 0 0 min 0,0 UV-I 0 W/m -1,0 C 0,9 C 0,0 km/h (0 Bft)
13.02.2023 20:45 0,9 C -1,7 C 88 % 1037,7 hPa 0,0 l/m 0,0 km/h (0 Bft) N 0 0 min 0,0 UV-I 0 W/m -0,9 C 0,9 C 0,0 km/h (0 Bft)
13.02.2023 20:46 0,9 C -1,7 C 88 % 1037,7 hPa 0,0 l/m 0,0 km/h (0 Bft) N 0 0 min 0,0 UV-I 0 W/m -0,9 C 0,9 C 0,0 km/h (0 Bft)
13.02.2023 20:47 0,9 C -1,7 C 88 % 1037,6 hPa 0,0 l/m 0,0 km/h (0 Bft) N 0 0 min 0,0 UV-I 0 W/m -0,9 C 0,9 C 0,0 km/h (0 Bft)
13.02.2023 20:48 0,9 C -1,7 C 88 % 1037,7 hPa 0,0 l/m 0,0 km/h (0 Bft) N 0 0 min 0,0 UV-I 0 W/m -0,9 C 0,9 C 0,0 km/h (0 Bft)
13.02.2023 20:49 0,9 C -1,1 C 88 % 1037,7 hPa 0,0 l/m 0,0 km/h (0 Bft) N 0 0 min 0,0 UV-I 0 W/m -0,9 C 0,9 C 0,0 km/h (0 Bft)
13.02.2023 20:50 0,9 C -1,7 C 88 % 1037,7 hPa 0,0 l/m 0,0 km/h (0 Bft) N 0 0 min 0,0 UV-I 0 W/m -0,9 C 0,9 C 0,0 km/h (0 Bft)
13.02.2023 20:51 0,9 C -1,1 C 88 % 1037,7 hPa 0,0 l/m 0,0 km/h (0 Bft) N 0 0 min 0,0 UV-I 0 W/m -0,9 C 0,9 C 0,0 km/h (0 Bft)
13.02.2023 20:52 1,0 C -1,1 C 88 % 1037,6 hPa 0,0 l/m 0,0 km/h (0 Bft) N 0 0 min 0,0 UV-I 0 W/m -0,8 C 1,0 C 0,0 km/h (0 Bft)
13.02.2023 20:53 1,1 C -1,1 C 89 % 1037,6 hPa 0,0 l/m 0,0 km/h (0 Bft) N 0 0 min 0,0 UV-I 0 W/m -0,5 C 1,1 C 0,0 km/h (0 Bft)
13.02.2023 20:54 1,2 C -1,1 C 89 % 1037,6 hPa 0,0 l/m 0,0 km/h (0 Bft) N 0 0 min 0,0 UV-I 0 W/m -0,4 C 1,2 C 0,0 km/h (0 Bft)
13.02.2023 20:55 1,2 C -1,1 C 89 % 1037,7 hPa 0,0 l/m 0,0 km/h (0 Bft) N 0 0 min 0,0 UV-I 0 W/m -0,4 C 1,2 C 0,0 km/h (0 Bft)
13.02.2023 20:56 1,2 C -1,7 C 89 % 1037,7 hPa 0,0 l/m 0,0 km/h (0 Bft) N 0 0 min 0,0 UV-I 0 W/m -0,4 C 1,2 C 0,0 km/h (0 Bft)
13.02.2023 20:57 1,1 C -1,7 C 88 % 1037,7 hPa 0,0 l/m 0,0 km/h (0 Bft) N 0 0 min 0,0 UV-I 0 W/m -0,7 C 1,1 C 0,0 km/h (0 Bft)
13.02.2023 20:58 1,0 C -1,7 C 88 % 1037,7 hPa 0,0 l/m 0,0 km/h (0 Bft) N 0 0 min 0,0 UV-I 0 W/m -0,8 C 1,0 C 0,0 km/h (0 Bft)
13.02.2023 20:59 0,9 C -1,7 C 88 % 1037,8 hPa 0,0 l/m 0,0 km/h (0 Bft) N 0 0 min 0,0 UV-I 0 W/m -0,9 C 0,9 C 0,0 km/h (0 Bft)
13.02.2023 21:00 0,8 C -1,7 C 88 % 1037,7 hPa 0,0 l/m 0,0 km/h (0 Bft) N 0 0 min 0,0 UV-I 0 W/m -1,0 C 0,8 C 0,0 km/h (0 Bft)
13.02.2023 21:01 0,7 C -1,7 C 88 % 1037,7 hPa 0,0 l/m 0,0 km/h (0 Bft) N 0 0 min 0,0 UV-I 0 W/m -1,1 C 0,7 C 0,0 km/h (0 Bft)
13.02.2023 21:03 0,6 C -1,7 C 88 % 1037,7 hPa 0,0 l/m 0,0 km/h (0 Bft) O 99 0 min 0,0 UV-I 0 W/m -1,2 C 0,6 C 0,0 km/h (0 Bft)
13.02.2023 21:06 0,4 C -1,7 C 88 % 1037,6 hPa 0,0 l/m 0,0 km/h (0 Bft) O 99 0 min 0,0 UV-I 0 W/m -1,3 C 0,4 C 0,0 km/h (0 Bft)
13.02.2023 21:09 0,4 C -1,7 C 89 % 1037,7 hPa 0,0 l/m 0,0 km/h (0 Bft) O 99 0 min 0,0 UV-I 0 W/m -1,2 C 0,4 C 0,0 km/h (0 Bft)
13.02.2023 21:12 0,4 C -2,2 C 89 % 1037,7 hPa 0,0 l/m 0,0 km/h (0 Bft) O 99 0 min 0,0 UV-I 0 W/m -1,2 C 0,4 C 0,0 km/h (0 Bft)
13.02.2023 21:15 0,3 C -2,2 C 89 % 1037,8 hPa 0,0 l/m 0,0 km/h (0 Bft) O 99 0 min 0,0 UV-I 0 W/m -1,3 C 0,3 C 0,0 km/h (0 Bft)
13.02.2023 21:18 0,4 C -2,2 C 89 % 1037,7 hPa 0,0 l/m 0,0 km/h (0 Bft) O 99 0 min 0,0 UV-I 0 W/m -1,2 C 0,4 C 0,0 km/h (0 Bft)
13.02.2023 21:21 0,3 C -2,2 C 89 % 1037,8 hPa 0,0 l/m 0,0 km/h (0 Bft) O 99 0 min 0,0 UV-I 0 W/m -1,3 C 0,3 C 0,0 km/h (0 Bft)
13.02.2023 21:24 0,2 C -2,2 C 89 % 1037,7 hPa 0,0 l/m 0,0 km/h (0 Bft) O 99 0 min 0,0 UV-I 0 W/m -1,4 C 0,2 C 0,0 km/h (0 Bft)
13.02.2023 21:27 0,2 C -2,8 C 89 % 1037,7 hPa 0,0 l/m 0,0 km/h (0 Bft) O 99 0 min 0,0 UV-I 0 W/m -1,4 C 0,2 C 0,0 km/h (0 Bft)
13.02.2023 21:28 0,2 C -2,2 C 89 % 1037,7 hPa 0,0 l/m 0,0 km/h (0 Bft) N 0 0 min 0,0 UV-I 0 W/m -1,4 C 0,2 C 0,0 km/h (0 Bft)
13.02.2023 21:29 0,2 C -2,2 C 89 % 1037,8 hPa 0,0 l/m 0,0 km/h (0 Bft) N 0 0 min 0,0 UV-I 0 W/m -1,4 C 0,2 C 0,0 km/h (0 Bft)
13.02.2023 21:30 0,2 C -2,2 C 89 % 1037,8 hPa 0,0 l/m 0,0 km/h (0 Bft) N 0 0 min 0,0 UV-I 0 W/m -1,4 C 0,2 C 0,0 km/h (0 Bft)
13.02.2023 21:31 0,2 C -2,2 C 89 % 1037,8 hPa 0,0 l/m 0,0 km/h (0 Bft) N 0 0 min 0,0 UV-I 0 W/m -1,4 C 0,2 C 0,0 km/h (0 Bft)
13.02.2023 21:32 0,2 C -2,2 C 89 % 1037,8 hPa 0,0 l/m 0,0 km/h (0 Bft) N 0 0 min 0,0 UV-I 0 W/m -1,4 C 0,2 C 0,0 km/h (0 Bft)
13.02.2023 21:33 0,1 C -2,2 C 89 % 1037,8 hPa 0,0 l/m 0,0 km/h (0 Bft) N 0 0 min 0,0 UV-I 0 W/m -1,5 C 0,1 C 0,0 km/h (0 Bft)
13.02.2023 21:34 0,1 C -2,2 C 89 % 1037,8 hPa 0,0 l/m 0,0 km/h (0 Bft) N 0 0 min 0,0 UV-I 0 W/m -1,5 C 0,1 C 0,0 km/h (0 Bft)
13.02.2023 21:35 0,0 C -2,2 C 89 % 1037,8 hPa 0,0 l/m 0,0 km/h (0 Bft) N 0 0 min 0,0 UV-I 0 W/m -1,6 C 0,0 C 0,0 km/h (0 Bft)
13.02.2023 21:36 -0,1 C -2,2 C 89 % 1037,8 hPa 0,0 l/m 0,0 km/h (0 Bft) N 0 0 min 0,0 UV-I 0 W/m -1,7 C -0,1 C 0,0 km/h (0 Bft)
13.02.2023 21:37 -0,1 C -2,2 C 89 % 1037,8 hPa 0,0 l/m 0,0 km/h (0 Bft) N 0 0 min 0,0 UV-I 0 W/m -1,7 C -0,1 C 0,0 km/h (0 Bft)
13.02.2023 21:38 -0,1 C -2,2 C 89 % 1037,8 hPa 0,0 l/m 0,0 km/h (0 Bft) N 0 0 min 0,0 UV-I 0 W/m -1,7 C -0,1 C 0,0 km/h (0 Bft)
13.02.2023 21:39 -0,1 C -2,8 C 89 % 1037,8 hPa 0,0 l/m 0,0 km/h (0 Bft) N 0 0 min 0,0 UV-I 0 W/m -1,7 C -0,1 C 0,0 km/h (0 Bft)
13.02.2023 21:40 -0,1 C -2,2 C 90 % 1037,8 hPa 0,0 l/m 0,0 km/h (0 Bft) N 0 0 min 0,0 UV-I 0 W/m -1,5 C -0,1 C 0,0 km/h (0 Bft)
13.02.2023 21:41 -0,1 C -2,2 C 90 % 1037,8 hPa 0,0 l/m 0,0 km/h (0 Bft) N 0 0 min 0,0 UV-I 0 W/m -1,5 C -0,1 C 0,0 km/h (0 Bft)
13.02.2023 21:42 -0,1 C -2,2 C 89 % 1037,7 hPa 0,0 l/m 0,0 km/h (0 Bft) N 0 0 min 0,0 UV-I 0 W/m -1,7 C -0,1 C 0,0 km/h (0 Bft)
13.02.2023 21:45 0,0 C -2,2 C 90 % 1037,8 hPa 0,0 l/m 0,0 km/h (0 Bft) O 99 0 min 0,0 UV-I 0 W/m -1,4 C 0,0 C 0,0 km/h (0 Bft)
13.02.2023 21:48 -0,1 C -2,2 C 90 % 1037,7 hPa 0,0 l/m 0,0 km/h (0 Bft) O 99 0 min 0,0 UV-I 0 W/m -1,5 C -0,1 C 0,0 km/h (0 Bft)
13.02.2023 21:51 -0,1 C -2,8 C 90 % 1037,8 hPa 0,0 l/m 0,0 km/h (0 Bft) O 99 0 min 0,0 UV-I 0 W/m -1,5 C -0,1 C 0,0 km/h (0 Bft)
13.02.2023 21:54 -0,1 C -2,8 C 90 % 1037,7 hPa 0,0 l/m 0,0 km/h (0 Bft) O 99 0 min 0,0 UV-I 0 W/m -1,5 C -0,1 C 0,0 km/h (0 Bft)
13.02.2023 21:58 -0,3 C -2,2 C 90 % 1037,7 hPa 0,0 l/m 0,0 km/h (0 Bft) O 99 0 min 0,0 UV-I 0 W/m -1,7 C -0,3 C 0,0 km/h (0 Bft)
13.02.2023 22:00 -0,3 C -2,2 C 90 % 1037,7 hPa 0,0 l/m 0,0 km/h (0 Bft) O 99 0 min 0,0 UV-I 0 W/m -1,7 C -0,3 C 0,0 km/h (0 Bft)
13.02.2023 22:03 -0,3 C -2,8 C 90 % 1037,7 hPa 0,0 l/m 0,0 km/h (0 Bft) O 99 0 min 0,0 UV-I 0 W/m -1,7 C -0,3 C 0,0 km/h (0 Bft)
13.02.2023 22:04 -0,3 C -2,8 C 90 % 1037,6 hPa 0,0 l/m 0,0 km/h (0 Bft) N 0 0 min 0,0 UV-I 0 W/m -1,7 C -0,3 C 0,0 km/h (0 Bft)
13.02.2023 22:05 -0,4 C -2,8 C 89 % 1037,6 hPa 0,0 l/m 0,0 km/h (0 Bft) N 0 0 min 0,0 UV-I 0 W/m -2,0 C -0,4 C 0,0 km/h (0 Bft)
13.02.2023 22:09 -0,6 C -2,8 C 90 % 1037,7 hPa 0,0 l/m 0,0 km/h (0 Bft) O 99 0 min 0,0 UV-I 0 W/m -2,0 C -0,6 C 0,0 km/h (0 Bft)
13.02.2023 22:12 -0,4 C -2,8 C 90 % 1037,6 hPa 0,0 l/m 0,0 km/h (0 Bft) O 99 0 min 0,0 UV-I 0 W/m -1,8 C -0,4 C 0,0 km/h (0 Bft)
13.02.2023 22:15 -0,6 C -2,8 C 90 % 1037,6 hPa 0,0 l/m 0,0 km/h (0 Bft) O 99 0 min 0,0 UV-I 0 W/m -2,0 C -0,6 C 0,0 km/h (0 Bft)
13.02.2023 22:18 -0,4 C -2,8 C 91 % 1037,7 hPa 0,0 l/m 0,0 km/h (0 Bft) O 99 0 min 0,0 UV-I 0 W/m -1,7 C -0,4 C 0,0 km/h (0 Bft)
13.02.2023 22:21 -0,5 C -2,8 C 90 % 1037,7 hPa 0,0 l/m 0,0 km/h (0 Bft) O 99 0 min 0,0 UV-I 0 W/m -1,9 C -0,5 C 0,0 km/h (0 Bft)
13.02.2023 22:24 -0,6 C -2,8 C 90 % 1037,6 hPa 0,0 l/m 0,0 km/h (0 Bft) O 99 0 min 0,0 UV-I 0 W/m -2,0 C -0,6 C 0,0 km/h (0 Bft)
13.02.2023 22:27 -0,7 C -2,8 C 90 % 1037,5 hPa 0,0 l/m 0,0 km/h (0 Bft) O 99 0 min 0,0 UV-I 0 W/m -2,1 C -0,7 C 0,0 km/h (0 Bft)
13.02.2023 22:30 -0,7 C -2,8 C 91 % 1037,6 hPa 0,0 l/m 0,0 km/h (0 Bft) O 99 0 min 0,0 UV-I 0 W/m -2,0 C -0,7 C 0,0 km/h (0 Bft)
13.02.2023 22:33 -0,5 C -2,8 C 91 % 1037,6 hPa 0,0 l/m 0,0 km/h (0 Bft) O 99 0 min 0,0 UV-I 0 W/m -1,8 C -0,5 C 0,0 km/h (0 Bft)
13.02.2023 22:36 -0,5 C -2,8 C 91 % 1037,6 hPa 0,0 l/m 0,0 km/h (0 Bft) O 99 0 min 0,0 UV-I 0 W/m -1,8 C -0,5 C 0,0 km/h (0 Bft)
13.02.2023 22:39 -0,7 C -3,3 C 90 % 1037,6 hPa 0,0 l/m 0,0 km/h (0 Bft) O 99 0 min 0,0 UV-I 0 W/m -2,1 C -0,7 C 0,0 km/h (0 Bft)
13.02.2023 22:42 -0,9 C -2,8 C 90 % 1037,6 hPa 0,0 l/m 0,0 km/h (0 Bft) O 99 0 min 0,0 UV-I 0 W/m -2,3 C -0,9 C 0,0 km/h (0 Bft)
13.02.2023 22:45 -1,1 C -2,8 C 90 % 1037,5 hPa 0,0 l/m 0,0 km/h (0 Bft) O 99 0 min 0,0 UV-I 0 W/m -2,5 C -1,1 C 0,0 km/h (0 Bft)
13.02.2023 22:48 -1,0 C -2,8 C 91 % 1037,5 hPa 0,0 l/m 0,0 km/h (0 Bft) O 99 0 min 0,0 UV-I 0 W/m -2,3 C -1,0 C 0,0 km/h (0 Bft)
13.02.2023 22:51 -0,8 C -3,3 C 91 % 1037,5 hPa 0,0 l/m 0,0 km/h (0 Bft) O 99 0 min 0,0 UV-I 0 W/m -2,1 C -0,8 C 0,0 km/h (0 Bft)
13.02.2023 22:54 -0,9 C -2,8 C 91 % 1037,4 hPa 0,0 l/m 0,0 km/h (0 Bft) O 99 0 min 0,0 UV-I 0 W/m -2,2 C -0,9 C 0,0 km/h (0 Bft)
13.02.2023 22:57 -1,1 C -3,3 C 91 % 1037,5 hPa 0,0 l/m 0,0 km/h (0 Bft) O 99 0 min 0,0 UV-I 0 W/m -2,4 C -1,1 C 0,0 km/h (0 Bft)
13.02.2023 23:00 -1,2 C -3,3 C 90 % 1037,5 hPa 0,0 l/m 0,0 km/h (0 Bft) O 99 0 min 0,0 UV-I 0 W/m -2,6 C -1,2 C 0,0 km/h (0 Bft)
13.02.2023 23:03 -1,3 C -3,3 C 91 % 1037,4 hPa 0,0 l/m 0,0 km/h (0 Bft) O 99 0 min 0,0 UV-I 0 W/m -2,6 C -1,3 C 0,0 km/h (0 Bft)
13.02.2023 23:06 -1,4 C -3,3 C 90 % 1037,3 hPa 0,0 l/m 0,0 km/h (0 Bft) O 99 0 min 0,0 UV-I 0 W/m -2,8 C -1,4 C 0,0 km/h (0 Bft)
13.02.2023 23:09 -1,3 C -3,3 C 91 % 1037,4 hPa 0,0 l/m 0,0 km/h (0 Bft) O 99 0 min 0,0 UV-I 0 W/m -2,6 C -1,3 C 0,0 km/h (0 Bft)
13.02.2023 23:12 -1,3 C -3,3 C 91 % 1037,4 hPa 0,0 l/m 0,0 km/h (0 Bft) O 99 0 min 0,0 UV-I 0 W/m -2,6 C -1,3 C 0,0 km/h (0 Bft)
13.02.2023 23:15 -1,1 C -3,3 C 91 % 1037,4 hPa 0,0 l/m 0,0 km/h (0 Bft) O 99 0 min 0,0 UV-I 0 W/m -2,4 C -1,1 C 0,0 km/h (0 Bft)
13.02.2023 23:18 -1,3 C -3,3 C 91 % 1037,4 hPa 0,0 l/m 0,0 km/h (0 Bft) O 99 0 min 0,0 UV-I 0 W/m -2,6 C -1,3 C 0,0 km/h (0 Bft)
13.02.2023 23:21 -1,4 C -3,3 C 91 % 1037,4 hPa 0,0 l/m 0,0 km/h (0 Bft) O 99 0 min 0,0 UV-I 0 W/m -2,7 C -1,4 C 0,0 km/h (0 Bft)
13.02.2023 23:24 -1,4 C -3,3 C 91 % 1037,4 hPa 0,0 l/m 0,0 km/h (0 Bft) O 99 0 min 0,0 UV-I 0 W/m -2,7 C -1,4 C 0,0 km/h (0 Bft)
13.02.2023 23:27 -1,6 C -3,9 C 91 % 1037,4 hPa 0,0 l/m 0,0 km/h (0 Bft) O 99 0 min 0,0 UV-I 0 W/m -2,9 C -1,6 C 0,0 km/h (0 Bft)
13.02.2023 23:30 -1,6 C -3,3 C 91 % 1037,4 hPa 0,0 l/m 0,0 km/h (0 Bft) O 99 0 min 0,0 UV-I 0 W/m -2,9 C -1,6 C 0,0 km/h (0 Bft)
13.02.2023 23:33 -1,5 C -3,3 C 91 % 1037,4 hPa 0,0 l/m 0,0 km/h (0 Bft) O 99 0 min 0,0 UV-I 0 W/m -2,8 C -1,5 C 0,0 km/h (0 Bft)
13.02.2023 23:36 -1,6 C -3,3 C 91 % 1037,4 hPa 0,0 l/m 0,0 km/h (0 Bft) O 99 0 min 0,0 UV-I 0 W/m -2,9 C -1,6 C 0,0 km/h (0 Bft)
13.02.2023 23:39 -1,6 C -3,3 C 91 % 1037,4 hPa 0,0 l/m 0,0 km/h (0 Bft) O 99 0 min 0,0 UV-I 0 W/m -2,9 C -1,6 C 0,0 km/h (0 Bft)
13.02.2023 23:42 -1,7 C -3,3 C 91 % 1037,4 hPa 0,0 l/m 0,0 km/h (0 Bft) O 99 0 min 0,0 UV-I 0 W/m -3,0 C -1,7 C 0,0 km/h (0 Bft)
13.02.2023 23:45 -1,6 C -3,3 C 91 % 1037,5 hPa 0,0 l/m 0,0 km/h (0 Bft) O 99 0 min 0,0 UV-I 0 W/m -2,9 C -1,6 C 0,0 km/h (0 Bft)
13.02.2023 23:48 -1,6 C -3,3 C 91 % 1037,3 hPa 0,0 l/m 0,0 km/h (0 Bft) O 99 0 min 0,0 UV-I 0 W/m -2,9 C -1,6 C 0,0 km/h (0 Bft)
13.02.2023 23:51 -1,7 C -3,3 C 91 % 1037,3 hPa 0,0 l/m 0,0 km/h (0 Bft) O 99 0 min 0,0 UV-I 0 W/m -3,0 C -1,7 C 0,0 km/h (0 Bft)
13.02.2023 23:54 -1,6 C -3,3 C 91 % 1037,3 hPa 0,0 l/m 0,0 km/h (0 Bft) O 99 0 min 0,0 UV-I 0 W/m -2,9 C -1,6 C 0,0 km/h (0 Bft)
13.02.2023 23:57 -1,6 C -3,3 C 91 % 1037,4 hPa 0,0 l/m 0,0 km/h (0 Bft) O 99 0 min 0,0 UV-I 0 W/m -2,9 C -1,6 C 0,0 km/h (0 Bft)
13.02.2023 23:58 -1,7 C -3,3 C 91 % 1037,4 hPa 0,0 l/m 0,0 km/h (0 Bft) O 90 0 min 0,0 UV-I 0 W/m -3,0 C -1,7 C 1,6 km/h (1 Bft)
13.02.2023 23:59 -1,8 C -3,9 C 91 % 1037,4 hPa 0,0 l/m 1,6 km/h (1 Bft) O 90 0 min 0,0 UV-I 0 W/m -3,1 C -1,8 C 3,2 km/h (1 Bft)
_ Min-Zeit 23:59 23:27 15:03 15:57 - 01:06 - - - - - 23:59 23:59 01:07
Minimum _ -1,8 C -3,9 C 56 % 1036,9 hPa - 0,0 km/h (0 Bft) - - - - - -3,1 C -1,8 C 0,0 km/h (0 Bft)
_ Max-Zeit 15:36 12:30 09:57 00:29 00:00 13:42 - - 10:12 12:24 13:12 12:21 15:36 13:42
Maximum _ 12,9 C 24,4 C 95 % 1039,1 hPa 0,0 l/m 12,4 km/h
S-SO (3 Bft)
- - 3 min 2,3 UV-I 458 W/m 6,5 C 12,9 C 19,3 km/h
SO (3 Bft)
Durchschnitt _ 4,5 C 6,1 C 84 % 1038,1 hPa #0,0 l/m 2,2 km/h (1 Bft) NO - #5:48 h 1,6 UV-I 261 W/m 1,7 C 4,4 C 3,8 km/h (1 Bft)